<?xml version="1.0" encoding="UTF-8" standalone="no" ?>
<gpx xmlns="http://www.topografix.com/GPX/1/1" xmlns:xsi="http://www.w3.org/2001/XMLSchema-instance" xsi:schemaLocation="http://www.topografix.com/GPX/1/1 http://www.topografix.com/GPX/1/1/gpx.xsd" version="1.1" creator="VisuGPX - https://www.visugpx.com">
  <metadata>
    <name>La Combaz, Le Chasseron</name>
  </metadata>
  <trk>
    <name><![CDATA[La Combaz, Le Chasseron_1]]></name>
    <trkseg>
      <trkpt lat="46.87748" lon="6.63978">
        <ele>1233.29</ele>
        <time>2020-07-14T08:30:00.000Z</time>
      </trkpt>
      <trkpt lat="46.87749" lon="6.63987">
        <ele>1233.52</ele>
        <time>2020-07-14T08:30:02.470Z</time>
      </trkpt>
      <trkpt lat="46.87751" lon="6.64">
        <ele>1233.97</ele>
        <time>2020-07-14T08:30:06.633Z</time>
      </trkpt>
      <trkpt lat="46.87693" lon="6.63924">
        <ele>1230.32</ele>
        <time>2020-07-14T08:30:15.810Z</time>
      </trkpt>
      <trkpt lat="46.87675" lon="6.63899">
        <ele>1228.99</ele>
        <time>2020-07-14T08:30:18.570Z</time>
      </trkpt>
      <trkpt lat="46.87671" lon="6.63894">
        <ele>1228.9</ele>
        <time>2020-07-14T08:30:19.414Z</time>
      </trkpt>
      <trkpt lat="46.87663" lon="6.63883">
        <ele>1228.34</ele>
        <time>2020-07-14T08:30:20.662Z</time>
      </trkpt>
      <trkpt lat="46.87652" lon="6.63864">
        <ele>1227.63</ele>
        <time>2020-07-14T08:30:22.765Z</time>
      </trkpt>
      <trkpt lat="46.87641" lon="6.6384">
        <ele>1225.82</ele>
        <time>2020-07-14T08:30:24.925Z</time>
      </trkpt>
      <trkpt lat="46.87641" lon="6.63839">
        <ele>1225.82</ele>
        <time>2020-07-14T08:30:25.104Z</time>
      </trkpt>
      <trkpt lat="46.87599" lon="6.6375">
        <ele>1224</ele>
        <time>2020-07-14T08:30:35.974Z</time>
      </trkpt>
      <trkpt lat="46.8759" lon="6.63732">
        <ele>1223.44</ele>
        <time>2020-07-14T08:30:37.950Z</time>
      </trkpt>
      <trkpt lat="46.87579" lon="6.63718">
        <ele>1222.67</ele>
        <time>2020-07-14T08:30:39.582Z</time>
      </trkpt>
      <trkpt lat="46.87569" lon="6.63709">
        <ele>1222.53</ele>
        <time>2020-07-14T08:30:41.592Z</time>
      </trkpt>
      <trkpt lat="46.87559" lon="6.63703">
        <ele>1222.11</ele>
        <time>2020-07-14T08:30:42.964Z</time>
      </trkpt>
      <trkpt lat="46.8754" lon="6.63692">
        <ele>1221.65</ele>
        <time>2020-07-14T08:30:46.041Z</time>
      </trkpt>
      <trkpt lat="46.87504" lon="6.63671">
        <ele>1221.65</ele>
        <time>2020-07-14T08:30:56.254Z</time>
      </trkpt>
      <trkpt lat="46.8748" lon="6.63657">
        <ele>1219.6</ele>
        <time>2020-07-14T08:30:59.061Z</time>
      </trkpt>
      <trkpt lat="46.87456" lon="6.63644">
        <ele>1218.89</ele>
        <time>2020-07-14T08:31:02.698Z</time>
      </trkpt>
      <trkpt lat="46.87456" lon="6.63643">
        <ele>1218.89</ele>
        <time>2020-07-14T08:31:02.877Z</time>
      </trkpt>
      <trkpt lat="46.87433" lon="6.63631">
        <ele>1218.17</ele>
        <time>2020-07-14T08:31:06.283Z</time>
      </trkpt>
      <trkpt lat="46.87419" lon="6.63619">
        <ele>1217.6</ele>
        <time>2020-07-14T08:31:08.419Z</time>
      </trkpt>
      <trkpt lat="46.87407" lon="6.63606">
        <ele>1217.19</ele>
        <time>2020-07-14T08:31:10.548Z</time>
      </trkpt>
      <trkpt lat="46.87395" lon="6.63589">
        <ele>1216.63</ele>
        <time>2020-07-14T08:31:12.783Z</time>
      </trkpt>
      <trkpt lat="46.87391" lon="6.63581">
        <ele>1216.54</ele>
        <time>2020-07-14T08:31:13.923Z</time>
      </trkpt>
      <trkpt lat="46.87384" lon="6.63566">
        <ele>1216.34</ele>
        <time>2020-07-14T08:31:15.939Z</time>
      </trkpt>
      <trkpt lat="46.87374" lon="6.63545">
        <ele>1216.08</ele>
        <time>2020-07-14T08:31:18.825Z</time>
      </trkpt>
      <trkpt lat="46.87363" lon="6.6352">
        <ele>1215.62</ele>
        <time>2020-07-14T08:31:21.881Z</time>
      </trkpt>
      <trkpt lat="46.87337" lon="6.63464">
        <ele>1215.26</ele>
        <time>2020-07-14T08:31:30.254Z</time>
      </trkpt>
      <trkpt lat="46.87292" lon="6.63363">
        <ele>1215.4</ele>
        <time>2020-07-14T08:31:52.221Z</time>
      </trkpt>
      <trkpt lat="46.87292" lon="6.63362">
        <ele>1215.4</ele>
        <time>2020-07-14T08:31:52.400Z</time>
      </trkpt>
      <trkpt lat="46.87271" lon="6.63316">
        <ele>1215.53</ele>
        <time>2020-07-14T08:32:02.644Z</time>
      </trkpt>
      <trkpt lat="46.87256" lon="6.63283">
        <ele>1216.21</ele>
        <time>2020-07-14T08:32:11.875Z</time>
      </trkpt>
      <trkpt lat="46.87243" lon="6.63253">
        <ele>1217.07</ele>
        <time>2020-07-14T08:32:21.306Z</time>
      </trkpt>
      <trkpt lat="46.87171" lon="6.63096">
        <ele>1222</ele>
        <time>2020-07-14T08:33:13.430Z</time>
      </trkpt>
      <trkpt lat="46.87158" lon="6.63068">
        <ele>1222</ele>
        <time>2020-07-14T08:33:19.527Z</time>
      </trkpt>
      <trkpt lat="46.87119" lon="6.62979">
        <ele>1225.3</ele>
        <time>2020-07-14T08:33:51.735Z</time>
      </trkpt>
      <trkpt lat="46.87112" lon="6.62961">
        <ele>1225.83</ele>
        <time>2020-07-14T08:33:57.388Z</time>
      </trkpt>
      <trkpt lat="46.87105" lon="6.62943">
        <ele>1226.28</ele>
        <time>2020-07-14T08:34:02.629Z</time>
      </trkpt>
      <trkpt lat="46.87099" lon="6.62926">
        <ele>1226.68</ele>
        <time>2020-07-14T08:34:07.396Z</time>
      </trkpt>
      <trkpt lat="46.87047" lon="6.62723">
        <ele>1231.77</ele>
        <time>2020-07-14T08:35:04.131Z</time>
      </trkpt>
      <trkpt lat="46.87036" lon="6.62685">
        <ele>1232.66</ele>
        <time>2020-07-14T08:35:14.542Z</time>
      </trkpt>
      <trkpt lat="46.87028" lon="6.62659">
        <ele>1233.32</ele>
        <time>2020-07-14T08:35:21.956Z</time>
      </trkpt>
      <trkpt lat="46.87018" lon="6.62628">
        <ele>1234.13</ele>
        <time>2020-07-14T08:35:30.953Z</time>
      </trkpt>
      <trkpt lat="46.87002" lon="6.62583">
        <ele>1235.3</ele>
        <time>2020-07-14T08:35:44.122Z</time>
      </trkpt>
      <trkpt lat="46.86982" lon="6.62534">
        <ele>1236.43</ele>
        <time>2020-07-14T08:35:58.055Z</time>
      </trkpt>
      <trkpt lat="46.86946" lon="6.62446">
        <ele>1238.33</ele>
        <time>2020-07-14T08:36:22.526Z</time>
      </trkpt>
      <trkpt lat="46.86932" lon="6.62411">
        <ele>1239.12</ele>
        <time>2020-07-14T08:36:32.369Z</time>
      </trkpt>
      <trkpt lat="46.86921" lon="6.62385">
        <ele>1239.72</ele>
        <time>2020-07-14T08:36:39.811Z</time>
      </trkpt>
      <trkpt lat="46.86906" lon="6.62348">
        <ele>1240.52</ele>
        <time>2020-07-14T08:36:50.088Z</time>
      </trkpt>
      <trkpt lat="46.86871" lon="6.62264">
        <ele>1242.37</ele>
        <time>2020-07-14T08:37:13.679Z</time>
      </trkpt>
      <trkpt lat="46.86849" lon="6.62211">
        <ele>1243.3</ele>
        <time>2020-07-14T08:37:27.599Z</time>
      </trkpt>
      <trkpt lat="46.86829" lon="6.62162">
        <ele>1244.05</ele>
        <time>2020-07-14T08:37:40.024Z</time>
      </trkpt>
      <trkpt lat="46.86824" lon="6.62147">
        <ele>1244.22</ele>
        <time>2020-07-14T08:37:43.491Z</time>
      </trkpt>
      <trkpt lat="46.86815" lon="6.62126">
        <ele>1244.41</ele>
        <time>2020-07-14T08:37:48.446Z</time>
      </trkpt>
      <trkpt lat="46.86805" lon="6.62103">
        <ele>1244.53</ele>
        <time>2020-07-14T08:37:53.642Z</time>
      </trkpt>
      <trkpt lat="46.86799" lon="6.62087">
        <ele>1244.54</ele>
        <time>2020-07-14T08:37:56.940Z</time>
      </trkpt>
      <trkpt lat="46.86798" lon="6.62087">
        <ele>1244.54</ele>
        <time>2020-07-14T08:37:57.202Z</time>
      </trkpt>
      <trkpt lat="46.86794" lon="6.62076">
        <ele>1244.55</ele>
        <time>2020-07-14T08:37:59.461Z</time>
      </trkpt>
      <trkpt lat="46.8677" lon="6.62017">
        <ele>1244.21</ele>
        <time>2020-07-14T08:38:10.547Z</time>
      </trkpt>
      <trkpt lat="46.86759" lon="6.61992">
        <ele>1243.87</ele>
        <time>2020-07-14T08:38:13.823Z</time>
      </trkpt>
      <trkpt lat="46.8675" lon="6.61968">
        <ele>1243.4</ele>
        <time>2020-07-14T08:38:16.560Z</time>
      </trkpt>
      <trkpt lat="46.86741" lon="6.61948">
        <ele>1242.98</ele>
        <time>2020-07-14T08:38:18.939Z</time>
      </trkpt>
      <trkpt lat="46.86731" lon="6.61923">
        <ele>1242.48</ele>
        <time>2020-07-14T08:38:21.831Z</time>
      </trkpt>
      <trkpt lat="46.86722" lon="6.61899">
        <ele>1242</ele>
        <time>2020-07-14T08:38:24.551Z</time>
      </trkpt>
      <trkpt lat="46.86712" lon="6.61875">
        <ele>1241.49</ele>
        <time>2020-07-14T08:38:27.318Z</time>
      </trkpt>
      <trkpt lat="46.86699" lon="6.61843">
        <ele>1240.82</ele>
        <time>2020-07-14T08:38:30.990Z</time>
      </trkpt>
      <trkpt lat="46.86689" lon="6.61819">
        <ele>1240.26</ele>
        <time>2020-07-14T08:38:33.680Z</time>
      </trkpt>
      <trkpt lat="46.86671" lon="6.61775">
        <ele>1239.03</ele>
        <time>2020-07-14T08:38:38.297Z</time>
      </trkpt>
      <trkpt lat="46.86659" lon="6.61746">
        <ele>1238.09</ele>
        <time>2020-07-14T08:38:41.191Z</time>
      </trkpt>
      <trkpt lat="46.86648" lon="6.61721">
        <ele>1237.15</ele>
        <time>2020-07-14T08:38:43.601Z</time>
      </trkpt>
      <trkpt lat="46.86605" lon="6.61617">
        <ele>1233.37</ele>
        <time>2020-07-14T08:38:53.516Z</time>
      </trkpt>
      <trkpt lat="46.86596" lon="6.61592">
        <ele>1232.42</ele>
        <time>2020-07-14T08:38:55.747Z</time>
      </trkpt>
      <trkpt lat="46.86587" lon="6.61565">
        <ele>1231.45</ele>
        <time>2020-07-14T08:38:58.160Z</time>
      </trkpt>
      <trkpt lat="46.86567" lon="6.61488">
        <ele>1228.71</ele>
        <time>2020-07-14T08:39:04.694Z</time>
      </trkpt>
      <trkpt lat="46.8651" lon="6.61276">
        <ele>1221.41</ele>
        <time>2020-07-14T08:39:23.051Z</time>
      </trkpt>
      <trkpt lat="46.8645" lon="6.61053">
        <ele>1215.21</ele>
        <time>2020-07-14T08:39:44.054Z</time>
      </trkpt>
      <trkpt lat="46.86439" lon="6.61012">
        <ele>1215.21</ele>
        <time>2020-07-14T08:39:51.993Z</time>
      </trkpt>
      <trkpt lat="46.86396" lon="6.60847">
        <ele>1209.74</ele>
        <time>2020-07-14T08:40:06.400Z</time>
      </trkpt>
      <trkpt lat="46.8636" lon="6.60713">
        <ele>1207.39</ele>
        <time>2020-07-14T08:40:20.995Z</time>
      </trkpt>
      <trkpt lat="46.8636" lon="6.60712">
        <ele>1207.39</ele>
        <time>2020-07-14T08:40:21.175Z</time>
      </trkpt>
      <trkpt lat="46.8635" lon="6.60674">
        <ele>1205.04</ele>
        <time>2020-07-14T08:40:24.219Z</time>
      </trkpt>
      <trkpt lat="46.8634" lon="6.6064">
        <ele>1204.1</ele>
        <time>2020-07-14T08:40:27.485Z</time>
      </trkpt>
      <trkpt lat="46.86319" lon="6.60559">
        <ele>1201.73</ele>
        <time>2020-07-14T08:40:34.921Z</time>
      </trkpt>
      <trkpt lat="46.86316" lon="6.60549">
        <ele>1201.42</ele>
        <time>2020-07-14T08:40:35.845Z</time>
      </trkpt>
      <trkpt lat="46.86311" lon="6.6054">
        <ele>1201.1</ele>
        <time>2020-07-14T08:40:36.837Z</time>
      </trkpt>
      <trkpt lat="46.86306" lon="6.60531">
        <ele>1200.94</ele>
        <time>2020-07-14T08:40:38.063Z</time>
      </trkpt>
      <trkpt lat="46.86315" lon="6.60531">
        <ele>1201.02</ele>
        <time>2020-07-14T08:40:40.634Z</time>
      </trkpt>
      <trkpt lat="46.86334" lon="6.60532">
        <ele>1201.17</ele>
        <time>2020-07-14T08:40:46.011Z</time>
      </trkpt>
      <trkpt lat="46.86341" lon="6.6052">
        <ele>1201.24</ele>
        <time>2020-07-14T08:40:49.020Z</time>
      </trkpt>
      <trkpt lat="46.86344" lon="6.6051">
        <ele>1201.41</ele>
        <time>2020-07-14T08:40:51.495Z</time>
      </trkpt>
      <trkpt lat="46.86347" lon="6.60496">
        <ele>1201.13</ele>
        <time>2020-07-14T08:40:52.918Z</time>
      </trkpt>
      <trkpt lat="46.8635" lon="6.60469">
        <ele>1200.59</ele>
        <time>2020-07-14T08:40:55.544Z</time>
      </trkpt>
      <trkpt lat="46.86352" lon="6.60444">
        <ele>1199.75</ele>
        <time>2020-07-14T08:40:57.538Z</time>
      </trkpt>
      <trkpt lat="46.86353" lon="6.60409">
        <ele>1198.66</ele>
        <time>2020-07-14T08:41:00.396Z</time>
      </trkpt>
      <trkpt lat="46.86354" lon="6.60388">
        <ele>1198.26</ele>
        <time>2020-07-14T08:41:02.440Z</time>
      </trkpt>
      <trkpt lat="46.86354" lon="6.60388">
        <ele>1198.26</ele>
        <time>2020-07-14T08:41:02.440Z</time>
      </trkpt>
      <trkpt lat="46.86355" lon="6.60371">
        <ele>1197.86</ele>
        <time>2020-07-14T08:41:03.989Z</time>
      </trkpt>
      <trkpt lat="46.86356" lon="6.6033">
        <ele>1197.25</ele>
        <time>2020-07-14T08:41:08.250Z</time>
      </trkpt>
      <trkpt lat="46.86354" lon="6.60159">
        <ele>1197.25</ele>
        <time>2020-07-14T08:41:38.865Z</time>
      </trkpt>
      <trkpt lat="46.86353" lon="6.60101">
        <ele>1197.34</ele>
        <time>2020-07-14T08:41:49.562Z</time>
      </trkpt>
      <trkpt lat="46.86353" lon="6.6005">
        <ele>1197.8</ele>
        <time>2020-07-14T08:41:59.969Z</time>
      </trkpt>
      <trkpt lat="46.86351" lon="6.59899">
        <ele>1199.69</ele>
        <time>2020-07-14T08:42:32.522Z</time>
      </trkpt>
      <trkpt lat="46.86349" lon="6.59819">
        <ele>1200.09</ele>
        <time>2020-07-14T08:42:47.914Z</time>
      </trkpt>
      <trkpt lat="46.8635" lon="6.5976">
        <ele>1199.31</ele>
        <time>2020-07-14T08:42:54.218Z</time>
      </trkpt>
      <trkpt lat="46.86349" lon="6.5974">
        <ele>1199.28</ele>
        <time>2020-07-14T08:42:57.699Z</time>
      </trkpt>
      <trkpt lat="46.86348" lon="6.59723">
        <ele>1199.32</ele>
        <time>2020-07-14T08:43:00.860Z</time>
      </trkpt>
      <trkpt lat="46.86346" lon="6.597">
        <ele>1199.8</ele>
        <time>2020-07-14T08:43:06.616Z</time>
      </trkpt>
      <trkpt lat="46.86344" lon="6.59683">
        <ele>1200.28</ele>
        <time>2020-07-14T08:43:11.550Z</time>
      </trkpt>
      <trkpt lat="46.86343" lon="6.59659">
        <ele>1200.67</ele>
        <time>2020-07-14T08:43:17.061Z</time>
      </trkpt>
      <trkpt lat="46.86342" lon="6.59616">
        <ele>1200.95</ele>
        <time>2020-07-14T08:43:25.517Z</time>
      </trkpt>
      <trkpt lat="46.86342" lon="6.59594">
        <ele>1200.56</ele>
        <time>2020-07-14T08:43:27.697Z</time>
      </trkpt>
      <trkpt lat="46.86342" lon="6.59579">
        <ele>1200.23</ele>
        <time>2020-07-14T08:43:29.088Z</time>
      </trkpt>
      <trkpt lat="46.86342" lon="6.59559">
        <ele>1200.01</ele>
        <time>2020-07-14T08:43:31.310Z</time>
      </trkpt>
      <trkpt lat="46.86341" lon="6.59545">
        <ele>1199.98</ele>
        <time>2020-07-14T08:43:33.720Z</time>
      </trkpt>
      <trkpt lat="46.86339" lon="6.59521">
        <ele>1199.93</ele>
        <time>2020-07-14T08:43:37.865Z</time>
      </trkpt>
      <trkpt lat="46.86336" lon="6.59499">
        <ele>1200.07</ele>
        <time>2020-07-14T08:43:42.257Z</time>
      </trkpt>
      <trkpt lat="46.86332" lon="6.59477">
        <ele>1200.24</ele>
        <time>2020-07-14T08:43:46.795Z</time>
      </trkpt>
      <trkpt lat="46.86326" lon="6.59449">
        <ele>1200.38</ele>
        <time>2020-07-14T08:43:52.419Z</time>
      </trkpt>
      <trkpt lat="46.86322" lon="6.59424">
        <ele>1200.32</ele>
        <time>2020-07-14T08:43:56.796Z</time>
      </trkpt>
      <trkpt lat="46.86319" lon="6.59405">
        <ele>1200.28</ele>
        <time>2020-07-14T08:44:00.141Z</time>
      </trkpt>
      <trkpt lat="46.86315" lon="6.59359">
        <ele>1200.19</ele>
        <time>2020-07-14T08:44:08.113Z</time>
      </trkpt>
      <trkpt lat="46.86312" lon="6.59345">
        <ele>1200.32</ele>
        <time>2020-07-14T08:44:11.100Z</time>
      </trkpt>
      <trkpt lat="46.86307" lon="6.59324">
        <ele>1200.69</ele>
        <time>2020-07-14T08:44:16.234Z</time>
      </trkpt>
      <trkpt lat="46.86297" lon="6.59289">
        <ele>1201.71</ele>
        <time>2020-07-14T08:44:26.871Z</time>
      </trkpt>
      <trkpt lat="46.86295" lon="6.59286">
        <ele>1202.18</ele>
        <time>2020-07-14T08:44:29.770Z</time>
      </trkpt>
      <trkpt lat="46.86295" lon="6.59285">
        <ele>1202.18</ele>
        <time>2020-07-14T08:44:29.950Z</time>
      </trkpt>
      <trkpt lat="46.86288" lon="6.59263">
        <ele>1202.64</ele>
        <time>2020-07-14T08:44:35.785Z</time>
      </trkpt>
      <trkpt lat="46.8628" lon="6.59246">
        <ele>1203.19</ele>
        <time>2020-07-14T08:44:41.544Z</time>
      </trkpt>
      <trkpt lat="46.86271" lon="6.59229">
        <ele>1203.92</ele>
        <time>2020-07-14T08:44:48.273Z</time>
      </trkpt>
      <trkpt lat="46.86264" lon="6.59218">
        <ele>1204.72</ele>
        <time>2020-07-14T08:44:54.040Z</time>
      </trkpt>
      <trkpt lat="46.86249" lon="6.59201">
        <ele>1206.64</ele>
        <time>2020-07-14T08:45:07.139Z</time>
      </trkpt>
      <trkpt lat="46.86238" lon="6.59186">
        <ele>1207.63</ele>
        <time>2020-07-14T08:45:14.837Z</time>
      </trkpt>
      <trkpt lat="46.86232" lon="6.59175">
        <ele>1207.99</ele>
        <time>2020-07-14T08:45:18.678Z</time>
      </trkpt>
      <trkpt lat="46.86223" lon="6.59151">
        <ele>1208.7</ele>
        <time>2020-07-14T08:45:26.204Z</time>
      </trkpt>
      <trkpt lat="46.86218" lon="6.59142">
        <ele>1208.98</ele>
        <time>2020-07-14T08:45:29.279Z</time>
      </trkpt>
      <trkpt lat="46.86212" lon="6.59133">
        <ele>1209.27</ele>
        <time>2020-07-14T08:45:32.543Z</time>
      </trkpt>
      <trkpt lat="46.86205" lon="6.59097">
        <ele>1210.74</ele>
        <time>2020-07-14T08:45:44.886Z</time>
      </trkpt>
      <trkpt lat="46.862" lon="6.59074">
        <ele>1211.9</ele>
        <time>2020-07-14T08:45:53.619Z</time>
      </trkpt>
      <trkpt lat="46.86197" lon="6.59053">
        <ele>1213.83</ele>
        <time>2020-07-14T08:46:08.075Z</time>
      </trkpt>
      <trkpt lat="46.86192" lon="6.59036">
        <ele>1215.81</ele>
        <time>2020-07-14T08:46:20.882Z</time>
      </trkpt>
      <trkpt lat="46.86182" lon="6.59008">
        <ele>1218.53</ele>
        <time>2020-07-14T08:46:40.602Z</time>
      </trkpt>
      <trkpt lat="46.86178" lon="6.59006">
        <ele>1218.33</ele>
        <time>2020-07-14T08:46:41.099Z</time>
      </trkpt>
      <trkpt lat="46.86174" lon="6.59005">
        <ele>1217.68</ele>
        <time>2020-07-14T08:46:41.543Z</time>
      </trkpt>
      <trkpt lat="46.86169" lon="6.59002">
        <ele>1216.99</ele>
        <time>2020-07-14T08:46:42.134Z</time>
      </trkpt>
      <trkpt lat="46.86165" lon="6.59">
        <ele>1216.79</ele>
        <time>2020-07-14T08:46:42.630Z</time>
      </trkpt>
      <trkpt lat="46.86162" lon="6.58998">
        <ele>1216.31</ele>
        <time>2020-07-14T08:46:42.990Z</time>
      </trkpt>
      <trkpt lat="46.86158" lon="6.58994">
        <ele>1216.05</ele>
        <time>2020-07-14T08:46:43.529Z</time>
      </trkpt>
      <trkpt lat="46.86153" lon="6.5899">
        <ele>1215.43</ele>
        <time>2020-07-14T08:46:44.152Z</time>
      </trkpt>
      <trkpt lat="46.86149" lon="6.58988">
        <ele>1215.14</ele>
        <time>2020-07-14T08:46:44.614Z</time>
      </trkpt>
      <trkpt lat="46.86142" lon="6.58982">
        <ele>1214.36</ele>
        <time>2020-07-14T08:46:45.502Z</time>
      </trkpt>
      <trkpt lat="46.8614" lon="6.58979">
        <ele>1214.03</ele>
        <time>2020-07-14T08:46:45.815Z</time>
      </trkpt>
      <trkpt lat="46.86138" lon="6.58976">
        <ele>1213.85</ele>
        <time>2020-07-14T08:46:46.110Z</time>
      </trkpt>
      <trkpt lat="46.86132" lon="6.58974">
        <ele>1212.86</ele>
        <time>2020-07-14T08:46:46.783Z</time>
      </trkpt>
      <trkpt lat="46.86126" lon="6.58969">
        <ele>1212.24</ele>
        <time>2020-07-14T08:46:47.539Z</time>
      </trkpt>
      <trkpt lat="46.8612" lon="6.58965">
        <ele>1211.62</ele>
        <time>2020-07-14T08:46:48.260Z</time>
      </trkpt>
      <trkpt lat="46.86115" lon="6.58961">
        <ele>1211.11</ele>
        <time>2020-07-14T08:46:48.883Z</time>
      </trkpt>
      <trkpt lat="46.8611" lon="6.58956">
        <ele>1210.74</ele>
        <time>2020-07-14T08:46:49.516Z</time>
      </trkpt>
      <trkpt lat="46.86106" lon="6.58951">
        <ele>1210.58</ele>
        <time>2020-07-14T08:46:50.243Z</time>
      </trkpt>
      <trkpt lat="46.86099" lon="6.5894">
        <ele>1210.16</ele>
        <time>2020-07-14T08:46:51.523Z</time>
      </trkpt>
      <trkpt lat="46.86091" lon="6.58931">
        <ele>1209.86</ele>
        <time>2020-07-14T08:46:52.927Z</time>
      </trkpt>
      <trkpt lat="46.86088" lon="6.58926">
        <ele>1209.67</ele>
        <time>2020-07-14T08:46:53.489Z</time>
      </trkpt>
      <trkpt lat="46.86084" lon="6.5892">
        <ele>1209.5</ele>
        <time>2020-07-14T08:46:54.286Z</time>
      </trkpt>
      <trkpt lat="46.86079" lon="6.58916">
        <ele>1209.27</ele>
        <time>2020-07-14T08:46:54.999Z</time>
      </trkpt>
      <trkpt lat="46.86074" lon="6.58909">
        <ele>1208.84</ele>
        <time>2020-07-14T08:46:55.718Z</time>
      </trkpt>
      <trkpt lat="46.8607" lon="6.58904">
        <ele>1208.57</ele>
        <time>2020-07-14T08:46:56.314Z</time>
      </trkpt>
      <trkpt lat="46.86068" lon="6.589">
        <ele>1208.32</ele>
        <time>2020-07-14T08:46:56.685Z</time>
      </trkpt>
      <trkpt lat="46.86065" lon="6.58894">
        <ele>1208.35</ele>
        <time>2020-07-14T08:46:58.094Z</time>
      </trkpt>
      <trkpt lat="46.86059" lon="6.58884">
        <ele>1207.53</ele>
        <time>2020-07-14T08:46:59.089Z</time>
      </trkpt>
      <trkpt lat="46.86055" lon="6.58875">
        <ele>1207.15</ele>
        <time>2020-07-14T08:46:59.918Z</time>
      </trkpt>
      <trkpt lat="46.86049" lon="6.58866">
        <ele>1206.53</ele>
        <time>2020-07-14T08:47:00.858Z</time>
      </trkpt>
      <trkpt lat="46.86042" lon="6.58854">
        <ele>1205.3</ele>
        <time>2020-07-14T08:47:02.037Z</time>
      </trkpt>
      <trkpt lat="46.8604" lon="6.58851">
        <ele>1204.92</ele>
        <time>2020-07-14T08:47:02.351Z</time>
      </trkpt>
      <trkpt lat="46.86036" lon="6.58849">
        <ele>1204.36</ele>
        <time>2020-07-14T08:47:02.813Z</time>
      </trkpt>
      <trkpt lat="46.86031" lon="6.58845">
        <ele>1203.68</ele>
        <time>2020-07-14T08:47:03.436Z</time>
      </trkpt>
      <trkpt lat="46.86025" lon="6.58839">
        <ele>1202.64</ele>
        <time>2020-07-14T08:47:04.231Z</time>
      </trkpt>
      <trkpt lat="46.86017" lon="6.58833">
        <ele>1201.73</ele>
        <time>2020-07-14T08:47:05.214Z</time>
      </trkpt>
      <trkpt lat="46.86014" lon="6.58828">
        <ele>1201.69</ele>
        <time>2020-07-14T08:47:06.026Z</time>
      </trkpt>
      <trkpt lat="46.86014" lon="6.58823">
        <ele>1201.8</ele>
        <time>2020-07-14T08:47:07.298Z</time>
      </trkpt>
      <trkpt lat="46.86013" lon="6.58817">
        <ele>1201.87</ele>
        <time>2020-07-14T08:47:08.604Z</time>
      </trkpt>
      <trkpt lat="46.8601" lon="6.5881">
        <ele>1201.76</ele>
        <time>2020-07-14T08:47:09.485Z</time>
      </trkpt>
      <trkpt lat="46.85999" lon="6.58797">
        <ele>1200.59</ele>
        <time>2020-07-14T08:47:11.032Z</time>
      </trkpt>
      <trkpt lat="46.85994" lon="6.58789">
        <ele>1200.01</ele>
        <time>2020-07-14T08:47:11.842Z</time>
      </trkpt>
      <trkpt lat="46.85991" lon="6.58781">
        <ele>1199.78</ele>
        <time>2020-07-14T08:47:12.649Z</time>
      </trkpt>
      <trkpt lat="46.85991" lon="6.58776">
        <ele>1199.95</ele>
        <time>2020-07-14T08:47:14.215Z</time>
      </trkpt>
      <trkpt lat="46.85988" lon="6.58764">
        <ele>1200.14</ele>
        <time>2020-07-14T08:47:17.078Z</time>
      </trkpt>
      <trkpt lat="46.85985" lon="6.58754">
        <ele>1200.22</ele>
        <time>2020-07-14T08:47:19.250Z</time>
      </trkpt>
      <trkpt lat="46.85983" lon="6.58748">
        <ele>1199.94</ele>
        <time>2020-07-14T08:47:19.727Z</time>
      </trkpt>
      <trkpt lat="46.85983" lon="6.58747">
        <ele>1199.94</ele>
        <time>2020-07-14T08:47:19.906Z</time>
      </trkpt>
      <trkpt lat="46.85981" lon="6.58743">
        <ele>1199.67</ele>
        <time>2020-07-14T08:47:20.277Z</time>
      </trkpt>
      <trkpt lat="46.85979" lon="6.58739">
        <ele>1199.51</ele>
        <time>2020-07-14T08:47:20.675Z</time>
      </trkpt>
      <trkpt lat="46.85961" lon="6.58689">
        <ele>1198.04</ele>
        <time>2020-07-14T08:47:25.618Z</time>
      </trkpt>
      <trkpt lat="46.85956" lon="6.58675">
        <ele>1197.85</ele>
        <time>2020-07-14T08:47:27.340Z</time>
      </trkpt>
      <trkpt lat="46.85952" lon="6.58664">
        <ele>1197.6</ele>
        <time>2020-07-14T08:47:28.530Z</time>
      </trkpt>
      <trkpt lat="46.85947" lon="6.58648">
        <ele>1197.14</ele>
        <time>2020-07-14T08:47:30.066Z</time>
      </trkpt>
      <trkpt lat="46.85943" lon="6.58635">
        <ele>1196.76</ele>
        <time>2020-07-14T08:47:31.302Z</time>
      </trkpt>
      <trkpt lat="46.85939" lon="6.58621">
        <ele>1196.47</ele>
        <time>2020-07-14T08:47:32.773Z</time>
      </trkpt>
      <trkpt lat="46.85933" lon="6.58605">
        <ele>1196.61</ele>
        <time>2020-07-14T08:47:36.422Z</time>
      </trkpt>
      <trkpt lat="46.85927" lon="6.58584">
        <ele>1196.96</ele>
        <time>2020-07-14T08:47:41.565Z</time>
      </trkpt>
      <trkpt lat="46.85919" lon="6.58557">
        <ele>1197.99</ele>
        <time>2020-07-14T08:47:50.869Z</time>
      </trkpt>
      <trkpt lat="46.85919" lon="6.58553">
        <ele>1198.28</ele>
        <time>2020-07-14T08:47:52.852Z</time>
      </trkpt>
      <trkpt lat="46.85913" lon="6.58531">
        <ele>1200.39</ele>
        <time>2020-07-14T08:48:08.529Z</time>
      </trkpt>
      <trkpt lat="46.8591" lon="6.58519">
        <ele>1201.26</ele>
        <time>2020-07-14T08:48:14.466Z</time>
      </trkpt>
      <trkpt lat="46.85907" lon="6.58507">
        <ele>1202.27</ele>
        <time>2020-07-14T08:48:21.496Z</time>
      </trkpt>
      <trkpt lat="46.85905" lon="6.58497">
        <ele>1203.24</ele>
        <time>2020-07-14T08:48:28.707Z</time>
      </trkpt>
      <trkpt lat="46.85903" lon="6.58482">
        <ele>1204.61</ele>
        <time>2020-07-14T08:48:38.938Z</time>
      </trkpt>
      <trkpt lat="46.85898" lon="6.58462">
        <ele>1206.25</ele>
        <time>2020-07-14T08:48:50.268Z</time>
      </trkpt>
      <trkpt lat="46.85895" lon="6.5845">
        <ele>1206.87</ele>
        <time>2020-07-14T08:48:54.914Z</time>
      </trkpt>
      <trkpt lat="46.85893" lon="6.58441">
        <ele>1207.43</ele>
        <time>2020-07-14T08:48:58.818Z</time>
      </trkpt>
      <trkpt lat="46.85888" lon="6.58426">
        <ele>1209.07</ele>
        <time>2020-07-14T08:49:10.366Z</time>
      </trkpt>
      <trkpt lat="46.85884" lon="6.58418">
        <ele>1209.73</ele>
        <time>2020-07-14T08:49:14.876Z</time>
      </trkpt>
      <trkpt lat="46.85869" lon="6.58395">
        <ele>1212.43</ele>
        <time>2020-07-14T08:49:34.290Z</time>
      </trkpt>
      <trkpt lat="46.85861" lon="6.58381">
        <ele>1214.22</ele>
        <time>2020-07-14T08:49:46.916Z</time>
      </trkpt>
      <trkpt lat="46.85854" lon="6.58358">
        <ele>1216.29</ele>
        <time>2020-07-14T08:50:01.549Z</time>
      </trkpt>
      <trkpt lat="46.85851" lon="6.58352">
        <ele>1217.03</ele>
        <time>2020-07-14T08:50:06.693Z</time>
      </trkpt>
      <trkpt lat="46.85849" lon="6.58345">
        <ele>1217.76</ele>
        <time>2020-07-14T08:50:11.943Z</time>
      </trkpt>
      <trkpt lat="46.85846" lon="6.58335">
        <ele>1218.89</ele>
        <time>2020-07-14T08:50:19.501Z</time>
      </trkpt>
      <trkpt lat="46.85845" lon="6.58322">
        <ele>1219.97</ele>
        <time>2020-07-14T08:50:27.150Z</time>
      </trkpt>
      <trkpt lat="46.85843" lon="6.58309">
        <ele>1221.11</ele>
        <time>2020-07-14T08:50:35.382Z</time>
      </trkpt>
      <trkpt lat="46.85841" lon="6.583">
        <ele>1221.85</ele>
        <time>2020-07-14T08:50:40.515Z</time>
      </trkpt>
      <trkpt lat="46.85839" lon="6.58288">
        <ele>1222.75</ele>
        <time>2020-07-14T08:50:46.672Z</time>
      </trkpt>
      <trkpt lat="46.85836" lon="6.58276">
        <ele>1223.57</ele>
        <time>2020-07-14T08:50:52.296Z</time>
      </trkpt>
      <trkpt lat="46.85835" lon="6.58272">
        <ele>1223.48</ele>
        <time>2020-07-14T08:50:52.697Z</time>
      </trkpt>
      <trkpt lat="46.85827" lon="6.58253">
        <ele>1224.2</ele>
        <time>2020-07-14T08:50:59.570Z</time>
      </trkpt>
      <trkpt lat="46.85818" lon="6.58232">
        <ele>1224.16</ele>
        <time>2020-07-14T08:51:03.862Z</time>
      </trkpt>
      <trkpt lat="46.85815" lon="6.58228">
        <ele>1224.16</ele>
        <time>2020-07-14T08:51:04.927Z</time>
      </trkpt>
      <trkpt lat="46.85811" lon="6.58225">
        <ele>1224.24</ele>
        <time>2020-07-14T08:51:06.336Z</time>
      </trkpt>
      <trkpt lat="46.85808" lon="6.5822">
        <ele>1224.02</ele>
        <time>2020-07-14T08:51:06.865Z</time>
      </trkpt>
      <trkpt lat="46.85806" lon="6.58215">
        <ele>1223.98</ele>
        <time>2020-07-14T08:51:07.560Z</time>
      </trkpt>
      <trkpt lat="46.85803" lon="6.58205">
        <ele>1223.96</ele>
        <time>2020-07-14T08:51:09.442Z</time>
      </trkpt>
      <trkpt lat="46.85801" lon="6.58199">
        <ele>1223.73</ele>
        <time>2020-07-14T08:51:09.964Z</time>
      </trkpt>
      <trkpt lat="46.85799" lon="6.58193">
        <ele>1223.65</ele>
        <time>2020-07-14T08:51:10.692Z</time>
      </trkpt>
      <trkpt lat="46.85798" lon="6.58191">
        <ele>1223.7</ele>
        <time>2020-07-14T08:51:11.302Z</time>
      </trkpt>
      <trkpt lat="46.85796" lon="6.58186">
        <ele>1223.65</ele>
        <time>2020-07-14T08:51:11.974Z</time>
      </trkpt>
      <trkpt lat="46.85794" lon="6.58183">
        <ele>1223.7</ele>
        <time>2020-07-14T08:51:12.868Z</time>
      </trkpt>
      <trkpt lat="46.85793" lon="6.5818">
        <ele>1223.6</ele>
        <time>2020-07-14T08:51:13.145Z</time>
      </trkpt>
      <trkpt lat="46.85791" lon="6.58176">
        <ele>1223.29</ele>
        <time>2020-07-14T08:51:13.515Z</time>
      </trkpt>
      <trkpt lat="46.85789" lon="6.58173">
        <ele>1223.07</ele>
        <time>2020-07-14T08:51:13.829Z</time>
      </trkpt>
      <trkpt lat="46.85786" lon="6.58168">
        <ele>1223.05</ele>
        <time>2020-07-14T08:51:14.947Z</time>
      </trkpt>
      <trkpt lat="46.85784" lon="6.58165">
        <ele>1222.84</ele>
        <time>2020-07-14T08:51:15.260Z</time>
      </trkpt>
      <trkpt lat="46.85782" lon="6.58163">
        <ele>1222.67</ele>
        <time>2020-07-14T08:51:15.525Z</time>
      </trkpt>
      <trkpt lat="46.85781" lon="6.58161">
        <ele>1222.53</ele>
        <time>2020-07-14T08:51:15.710Z</time>
      </trkpt>
      <trkpt lat="46.85777" lon="6.58155">
        <ele>1222.17</ele>
        <time>2020-07-14T08:51:16.302Z</time>
      </trkpt>
      <trkpt lat="46.85774" lon="6.58148">
        <ele>1221.77</ele>
        <time>2020-07-14T08:51:16.919Z</time>
      </trkpt>
      <trkpt lat="46.85759" lon="6.58113">
        <ele>1220.08</ele>
        <time>2020-07-14T08:51:19.904Z</time>
      </trkpt>
      <trkpt lat="46.85755" lon="6.58103">
        <ele>1219.72</ele>
        <time>2020-07-14T08:51:20.849Z</time>
      </trkpt>
      <trkpt lat="46.85751" lon="6.58094">
        <ele>1219.31</ele>
        <time>2020-07-14T08:51:21.650Z</time>
      </trkpt>
      <trkpt lat="46.85749" lon="6.5809">
        <ele>1219.18</ele>
        <time>2020-07-14T08:51:22.082Z</time>
      </trkpt>
      <trkpt lat="46.85746" lon="6.58086">
        <ele>1218.97</ele>
        <time>2020-07-14T08:51:22.541Z</time>
      </trkpt>
      <trkpt lat="46.85744" lon="6.5808">
        <ele>1218.68</ele>
        <time>2020-07-14T08:51:23.009Z</time>
      </trkpt>
      <trkpt lat="46.85741" lon="6.58072">
        <ele>1218.51</ele>
        <time>2020-07-14T08:51:23.901Z</time>
      </trkpt>
      <trkpt lat="46.85739" lon="6.58064">
        <ele>1218.33</ele>
        <time>2020-07-14T08:51:24.701Z</time>
      </trkpt>
      <trkpt lat="46.85734" lon="6.58054">
        <ele>1218.31</ele>
        <time>2020-07-14T08:51:26.846Z</time>
      </trkpt>
      <trkpt lat="46.85733" lon="6.58044">
        <ele>1218.18</ele>
        <time>2020-07-14T08:51:27.933Z</time>
      </trkpt>
      <trkpt lat="46.85731" lon="6.5804">
        <ele>1218</ele>
        <time>2020-07-14T08:51:28.311Z</time>
      </trkpt>
      <trkpt lat="46.85729" lon="6.58031">
        <ele>1218.14</ele>
        <time>2020-07-14T08:51:30.429Z</time>
      </trkpt>
      <trkpt lat="46.85727" lon="6.58023">
        <ele>1217.85</ele>
        <time>2020-07-14T08:51:31.098Z</time>
      </trkpt>
      <trkpt lat="46.85726" lon="6.58018">
        <ele>1217.81</ele>
        <time>2020-07-14T08:51:31.713Z</time>
      </trkpt>
      <trkpt lat="46.85725" lon="6.58012">
        <ele>1217.85</ele>
        <time>2020-07-14T08:51:32.926Z</time>
      </trkpt>
      <trkpt lat="46.85723" lon="6.58002">
        <ele>1217.69</ele>
        <time>2020-07-14T08:51:34.000Z</time>
      </trkpt>
      <trkpt lat="46.85721" lon="6.57995">
        <ele>1217.21</ele>
        <time>2020-07-14T08:51:34.567Z</time>
      </trkpt>
      <trkpt lat="46.85717" lon="6.57984">
        <ele>1217.05</ele>
        <time>2020-07-14T08:51:35.907Z</time>
      </trkpt>
      <trkpt lat="46.85715" lon="6.57974">
        <ele>1216.85</ele>
        <time>2020-07-14T08:51:36.916Z</time>
      </trkpt>
      <trkpt lat="46.85713" lon="6.57968">
        <ele>1216.47</ele>
        <time>2020-07-14T08:51:37.415Z</time>
      </trkpt>
      <trkpt lat="46.85713" lon="6.57967">
        <ele>1216.32</ele>
        <time>2020-07-14T08:51:37.490Z</time>
      </trkpt>
      <trkpt lat="46.85711" lon="6.57964">
        <ele>1216.16</ele>
        <time>2020-07-14T08:51:37.802Z</time>
      </trkpt>
      <trkpt lat="46.85707" lon="6.57958">
        <ele>1215.39</ele>
        <time>2020-07-14T08:51:38.429Z</time>
      </trkpt>
      <trkpt lat="46.85703" lon="6.57951">
        <ele>1214.77</ele>
        <time>2020-07-14T08:51:39.111Z</time>
      </trkpt>
      <trkpt lat="46.857" lon="6.57945">
        <ele>1214.3</ele>
        <time>2020-07-14T08:51:39.667Z</time>
      </trkpt>
      <trkpt lat="46.85698" lon="6.5794">
        <ele>1213.95</ele>
        <time>2020-07-14T08:51:40.100Z</time>
      </trkpt>
      <trkpt lat="46.85696" lon="6.57933">
        <ele>1213.45</ele>
        <time>2020-07-14T08:51:40.667Z</time>
      </trkpt>
      <trkpt lat="46.85695" lon="6.57926">
        <ele>1212.88</ele>
        <time>2020-07-14T08:51:41.202Z</time>
      </trkpt>
      <trkpt lat="46.85693" lon="6.5791">
        <ele>1212.58</ele>
        <time>2020-07-14T08:51:42.796Z</time>
      </trkpt>
      <trkpt lat="46.85692" lon="6.57902">
        <ele>1213.05</ele>
        <time>2020-07-14T08:51:46.093Z</time>
      </trkpt>
      <trkpt lat="46.85692" lon="6.57897">
        <ele>1213.31</ele>
        <time>2020-07-14T08:51:47.984Z</time>
      </trkpt>
      <trkpt lat="46.85688" lon="6.57888">
        <ele>1213.68</ele>
        <time>2020-07-14T08:51:51.361Z</time>
      </trkpt>
      <trkpt lat="46.85684" lon="6.57873">
        <ele>1213.65</ele>
        <time>2020-07-14T08:51:54.134Z</time>
      </trkpt>
      <trkpt lat="46.85678" lon="6.57852">
        <ele>1212.86</ele>
        <time>2020-07-14T08:51:55.907Z</time>
      </trkpt>
      <trkpt lat="46.85676" lon="6.57836">
        <ele>1213.22</ele>
        <time>2020-07-14T08:52:00.055Z</time>
      </trkpt>
      <trkpt lat="46.85677" lon="6.5783">
        <ele>1213.26</ele>
        <time>2020-07-14T08:52:01.268Z</time>
      </trkpt>
      <trkpt lat="46.8568" lon="6.57825">
        <ele>1214.08</ele>
        <time>2020-07-14T08:52:05.872Z</time>
      </trkpt>
      <trkpt lat="46.8569" lon="6.57812">
        <ele>1216.35</ele>
        <time>2020-07-14T08:52:19.413Z</time>
      </trkpt>
      <trkpt lat="46.85695" lon="6.57806">
        <ele>1217.81</ele>
        <time>2020-07-14T08:52:25.959Z</time>
      </trkpt>
      <trkpt lat="46.85699" lon="6.57797">
        <ele>1219.6</ele>
        <time>2020-07-14T08:52:33.388Z</time>
      </trkpt>
      <trkpt lat="46.85704" lon="6.57785">
        <ele>1221.8</ele>
        <time>2020-07-14T08:52:43.113Z</time>
      </trkpt>
      <trkpt lat="46.85706" lon="6.57775">
        <ele>1223.21</ele>
        <time>2020-07-14T08:52:50.324Z</time>
      </trkpt>
      <trkpt lat="46.85707" lon="6.57762">
        <ele>1223.85</ele>
        <time>2020-07-14T08:52:55.103Z</time>
      </trkpt>
      <trkpt lat="46.85706" lon="6.57749">
        <ele>1224.26</ele>
        <time>2020-07-14T08:52:59.098Z</time>
      </trkpt>
      <trkpt lat="46.85706" lon="6.5774">
        <ele>1224.39</ele>
        <time>2020-07-14T08:53:01.100Z</time>
      </trkpt>
      <trkpt lat="46.85702" lon="6.57729">
        <ele>1225.81</ele>
        <time>2020-07-14T08:53:09.722Z</time>
      </trkpt>
      <trkpt lat="46.85697" lon="6.57715">
        <ele>1226.49</ele>
        <time>2020-07-14T08:53:15.138Z</time>
      </trkpt>
      <trkpt lat="46.85694" lon="6.57707">
        <ele>1226.93</ele>
        <time>2020-07-14T08:53:18.445Z</time>
      </trkpt>
      <trkpt lat="46.85689" lon="6.57701">
        <ele>1226.28</ele>
        <time>2020-07-14T08:53:19.152Z</time>
      </trkpt>
      <trkpt lat="46.85681" lon="6.57693">
        <ele>1224.53</ele>
        <time>2020-07-14T08:53:20.212Z</time>
      </trkpt>
      <trkpt lat="46.85675" lon="6.57684">
        <ele>1224.38</ele>
        <time>2020-07-14T08:53:21.585Z</time>
      </trkpt>
      <trkpt lat="46.85672" lon="6.57674">
        <ele>1224.66</ele>
        <time>2020-07-14T08:53:24.570Z</time>
      </trkpt>
      <trkpt lat="46.85669" lon="6.57662">
        <ele>1225.45</ele>
        <time>2020-07-14T08:53:30.022Z</time>
      </trkpt>
      <trkpt lat="46.85665" lon="6.5765">
        <ele>1226.23</ele>
        <time>2020-07-14T08:53:35.477Z</time>
      </trkpt>
      <trkpt lat="46.85654" lon="6.57631">
        <ele>1225.92</ele>
        <time>2020-07-14T08:53:38.173Z</time>
      </trkpt>
      <trkpt lat="46.85648" lon="6.57617">
        <ele>1226.19</ele>
        <time>2020-07-14T08:53:41.968Z</time>
      </trkpt>
      <trkpt lat="46.8564" lon="6.576">
        <ele>1226.44</ele>
        <time>2020-07-14T08:53:46.388Z</time>
      </trkpt>
      <trkpt lat="46.85631" lon="6.57582">
        <ele>1226.1</ele>
        <time>2020-07-14T08:53:48.690Z</time>
      </trkpt>
      <trkpt lat="46.85617" lon="6.57547">
        <ele>1227.62</ele>
        <time>2020-07-14T08:54:01.826Z</time>
      </trkpt>
      <trkpt lat="46.85609" lon="6.57529">
        <ele>1227.14</ele>
        <time>2020-07-14T08:54:03.806Z</time>
      </trkpt>
      <trkpt lat="46.85598" lon="6.57513">
        <ele>1226.31</ele>
        <time>2020-07-14T08:54:05.533Z</time>
      </trkpt>
      <trkpt lat="46.85585" lon="6.57494">
        <ele>1224.86</ele>
        <time>2020-07-14T08:54:07.543Z</time>
      </trkpt>
      <trkpt lat="46.85574" lon="6.57475">
        <ele>1224.71</ele>
        <time>2020-07-14T08:54:10.580Z</time>
      </trkpt>
      <trkpt lat="46.85563" lon="6.57453">
        <ele>1224.47</ele>
        <time>2020-07-14T08:54:13.732Z</time>
      </trkpt>
      <trkpt lat="46.85551" lon="6.57431">
        <ele>1223.11</ele>
        <time>2020-07-14T08:54:15.837Z</time>
      </trkpt>
      <trkpt lat="46.85536" lon="6.57405">
        <ele>1222.91</ele>
        <time>2020-07-14T08:54:19.999Z</time>
      </trkpt>
      <trkpt lat="46.85497" lon="6.57363">
        <ele>1217.56</ele>
        <time>2020-07-14T08:54:25.295Z</time>
      </trkpt>
      <trkpt lat="46.85491" lon="6.57351">
        <ele>1218</ele>
        <time>2020-07-14T08:54:29.715Z</time>
      </trkpt>
      <trkpt lat="46.85482" lon="6.57335">
        <ele>1219.85</ele>
        <time>2020-07-14T08:54:43.486Z</time>
      </trkpt>
      <trkpt lat="46.85474" lon="6.57326">
        <ele>1218.94</ele>
        <time>2020-07-14T08:54:44.589Z</time>
      </trkpt>
      <trkpt lat="46.85461" lon="6.57295">
        <ele>1219.78</ele>
        <time>2020-07-14T08:54:54.038Z</time>
      </trkpt>
      <trkpt lat="46.85443" lon="6.5726">
        <ele>1220.87</ele>
        <time>2020-07-14T08:55:05.826Z</time>
      </trkpt>
      <trkpt lat="46.85431" lon="6.57244">
        <ele>1220.7</ele>
        <time>2020-07-14T08:55:08.659Z</time>
      </trkpt>
      <trkpt lat="46.85423" lon="6.57233">
        <ele>1220.31</ele>
        <time>2020-07-14T08:55:10.100Z</time>
      </trkpt>
      <trkpt lat="46.8541" lon="6.57206">
        <ele>1221.15</ele>
        <time>2020-07-14T08:55:19.087Z</time>
      </trkpt>
      <trkpt lat="46.85398" lon="6.57185">
        <ele>1221.52</ele>
        <time>2020-07-14T08:55:25.083Z</time>
      </trkpt>
      <trkpt lat="46.85391" lon="6.57174">
        <ele>1221.43</ele>
        <time>2020-07-14T08:55:26.918Z</time>
      </trkpt>
      <trkpt lat="46.85385" lon="6.57168">
        <ele>1220.52</ele>
        <time>2020-07-14T08:55:27.713Z</time>
      </trkpt>
      <trkpt lat="46.85378" lon="6.57161">
        <ele>1219.95</ele>
        <time>2020-07-14T08:55:28.640Z</time>
      </trkpt>
      <trkpt lat="46.85358" lon="6.5714">
        <ele>1219.87</ele>
        <time>2020-07-14T08:55:34.794Z</time>
      </trkpt>
      <trkpt lat="46.85347" lon="6.57128">
        <ele>1219.22</ele>
        <time>2020-07-14T08:55:36.405Z</time>
      </trkpt>
      <trkpt lat="46.85346" lon="6.57127">
        <ele>1219.92</ele>
        <time>2020-07-14T08:55:37.631Z</time>
      </trkpt>
      <trkpt lat="46.85345" lon="6.57126">
        <ele>1219.92</ele>
        <time>2020-07-14T08:55:37.949Z</time>
      </trkpt>
      <trkpt lat="46.85309" lon="6.57089">
        <ele>1220.63</ele>
        <time>2020-07-14T08:55:51.497Z</time>
      </trkpt>
      <trkpt lat="46.85298" lon="6.5708">
        <ele>1220.53</ele>
        <time>2020-07-14T08:55:53.773Z</time>
      </trkpt>
      <trkpt lat="46.85291" lon="6.57075">
        <ele>1220.43</ele>
        <time>2020-07-14T08:55:55.091Z</time>
      </trkpt>
      <trkpt lat="46.85274" lon="6.57058">
        <ele>1221.94</ele>
        <time>2020-07-14T08:56:06.244Z</time>
      </trkpt>
      <trkpt lat="46.85265" lon="6.57046">
        <ele>1222.13</ele>
        <time>2020-07-14T08:56:09.973Z</time>
      </trkpt>
      <trkpt lat="46.85257" lon="6.57038">
        <ele>1222.05</ele>
        <time>2020-07-14T08:56:11.715Z</time>
      </trkpt>
      <trkpt lat="46.85241" lon="6.57019">
        <ele>1223.37</ele>
        <time>2020-07-14T08:56:22.130Z</time>
      </trkpt>
      <trkpt lat="46.85239" lon="6.57014">
        <ele>1223.83</ele>
        <time>2020-07-14T08:56:25.337Z</time>
      </trkpt>
      <trkpt lat="46.85238" lon="6.57003">
        <ele>1225</ele>
        <time>2020-07-14T08:56:33.017Z</time>
      </trkpt>
      <trkpt lat="46.85233" lon="6.56987">
        <ele>1226.88</ele>
        <time>2020-07-14T08:56:45.193Z</time>
      </trkpt>
      <trkpt lat="46.85226" lon="6.5697">
        <ele>1228.66</ele>
        <time>2020-07-14T08:56:58.491Z</time>
      </trkpt>
      <trkpt lat="46.85218" lon="6.56951">
        <ele>1229.71</ele>
        <time>2020-07-14T08:57:06.476Z</time>
      </trkpt>
      <trkpt lat="46.85214" lon="6.56936">
        <ele>1231.03</ele>
        <time>2020-07-14T08:57:15.795Z</time>
      </trkpt>
      <trkpt lat="46.85212" lon="6.56919">
        <ele>1232.83</ele>
        <time>2020-07-14T08:57:27.734Z</time>
      </trkpt>
      <trkpt lat="46.85208" lon="6.56907">
        <ele>1233.55</ele>
        <time>2020-07-14T08:57:32.900Z</time>
      </trkpt>
      <trkpt lat="46.85201" lon="6.56892">
        <ele>1233.83</ele>
        <time>2020-07-14T08:57:37.006Z</time>
      </trkpt>
      <trkpt lat="46.852" lon="6.56885">
        <ele>1233.74</ele>
        <time>2020-07-14T08:57:37.779Z</time>
      </trkpt>
      <trkpt lat="46.85195" lon="6.5687">
        <ele>1234.32</ele>
        <time>2020-07-14T08:57:43.043Z</time>
      </trkpt>
      <trkpt lat="46.8519" lon="6.56859">
        <ele>1234.48</ele>
        <time>2020-07-14T08:57:45.872Z</time>
      </trkpt>
      <trkpt lat="46.85183" lon="6.56847">
        <ele>1234.75</ele>
        <time>2020-07-14T08:57:49.544Z</time>
      </trkpt>
      <trkpt lat="46.85175" lon="6.5683">
        <ele>1235.05</ele>
        <time>2020-07-14T08:57:54.143Z</time>
      </trkpt>
      <trkpt lat="46.8517" lon="6.56818">
        <ele>1235.58</ele>
        <time>2020-07-14T08:57:58.706Z</time>
      </trkpt>
      <trkpt lat="46.85167" lon="6.56806">
        <ele>1235.87</ele>
        <time>2020-07-14T08:58:02.000Z</time>
      </trkpt>
      <trkpt lat="46.85164" lon="6.56778">
        <ele>1236.56</ele>
        <time>2020-07-14T08:58:09.546Z</time>
      </trkpt>
      <trkpt lat="46.85162" lon="6.56768">
        <ele>1236.7</ele>
        <time>2020-07-14T08:58:11.826Z</time>
      </trkpt>
      <trkpt lat="46.85162" lon="6.56765">
        <ele>1236.84</ele>
        <time>2020-07-14T08:58:12.895Z</time>
      </trkpt>
      <trkpt lat="46.85162" lon="6.56765">
        <ele>1236.84</ele>
        <time>2020-07-14T08:58:12.895Z</time>
      </trkpt>
      <trkpt lat="46.8516" lon="6.56751">
        <ele>1236.99</ele>
        <time>2020-07-14T08:58:15.881Z</time>
      </trkpt>
      <trkpt lat="46.85158" lon="6.56727">
        <ele>1238.27</ele>
        <time>2020-07-14T08:58:25.128Z</time>
      </trkpt>
      <trkpt lat="46.85157" lon="6.56718">
        <ele>1238.68</ele>
        <time>2020-07-14T08:58:28.318Z</time>
      </trkpt>
      <trkpt lat="46.85155" lon="6.56701">
        <ele>1239.87</ele>
        <time>2020-07-14T08:58:36.437Z</time>
      </trkpt>
      <trkpt lat="46.85151" lon="6.56681">
        <ele>1240.72</ele>
        <time>2020-07-14T08:58:43.416Z</time>
      </trkpt>
      <trkpt lat="46.85146" lon="6.56651">
        <ele>1240.95</ele>
        <time>2020-07-14T08:58:49.571Z</time>
      </trkpt>
      <trkpt lat="46.85146" lon="6.5664">
        <ele>1241.21</ele>
        <time>2020-07-14T08:58:52.460Z</time>
      </trkpt>
      <trkpt lat="46.85146" lon="6.56628">
        <ele>1241.21</ele>
        <time>2020-07-14T08:58:54.613Z</time>
      </trkpt>
      <trkpt lat="46.85146" lon="6.56622">
        <ele>1241.35</ele>
        <time>2020-07-14T08:58:56.179Z</time>
      </trkpt>
      <trkpt lat="46.85145" lon="6.56618">
        <ele>1241.46</ele>
        <time>2020-07-14T08:58:57.348Z</time>
      </trkpt>
      <trkpt lat="46.85143" lon="6.56616">
        <ele>1241.49</ele>
        <time>2020-07-14T08:58:58.065Z</time>
      </trkpt>
      <trkpt lat="46.85137" lon="6.56613">
        <ele>1241.71</ele>
        <time>2020-07-14T08:59:00.504Z</time>
      </trkpt>
      <trkpt lat="46.85124" lon="6.56609">
        <ele>1242.68</ele>
        <time>2020-07-14T08:59:07.681Z</time>
      </trkpt>
      <trkpt lat="46.85109" lon="6.56604">
        <ele>1242.61</ele>
        <time>2020-07-14T08:59:11.455Z</time>
      </trkpt>
      <trkpt lat="46.85105" lon="6.56602">
        <ele>1242.55</ele>
        <time>2020-07-14T08:59:12.158Z</time>
      </trkpt>
      <trkpt lat="46.85102" lon="6.566">
        <ele>1242.45</ele>
        <time>2020-07-14T08:59:12.614Z</time>
      </trkpt>
      <trkpt lat="46.85096" lon="6.56594">
        <ele>1242.09</ele>
        <time>2020-07-14T08:59:13.451Z</time>
      </trkpt>
      <trkpt lat="46.85089" lon="6.56585">
        <ele>1241.92</ele>
        <time>2020-07-14T08:59:14.926Z</time>
      </trkpt>
      <trkpt lat="46.85078" lon="6.56573">
        <ele>1242.17</ele>
        <time>2020-07-14T08:59:19.248Z</time>
      </trkpt>
      <trkpt lat="46.85069" lon="6.56564">
        <ele>1242.55</ele>
        <time>2020-07-14T08:59:23.451Z</time>
      </trkpt>
      <trkpt lat="46.85054" lon="6.56547">
        <ele>1243.84</ele>
        <time>2020-07-14T08:59:33.320Z</time>
      </trkpt>
      <trkpt lat="46.85049" lon="6.5654">
        <ele>1244.22</ele>
        <time>2020-07-14T08:59:36.601Z</time>
      </trkpt>
      <trkpt lat="46.85034" lon="6.56546">
        <ele>1243.75</ele>
        <time>2020-07-14T08:59:38.754Z</time>
      </trkpt>
      <trkpt lat="46.85027" lon="6.56548">
        <ele>1243.66</ele>
        <time>2020-07-14T08:59:39.964Z</time>
      </trkpt>
      <trkpt lat="46.85014" lon="6.56548">
        <ele>1243.5</ele>
        <time>2020-07-14T08:59:42.179Z</time>
      </trkpt>
      <trkpt lat="46.8501" lon="6.5655">
        <ele>1243.39</ele>
        <time>2020-07-14T08:59:42.791Z</time>
      </trkpt>
      <trkpt lat="46.84998" lon="6.56558">
        <ele>1242.75</ele>
        <time>2020-07-14T08:59:44.323Z</time>
      </trkpt>
      <trkpt lat="46.84993" lon="6.56561">
        <ele>1242.36</ele>
        <time>2020-07-14T08:59:44.914Z</time>
      </trkpt>
      <trkpt lat="46.84988" lon="6.56561">
        <ele>1242.01</ele>
        <time>2020-07-14T08:59:45.460Z</time>
      </trkpt>
      <trkpt lat="46.84981" lon="6.5656">
        <ele>1241.62</ele>
        <time>2020-07-14T08:59:46.230Z</time>
      </trkpt>
      <trkpt lat="46.84967" lon="6.56556">
        <ele>1240.81</ele>
        <time>2020-07-14T08:59:47.775Z</time>
      </trkpt>
      <trkpt lat="46.84957" lon="6.56551">
        <ele>1240.18</ele>
        <time>2020-07-14T08:59:48.894Z</time>
      </trkpt>
      <trkpt lat="46.84936" lon="6.56538">
        <ele>1238.86</ele>
        <time>2020-07-14T08:59:51.341Z</time>
      </trkpt>
      <trkpt lat="46.84916" lon="6.56524">
        <ele>1238.08</ele>
        <time>2020-07-14T08:59:54.259Z</time>
      </trkpt>
      <trkpt lat="46.849" lon="6.56514">
        <ele>1237.29</ele>
        <time>2020-07-14T08:59:56.337Z</time>
      </trkpt>
      <trkpt lat="46.84888" lon="6.56503">
        <ele>1236.26</ele>
        <time>2020-07-14T08:59:57.886Z</time>
      </trkpt>
      <trkpt lat="46.84876" lon="6.56491">
        <ele>1235.32</ele>
        <time>2020-07-14T08:59:59.365Z</time>
      </trkpt>
      <trkpt lat="46.84855" lon="6.56467">
        <ele>1233.94</ele>
        <time>2020-07-14T09:00:02.374Z</time>
      </trkpt>
      <trkpt lat="46.84855" lon="6.56468">
        <ele>1234.63</ele>
        <time>2020-07-14T09:00:03.067Z</time>
      </trkpt>
      <trkpt lat="46.84855" lon="6.56467">
        <ele>1233.94</ele>
        <time>2020-07-14T09:00:03.141Z</time>
      </trkpt>
      <trkpt lat="46.84842" lon="6.5645">
        <ele>1233.53</ele>
        <time>2020-07-14T09:00:05.738Z</time>
      </trkpt>
      <trkpt lat="46.84831" lon="6.56439">
        <ele>1233.29</ele>
        <time>2020-07-14T09:00:07.853Z</time>
      </trkpt>
      <trkpt lat="46.84822" lon="6.5643">
        <ele>1233.21</ele>
        <time>2020-07-14T09:00:09.838Z</time>
      </trkpt>
      <trkpt lat="46.84805" lon="6.56416">
        <ele>1233.15</ele>
        <time>2020-07-14T09:00:14.727Z</time>
      </trkpt>
      <trkpt lat="46.848" lon="6.56411">
        <ele>1233.17</ele>
        <time>2020-07-14T09:00:16.366Z</time>
      </trkpt>
      <trkpt lat="46.84796" lon="6.56406">
        <ele>1233.05</ele>
        <time>2020-07-14T09:00:17.156Z</time>
      </trkpt>
      <trkpt lat="46.84792" lon="6.56398">
        <ele>1232.96</ele>
        <time>2020-07-14T09:00:18.296Z</time>
      </trkpt>
      <trkpt lat="46.84783" lon="6.56381">
        <ele>1233.03</ele>
        <time>2020-07-14T09:00:22.330Z</time>
      </trkpt>
      <trkpt lat="46.84774" lon="6.56368">
        <ele>1233.21</ele>
        <time>2020-07-14T09:00:26.147Z</time>
      </trkpt>
      <trkpt lat="46.84764" lon="6.56355">
        <ele>1233.58</ele>
        <time>2020-07-14T09:00:30.849Z</time>
      </trkpt>
      <trkpt lat="46.84753" lon="6.56343">
        <ele>1234.14</ele>
        <time>2020-07-14T09:00:36.599Z</time>
      </trkpt>
      <trkpt lat="46.84744" lon="6.56334">
        <ele>1234.8</ele>
        <time>2020-07-14T09:00:41.973Z</time>
      </trkpt>
      <trkpt lat="46.84739" lon="6.5633">
        <ele>1234.97</ele>
        <time>2020-07-14T09:00:44.030Z</time>
      </trkpt>
      <trkpt lat="46.84735" lon="6.56323">
        <ele>1235.13</ele>
        <time>2020-07-14T09:00:46.170Z</time>
      </trkpt>
      <trkpt lat="46.84726" lon="6.56308">
        <ele>1235.52</ele>
        <time>2020-07-14T09:00:51.020Z</time>
      </trkpt>
      <trkpt lat="46.84723" lon="6.56303">
        <ele>1235.76</ele>
        <time>2020-07-14T09:00:53.146Z</time>
      </trkpt>
      <trkpt lat="46.84718" lon="6.56299">
        <ele>1235.95</ele>
        <time>2020-07-14T09:00:55.299Z</time>
      </trkpt>
      <trkpt lat="46.84711" lon="6.56294">
        <ele>1235.86</ele>
        <time>2020-07-14T09:00:56.639Z</time>
      </trkpt>
      <trkpt lat="46.84706" lon="6.5629">
        <ele>1235.61</ele>
        <time>2020-07-14T09:00:57.329Z</time>
      </trkpt>
      <trkpt lat="46.84684" lon="6.56264">
        <ele>1233.89</ele>
        <time>2020-07-14T09:01:00.295Z</time>
      </trkpt>
      <trkpt lat="46.84679" lon="6.56261">
        <ele>1233.41</ele>
        <time>2020-07-14T09:01:00.886Z</time>
      </trkpt>
      <trkpt lat="46.84671" lon="6.56258">
        <ele>1232.66</ele>
        <time>2020-07-14T09:01:01.789Z</time>
      </trkpt>
      <trkpt lat="46.84653" lon="6.56253">
        <ele>1230.83</ele>
        <time>2020-07-14T09:01:03.793Z</time>
      </trkpt>
      <trkpt lat="46.84643" lon="6.56251">
        <ele>1229.83</ele>
        <time>2020-07-14T09:01:04.896Z</time>
      </trkpt>
      <trkpt lat="46.84634" lon="6.56248">
        <ele>1228.89</ele>
        <time>2020-07-14T09:01:05.906Z</time>
      </trkpt>
      <trkpt lat="46.84624" lon="6.56243">
        <ele>1227.91</ele>
        <time>2020-07-14T09:01:07.062Z</time>
      </trkpt>
      <trkpt lat="46.84598" lon="6.56232">
        <ele>1225.28</ele>
        <time>2020-07-14T09:01:10.021Z</time>
      </trkpt>
      <trkpt lat="46.84586" lon="6.56227">
        <ele>1224.05</ele>
        <time>2020-07-14T09:01:11.386Z</time>
      </trkpt>
      <trkpt lat="46.84577" lon="6.56226">
        <ele>1223.14</ele>
        <time>2020-07-14T09:01:12.373Z</time>
      </trkpt>
      <trkpt lat="46.84568" lon="6.56225">
        <ele>1222.28</ele>
        <time>2020-07-14T09:01:13.360Z</time>
      </trkpt>
      <trkpt lat="46.84556" lon="6.56225">
        <ele>1221.12</ele>
        <time>2020-07-14T09:01:14.672Z</time>
      </trkpt>
      <trkpt lat="46.84543" lon="6.56226">
        <ele>1219.82</ele>
        <time>2020-07-14T09:01:16.096Z</time>
      </trkpt>
      <trkpt lat="46.84507" lon="6.56228">
        <ele>1216.37</ele>
        <time>2020-07-14T09:01:20.035Z</time>
      </trkpt>
      <trkpt lat="46.84498" lon="6.56227">
        <ele>1215.59</ele>
        <time>2020-07-14T09:01:21.022Z</time>
      </trkpt>
      <trkpt lat="46.8449" lon="6.56227">
        <ele>1214.95</ele>
        <time>2020-07-14T09:01:21.897Z</time>
      </trkpt>
      <trkpt lat="46.84473" lon="6.56222">
        <ele>1213.75</ele>
        <time>2020-07-14T09:01:23.793Z</time>
      </trkpt>
      <trkpt lat="46.84463" lon="6.56218">
        <ele>1213.25</ele>
        <time>2020-07-14T09:01:25.000Z</time>
      </trkpt>
      <trkpt lat="46.84456" lon="6.56215">
        <ele>1212.91</ele>
        <time>2020-07-14T09:01:25.862Z</time>
      </trkpt>
      <trkpt lat="46.84451" lon="6.56212">
        <ele>1212.69</ele>
        <time>2020-07-14T09:01:26.536Z</time>
      </trkpt>
      <trkpt lat="46.84422" lon="6.56187">
        <ele>1212.04</ele>
        <time>2020-07-14T09:01:31.797Z</time>
      </trkpt>
      <trkpt lat="46.84412" lon="6.56179">
        <ele>1211.83</ele>
        <time>2020-07-14T09:01:33.597Z</time>
      </trkpt>
      <trkpt lat="46.84406" lon="6.56177">
        <ele>1211.68</ele>
        <time>2020-07-14T09:01:34.505Z</time>
      </trkpt>
      <trkpt lat="46.84402" lon="6.56177">
        <ele>1211.62</ele>
        <time>2020-07-14T09:01:35.163Z</time>
      </trkpt>
      <trkpt lat="46.84398" lon="6.56177">
        <ele>1211.5</ele>
        <time>2020-07-14T09:01:35.718Z</time>
      </trkpt>
      <trkpt lat="46.84383" lon="6.56179">
        <ele>1210.95</ele>
        <time>2020-07-14T09:01:37.674Z</time>
      </trkpt>
      <trkpt lat="46.84383" lon="6.56176">
        <ele>1211.01</ele>
        <time>2020-07-14T09:01:38.410Z</time>
      </trkpt>
      <trkpt lat="46.84382" lon="6.56173">
        <ele>1211.1</ele>
        <time>2020-07-14T09:01:39.347Z</time>
      </trkpt>
      <trkpt lat="46.8438" lon="6.56169">
        <ele>1211.07</ele>
        <time>2020-07-14T09:01:39.951Z</time>
      </trkpt>
      <trkpt lat="46.84359" lon="6.56141">
        <ele>1210.64</ele>
        <time>2020-07-14T09:01:44.624Z</time>
      </trkpt>
      <trkpt lat="46.84358" lon="6.56141">
        <ele>1210.64</ele>
        <time>2020-07-14T09:01:44.886Z</time>
      </trkpt>
      <trkpt lat="46.84339" lon="6.56115">
        <ele>1210.21</ele>
        <time>2020-07-14T09:01:49.091Z</time>
      </trkpt>
      <trkpt lat="46.84282" lon="6.56041">
        <ele>1209.29</ele>
        <time>2020-07-14T09:02:02.119Z</time>
      </trkpt>
      <trkpt lat="46.84253" lon="6.55999">
        <ele>1209.16</ele>
        <time>2020-07-14T09:02:12.332Z</time>
      </trkpt>
      <trkpt lat="46.84239" lon="6.55979">
        <ele>1209.45</ele>
        <time>2020-07-14T09:02:18.274Z</time>
      </trkpt>
      <trkpt lat="46.84231" lon="6.55968">
        <ele>1209.36</ele>
        <time>2020-07-14T09:02:20.250Z</time>
      </trkpt>
      <trkpt lat="46.84222" lon="6.55963">
        <ele>1209.09</ele>
        <time>2020-07-14T09:02:21.614Z</time>
      </trkpt>
      <trkpt lat="46.84214" lon="6.5596">
        <ele>1208.9</ele>
        <time>2020-07-14T09:02:22.850Z</time>
      </trkpt>
      <trkpt lat="46.84204" lon="6.55958">
        <ele>1208.5</ele>
        <time>2020-07-14T09:02:24.122Z</time>
      </trkpt>
      <trkpt lat="46.84196" lon="6.55957">
        <ele>1208.38</ele>
        <time>2020-07-14T09:02:25.445Z</time>
      </trkpt>
      <trkpt lat="46.84168" lon="6.55954">
        <ele>1208.16</ele>
        <time>2020-07-14T09:02:30.521Z</time>
      </trkpt>
      <trkpt lat="46.8414" lon="6.5595">
        <ele>1208.86</ele>
        <time>2020-07-14T09:02:40.082Z</time>
      </trkpt>
      <trkpt lat="46.84135" lon="6.55949">
        <ele>1209.08</ele>
        <time>2020-07-14T09:02:42.286Z</time>
      </trkpt>
      <trkpt lat="46.8413" lon="6.55947">
        <ele>1209.19</ele>
        <time>2020-07-14T09:02:43.974Z</time>
      </trkpt>
      <trkpt lat="46.84116" lon="6.55937">
        <ele>1209.85</ele>
        <time>2020-07-14T09:02:50.655Z</time>
      </trkpt>
      <trkpt lat="46.8411" lon="6.55935">
        <ele>1209.67</ele>
        <time>2020-07-14T09:02:51.515Z</time>
      </trkpt>
      <trkpt lat="46.84099" lon="6.55936">
        <ele>1208.75</ele>
        <time>2020-07-14T09:02:52.720Z</time>
      </trkpt>
      <trkpt lat="46.84092" lon="6.55935">
        <ele>1208.82</ele>
        <time>2020-07-14T09:02:54.751Z</time>
      </trkpt>
      <trkpt lat="46.84087" lon="6.55933">
        <ele>1208.74</ele>
        <time>2020-07-14T09:02:55.600Z</time>
      </trkpt>
      <trkpt lat="46.84045" lon="6.55913">
        <ele>1207.87</ele>
        <time>2020-07-14T09:03:02.471Z</time>
      </trkpt>
      <trkpt lat="46.8401" lon="6.55897">
        <ele>1208.61</ele>
        <time>2020-07-14T09:03:14.275Z</time>
      </trkpt>
      <trkpt lat="46.84003" lon="6.55894">
        <ele>1208.69</ele>
        <time>2020-07-14T09:03:16.403Z</time>
      </trkpt>
      <trkpt lat="46.83992" lon="6.5589">
        <ele>1209.35</ele>
        <time>2020-07-14T09:03:21.900Z</time>
      </trkpt>
      <trkpt lat="46.83965" lon="6.55884">
        <ele>1209.51</ele>
        <time>2020-07-14T09:03:29.472Z</time>
      </trkpt>
      <trkpt lat="46.83937" lon="6.55879">
        <ele>1210.22</ele>
        <time>2020-07-14T09:03:39.091Z</time>
      </trkpt>
      <trkpt lat="46.83928" lon="6.55875">
        <ele>1210.49</ele>
        <time>2020-07-14T09:03:42.440Z</time>
      </trkpt>
      <trkpt lat="46.83921" lon="6.55871">
        <ele>1210.53</ele>
        <time>2020-07-14T09:03:44.513Z</time>
      </trkpt>
      <trkpt lat="46.83917" lon="6.55867">
        <ele>1210.73</ele>
        <time>2020-07-14T09:03:46.557Z</time>
      </trkpt>
      <trkpt lat="46.83914" lon="6.55861">
        <ele>1210.3</ele>
        <time>2020-07-14T09:03:47.113Z</time>
      </trkpt>
      <trkpt lat="46.83905" lon="6.55857">
        <ele>1210.25</ele>
        <time>2020-07-14T09:03:49.396Z</time>
      </trkpt>
      <trkpt lat="46.83893" lon="6.55853">
        <ele>1209.79</ele>
        <time>2020-07-14T09:03:50.980Z</time>
      </trkpt>
      <trkpt lat="46.83872" lon="6.55847">
        <ele>1208.81</ele>
        <time>2020-07-14T09:03:53.527Z</time>
      </trkpt>
      <trkpt lat="46.83854" lon="6.55839">
        <ele>1208.46</ele>
        <time>2020-07-14T09:03:56.491Z</time>
      </trkpt>
      <trkpt lat="46.83853" lon="6.55839">
        <ele>1208.46</ele>
        <time>2020-07-14T09:03:56.754Z</time>
      </trkpt>
      <trkpt lat="46.83847" lon="6.55836">
        <ele>1208.11</ele>
        <time>2020-07-14T09:03:57.450Z</time>
      </trkpt>
      <trkpt lat="46.83822" lon="6.55824">
        <ele>1207.33</ele>
        <time>2020-07-14T09:04:01.114Z</time>
      </trkpt>
      <trkpt lat="46.83795" lon="6.55813">
        <ele>1206.65</ele>
        <time>2020-07-14T09:04:05.252Z</time>
      </trkpt>
      <trkpt lat="46.8377" lon="6.55803">
        <ele>1206.07</ele>
        <time>2020-07-14T09:04:09.160Z</time>
      </trkpt>
      <trkpt lat="46.83759" lon="6.55798">
        <ele>1205.85</ele>
        <time>2020-07-14T09:04:10.965Z</time>
      </trkpt>
      <trkpt lat="46.83747" lon="6.55793">
        <ele>1206.18</ele>
        <time>2020-07-14T09:04:15.286Z</time>
      </trkpt>
      <trkpt lat="46.8373" lon="6.55787">
        <ele>1206.08</ele>
        <time>2020-07-14T09:04:19.505Z</time>
      </trkpt>
      <trkpt lat="46.83708" lon="6.55778">
        <ele>1205.64</ele>
        <time>2020-07-14T09:04:23.077Z</time>
      </trkpt>
      <trkpt lat="46.83685" lon="6.55767">
        <ele>1205.59</ele>
        <time>2020-07-14T09:04:29.232Z</time>
      </trkpt>
      <trkpt lat="46.83669" lon="6.55759">
        <ele>1205.56</ele>
        <time>2020-07-14T09:04:33.551Z</time>
      </trkpt>
      <trkpt lat="46.8366" lon="6.55752">
        <ele>1205.64</ele>
        <time>2020-07-14T09:04:36.433Z</time>
      </trkpt>
      <trkpt lat="46.83654" lon="6.5575">
        <ele>1205.75</ele>
        <time>2020-07-14T09:04:38.364Z</time>
      </trkpt>
      <trkpt lat="46.83645" lon="6.55745">
        <ele>1205.73</ele>
        <time>2020-07-14T09:04:40.813Z</time>
      </trkpt>
      <trkpt lat="46.83635" lon="6.55743">
        <ele>1204.96</ele>
        <time>2020-07-14T09:04:41.916Z</time>
      </trkpt>
      <trkpt lat="46.83625" lon="6.55743">
        <ele>1203.94</ele>
        <time>2020-07-14T09:04:43.010Z</time>
      </trkpt>
      <trkpt lat="46.83615" lon="6.55742">
        <ele>1203.43</ele>
        <time>2020-07-14T09:04:44.150Z</time>
      </trkpt>
      <trkpt lat="46.83619" lon="6.55735">
        <ele>1203.5</ele>
        <time>2020-07-14T09:04:45.975Z</time>
      </trkpt>
      <trkpt lat="46.83622" lon="6.55729">
        <ele>1203.27</ele>
        <time>2020-07-14T09:04:46.583Z</time>
      </trkpt>
      <trkpt lat="46.83624" lon="6.55719">
        <ele>1202.93</ele>
        <time>2020-07-14T09:04:47.417Z</time>
      </trkpt>
      <trkpt lat="46.83625" lon="6.5571">
        <ele>1202.9</ele>
        <time>2020-07-14T09:04:48.941Z</time>
      </trkpt>
      <trkpt lat="46.83626" lon="6.55694">
        <ele>1202.25</ele>
        <time>2020-07-14T09:04:50.109Z</time>
      </trkpt>
      <trkpt lat="46.83627" lon="6.55684">
        <ele>1201.82</ele>
        <time>2020-07-14T09:04:50.826Z</time>
      </trkpt>
      <trkpt lat="46.83629" lon="6.55631">
        <ele>1201.39</ele>
        <time>2020-07-14T09:04:57.050Z</time>
      </trkpt>
      <trkpt lat="46.83618" lon="6.55617">
        <ele>1200.57</ele>
        <time>2020-07-14T09:04:58.636Z</time>
      </trkpt>
      <trkpt lat="46.83603" lon="6.55595">
        <ele>1199.84</ele>
        <time>2020-07-14T09:05:01.455Z</time>
      </trkpt>
      <trkpt lat="46.83588" lon="6.55574">
        <ele>1199.48</ele>
        <time>2020-07-14T09:05:04.779Z</time>
      </trkpt>
      <trkpt lat="46.83572" lon="6.55557">
        <ele>1198.71</ele>
        <time>2020-07-14T09:05:07.288Z</time>
      </trkpt>
      <trkpt lat="46.8355" lon="6.55537">
        <ele>1198.9</ele>
        <time>2020-07-14T09:05:14.575Z</time>
      </trkpt>
      <trkpt lat="46.83532" lon="6.55525">
        <ele>1198.52</ele>
        <time>2020-07-14T09:05:17.670Z</time>
      </trkpt>
      <trkpt lat="46.83516" lon="6.55514">
        <ele>1199</ele>
        <time>2020-07-14T09:05:23.845Z</time>
      </trkpt>
      <trkpt lat="46.83505" lon="6.55504">
        <ele>1199.36</ele>
        <time>2020-07-14T09:05:28.405Z</time>
      </trkpt>
      <trkpt lat="46.83491" lon="6.55492">
        <ele>1199.2</ele>
        <time>2020-07-14T09:05:31.260Z</time>
      </trkpt>
      <trkpt lat="46.83479" lon="6.55482">
        <ele>1198.5</ele>
        <time>2020-07-14T09:05:32.834Z</time>
      </trkpt>
      <trkpt lat="46.83464" lon="6.55472">
        <ele>1197.09</ele>
        <time>2020-07-14T09:05:34.637Z</time>
      </trkpt>
      <trkpt lat="46.83452" lon="6.55463">
        <ele>1195.77</ele>
        <time>2020-07-14T09:05:36.112Z</time>
      </trkpt>
      <trkpt lat="46.83443" lon="6.55454">
        <ele>1195.47</ele>
        <time>2020-07-14T09:05:37.665Z</time>
      </trkpt>
      <trkpt lat="46.83437" lon="6.55448">
        <ele>1194.97</ele>
        <time>2020-07-14T09:05:38.460Z</time>
      </trkpt>
      <trkpt lat="46.83429" lon="6.55442">
        <ele>1194.69</ele>
        <time>2020-07-14T09:05:39.693Z</time>
      </trkpt>
      <trkpt lat="46.83425" lon="6.55434">
        <ele>1194.74</ele>
        <time>2020-07-14T09:05:41.601Z</time>
      </trkpt>
      <trkpt lat="46.83421" lon="6.55423">
        <ele>1195.01</ele>
        <time>2020-07-14T09:05:44.751Z</time>
      </trkpt>
      <trkpt lat="46.83417" lon="6.55412">
        <ele>1195.24</ele>
        <time>2020-07-14T09:05:47.721Z</time>
      </trkpt>
      <trkpt lat="46.83413" lon="6.554">
        <ele>1195.62</ele>
        <time>2020-07-14T09:05:51.593Z</time>
      </trkpt>
      <trkpt lat="46.83408" lon="6.5538">
        <ele>1196.07</ele>
        <time>2020-07-14T09:05:56.924Z</time>
      </trkpt>
      <trkpt lat="46.83403" lon="6.55366">
        <ele>1196.29</ele>
        <time>2020-07-14T09:06:00.409Z</time>
      </trkpt>
      <trkpt lat="46.83399" lon="6.5536">
        <ele>1196.53</ele>
        <time>2020-07-14T09:06:02.848Z</time>
      </trkpt>
      <trkpt lat="46.83392" lon="6.55351">
        <ele>1196.78</ele>
        <time>2020-07-14T09:06:06.091Z</time>
      </trkpt>
      <trkpt lat="46.83386" lon="6.55341">
        <ele>1197.09</ele>
        <time>2020-07-14T09:06:09.562Z</time>
      </trkpt>
      <trkpt lat="46.8338" lon="6.55327">
        <ele>1197.48</ele>
        <time>2020-07-14T09:06:13.898Z</time>
      </trkpt>
      <trkpt lat="46.83377" lon="6.55311">
        <ele>1197.89</ele>
        <time>2020-07-14T09:06:18.348Z</time>
      </trkpt>
      <trkpt lat="46.83374" lon="6.55297">
        <ele>1198.59</ele>
        <time>2020-07-14T09:06:23.637Z</time>
      </trkpt>
      <trkpt lat="46.83374" lon="6.55286">
        <ele>1198.65</ele>
        <time>2020-07-14T09:06:25.767Z</time>
      </trkpt>
      <trkpt lat="46.83374" lon="6.55269">
        <ele>1198.87</ele>
        <time>2020-07-14T09:06:29.459Z</time>
      </trkpt>
      <trkpt lat="46.83374" lon="6.55254">
        <ele>1199.21</ele>
        <time>2020-07-14T09:06:33.324Z</time>
      </trkpt>
      <trkpt lat="46.83375" lon="6.55238">
        <ele>1198.85</ele>
        <time>2020-07-14T09:06:34.806Z</time>
      </trkpt>
      <trkpt lat="46.83379" lon="6.55221">
        <ele>1200.02</ele>
        <time>2020-07-14T09:06:42.818Z</time>
      </trkpt>
      <trkpt lat="46.83379" lon="6.55212">
        <ele>1200.16</ele>
        <time>2020-07-14T09:06:44.859Z</time>
      </trkpt>
      <trkpt lat="46.83376" lon="6.55192">
        <ele>1200.39</ele>
        <time>2020-07-14T09:06:49.185Z</time>
      </trkpt>
      <trkpt lat="46.83374" lon="6.55184">
        <ele>1200.25</ele>
        <time>2020-07-14T09:06:50.047Z</time>
      </trkpt>
      <trkpt lat="46.83366" lon="6.55171">
        <ele>1200.63</ele>
        <time>2020-07-14T09:06:54.474Z</time>
      </trkpt>
      <trkpt lat="46.83359" lon="6.55161">
        <ele>1201.2</ele>
        <time>2020-07-14T09:06:59.221Z</time>
      </trkpt>
      <trkpt lat="46.83347" lon="6.55148">
        <ele>1202.25</ele>
        <time>2020-07-14T09:07:07.125Z</time>
      </trkpt>
      <trkpt lat="46.8333" lon="6.55129">
        <ele>1202.35</ele>
        <time>2020-07-14T09:07:12.991Z</time>
      </trkpt>
      <trkpt lat="46.83329" lon="6.55129">
        <ele>1202.35</ele>
        <time>2020-07-14T09:07:13.254Z</time>
      </trkpt>
      <trkpt lat="46.83319" lon="6.55117">
        <ele>1202.45</ele>
        <time>2020-07-14T09:07:16.907Z</time>
      </trkpt>
      <trkpt lat="46.8328" lon="6.55073">
        <ele>1202.11</ele>
        <time>2020-07-14T09:07:28.598Z</time>
      </trkpt>
      <trkpt lat="46.83265" lon="6.5506">
        <ele>1202.06</ele>
        <time>2020-07-14T09:07:32.981Z</time>
      </trkpt>
      <trkpt lat="46.83253" lon="6.55052">
        <ele>1202.09</ele>
        <time>2020-07-14T09:07:36.515Z</time>
      </trkpt>
      <trkpt lat="46.83239" lon="6.55047">
        <ele>1201.97</ele>
        <time>2020-07-14T09:07:39.103Z</time>
      </trkpt>
      <trkpt lat="46.83219" lon="6.55027">
        <ele>1200.66</ele>
        <time>2020-07-14T09:07:41.787Z</time>
      </trkpt>
      <trkpt lat="46.83208" lon="6.55013">
        <ele>1200.03</ele>
        <time>2020-07-14T09:07:43.565Z</time>
      </trkpt>
      <trkpt lat="46.83195" lon="6.54997">
        <ele>1199.04</ele>
        <time>2020-07-14T09:07:45.383Z</time>
      </trkpt>
      <trkpt lat="46.83192" lon="6.54986">
        <ele>1199.13</ele>
        <time>2020-07-14T09:07:47.750Z</time>
      </trkpt>
      <trkpt lat="46.83188" lon="6.54972">
        <ele>1199.46</ele>
        <time>2020-07-14T09:07:51.592Z</time>
      </trkpt>
      <trkpt lat="46.83186" lon="6.54959">
        <ele>1199.69</ele>
        <time>2020-07-14T09:07:54.703Z</time>
      </trkpt>
      <trkpt lat="46.83184" lon="6.5495">
        <ele>1199.48</ele>
        <time>2020-07-14T09:07:55.579Z</time>
      </trkpt>
      <trkpt lat="46.8318" lon="6.54944">
        <ele>1199.3</ele>
        <time>2020-07-14T09:07:56.362Z</time>
      </trkpt>
      <trkpt lat="46.83167" lon="6.54929">
        <ele>1199.47</ele>
        <time>2020-07-14T09:08:01.159Z</time>
      </trkpt>
      <trkpt lat="46.83153" lon="6.54916">
        <ele>1199.52</ele>
        <time>2020-07-14T09:08:05.635Z</time>
      </trkpt>
      <trkpt lat="46.83144" lon="6.54904">
        <ele>1199.58</ele>
        <time>2020-07-14T09:08:08.982Z</time>
      </trkpt>
      <trkpt lat="46.83137" lon="6.54893">
        <ele>1199.75</ele>
        <time>2020-07-14T09:08:12.160Z</time>
      </trkpt>
      <trkpt lat="46.83129" lon="6.54874">
        <ele>1199.35</ele>
        <time>2020-07-14T09:08:14.366Z</time>
      </trkpt>
      <trkpt lat="46.83124" lon="6.54857">
        <ele>1199.27</ele>
        <time>2020-07-14T09:08:17.394Z</time>
      </trkpt>
      <trkpt lat="46.83119" lon="6.54823">
        <ele>1200.14</ele>
        <time>2020-07-14T09:08:26.781Z</time>
      </trkpt>
      <trkpt lat="46.83118" lon="6.54813">
        <ele>1199.55</ele>
        <time>2020-07-14T09:08:27.537Z</time>
      </trkpt>
      <trkpt lat="46.83118" lon="6.54805">
        <ele>1199.43</ele>
        <time>2020-07-14T09:08:28.367Z</time>
      </trkpt>
      <trkpt lat="46.83121" lon="6.54773">
        <ele>1201.16</ele>
        <time>2020-07-14T09:08:40.812Z</time>
      </trkpt>
      <trkpt lat="46.83121" lon="6.54761">
        <ele>1201.41</ele>
        <time>2020-07-14T09:08:43.799Z</time>
      </trkpt>
      <trkpt lat="46.8312" lon="6.54747">
        <ele>1201.51</ele>
        <time>2020-07-14T09:08:46.592Z</time>
      </trkpt>
      <trkpt lat="46.83118" lon="6.54737">
        <ele>1201.39</ele>
        <time>2020-07-14T09:08:47.739Z</time>
      </trkpt>
      <trkpt lat="46.83115" lon="6.54732">
        <ele>1201.38</ele>
        <time>2020-07-14T09:08:48.894Z</time>
      </trkpt>
      <trkpt lat="46.83112" lon="6.54731">
        <ele>1201.33</ele>
        <time>2020-07-14T09:08:49.393Z</time>
      </trkpt>
      <trkpt lat="46.83107" lon="6.54713">
        <ele>1201.43</ele>
        <time>2020-07-14T09:08:53.139Z</time>
      </trkpt>
      <trkpt lat="46.83097" lon="6.54678">
        <ele>1201.75</ele>
        <time>2020-07-14T09:09:00.815Z</time>
      </trkpt>
      <trkpt lat="46.83091" lon="6.5466">
        <ele>1201.74</ele>
        <time>2020-07-14T09:09:04.369Z</time>
      </trkpt>
      <trkpt lat="46.83084" lon="6.54634">
        <ele>1202.06</ele>
        <time>2020-07-14T09:09:10.293Z</time>
      </trkpt>
      <trkpt lat="46.83079" lon="6.54607">
        <ele>1201.67</ele>
        <time>2020-07-14T09:09:13.246Z</time>
      </trkpt>
      <trkpt lat="46.83073" lon="6.54587">
        <ele>1201.26</ele>
        <time>2020-07-14T09:09:15.376Z</time>
      </trkpt>
      <trkpt lat="46.83057" lon="6.54536">
        <ele>1200.92</ele>
        <time>2020-07-14T09:09:22.221Z</time>
      </trkpt>
      <trkpt lat="46.83036" lon="6.54469">
        <ele>1200.75</ele>
        <time>2020-07-14T09:09:34.800Z</time>
      </trkpt>
      <trkpt lat="46.83021" lon="6.5442">
        <ele>1200.15</ele>
        <time>2020-07-14T09:09:40.749Z</time>
      </trkpt>
      <trkpt lat="46.83021" lon="6.54419">
        <ele>1200.15</ele>
        <time>2020-07-14T09:09:40.928Z</time>
      </trkpt>
      <trkpt lat="46.83003" lon="6.54363">
        <ele>1199.55</ele>
        <time>2020-07-14T09:09:47.971Z</time>
      </trkpt>
      <trkpt lat="46.83019" lon="6.54337">
        <ele>1198.13</ele>
        <time>2020-07-14T09:09:50.508Z</time>
      </trkpt>
      <trkpt lat="46.83032" lon="6.54317">
        <ele>1197.32</ele>
        <time>2020-07-14T09:09:52.814Z</time>
      </trkpt>
      <trkpt lat="46.83034" lon="6.54312">
        <ele>1197.1</ele>
        <time>2020-07-14T09:09:53.248Z</time>
      </trkpt>
      <trkpt lat="46.8304" lon="6.54301">
        <ele>1197.53</ele>
        <time>2020-07-14T09:09:57.515Z</time>
      </trkpt>
      <trkpt lat="46.8303" lon="6.54294">
        <ele>1196.46</ele>
        <time>2020-07-14T09:09:58.727Z</time>
      </trkpt>
      <trkpt lat="46.83024" lon="6.54289">
        <ele>1195.96</ele>
        <time>2020-07-14T09:09:59.483Z</time>
      </trkpt>
      <trkpt lat="46.83018" lon="6.54284">
        <ele>1195.59</ele>
        <time>2020-07-14T09:10:00.251Z</time>
      </trkpt>
      <trkpt lat="46.83014" lon="6.54277">
        <ele>1195</ele>
        <time>2020-07-14T09:10:00.933Z</time>
      </trkpt>
      <trkpt lat="46.83005" lon="6.54265">
        <ele>1194.6</ele>
        <time>2020-07-14T09:10:02.574Z</time>
      </trkpt>
      <trkpt lat="46.82976" lon="6.54219">
        <ele>1192.68</ele>
        <time>2020-07-14T09:10:07.710Z</time>
      </trkpt>
      <trkpt lat="46.82975" lon="6.54219">
        <ele>1192.68</ele>
        <time>2020-07-14T09:10:07.972Z</time>
      </trkpt>
      <trkpt lat="46.82971" lon="6.54213">
        <ele>1190.76</ele>
        <time>2020-07-14T09:10:08.599Z</time>
      </trkpt>
      <trkpt lat="46.82959" lon="6.54197">
        <ele>1189.38</ele>
        <time>2020-07-14T09:10:10.375Z</time>
      </trkpt>
      <trkpt lat="46.82946" lon="6.54183">
        <ele>1188.06</ele>
        <time>2020-07-14T09:10:12.141Z</time>
      </trkpt>
      <trkpt lat="46.82938" lon="6.54176">
        <ele>1187.28</ele>
        <time>2020-07-14T09:10:13.161Z</time>
      </trkpt>
      <trkpt lat="46.82922" lon="6.54162">
        <ele>1186.11</ele>
        <time>2020-07-14T09:10:15.086Z</time>
      </trkpt>
      <trkpt lat="46.82917" lon="6.54156">
        <ele>1185.63</ele>
        <time>2020-07-14T09:10:15.794Z</time>
      </trkpt>
      <trkpt lat="46.82914" lon="6.54123">
        <ele>1186.35</ele>
        <time>2020-07-14T09:10:24.205Z</time>
      </trkpt>
      <trkpt lat="46.82913" lon="6.54105">
        <ele>1187.36</ele>
        <time>2020-07-14T09:10:31.363Z</time>
      </trkpt>
      <trkpt lat="46.82912" lon="6.54102">
        <ele>1187.39</ele>
        <time>2020-07-14T09:10:32.044Z</time>
      </trkpt>
      <trkpt lat="46.82911" lon="6.54099">
        <ele>1187.35</ele>
        <time>2020-07-14T09:10:32.409Z</time>
      </trkpt>
      <trkpt lat="46.82912" lon="6.54091">
        <ele>1187.59</ele>
        <time>2020-07-14T09:10:34.822Z</time>
      </trkpt>
      <trkpt lat="46.82912" lon="6.54091">
        <ele>1187.59</ele>
        <time>2020-07-14T09:10:34.822Z</time>
      </trkpt>
      <trkpt lat="46.82913" lon="6.54088">
        <ele>1187.83</ele>
        <time>2020-07-14T09:10:36.462Z</time>
      </trkpt>
      <trkpt lat="46.82913" lon="6.54076">
        <ele>1188.19</ele>
        <time>2020-07-14T09:10:40.062Z</time>
      </trkpt>
      <trkpt lat="46.82915" lon="6.54055">
        <ele>1188.71</ele>
        <time>2020-07-14T09:10:45.729Z</time>
      </trkpt>
      <trkpt lat="46.8292" lon="6.54051">
        <ele>1188.91</ele>
        <time>2020-07-14T09:10:47.933Z</time>
      </trkpt>
      <trkpt lat="46.82926" lon="6.54046">
        <ele>1189.19</ele>
        <time>2020-07-14T09:10:50.816Z</time>
      </trkpt>
      <trkpt lat="46.8293" lon="6.54044">
        <ele>1189.53</ele>
        <time>2020-07-14T09:10:53.238Z</time>
      </trkpt>
      <trkpt lat="46.82946" lon="6.54049">
        <ele>1190.19</ele>
        <time>2020-07-14T09:11:00.047Z</time>
      </trkpt>
      <trkpt lat="46.82954" lon="6.54052">
        <ele>1190.38</ele>
        <time>2020-07-14T09:11:02.793Z</time>
      </trkpt>
      <trkpt lat="46.82958" lon="6.54056">
        <ele>1190.55</ele>
        <time>2020-07-14T09:11:04.666Z</time>
      </trkpt>
      <trkpt lat="46.82963" lon="6.54062">
        <ele>1190.61</ele>
        <time>2020-07-14T09:11:06.521Z</time>
      </trkpt>
      <trkpt lat="46.82962" lon="6.54062">
        <ele>1190.61</ele>
        <time>2020-07-14T09:11:06.784Z</time>
      </trkpt>
      <trkpt lat="46.82963" lon="6.54063">
        <ele>1190.66</ele>
        <time>2020-07-14T09:11:07.295Z</time>
      </trkpt>
      <trkpt lat="46.83012" lon="6.54153">
        <ele>1194.9</ele>
        <time>2020-07-14T09:11:44.341Z</time>
      </trkpt>
      <trkpt lat="46.83046" lon="6.54217">
        <ele>1197.62</ele>
        <time>2020-07-14T09:12:09.621Z</time>
      </trkpt>
      <trkpt lat="46.83059" lon="6.5424">
        <ele>1198.69</ele>
        <time>2020-07-14T09:12:19.136Z</time>
      </trkpt>
      <trkpt lat="46.83068" lon="6.54252">
        <ele>1199.57</ele>
        <time>2020-07-14T09:12:25.679Z</time>
      </trkpt>
      <trkpt lat="46.83077" lon="6.54263">
        <ele>1200.51</ele>
        <time>2020-07-14T09:12:32.385Z</time>
      </trkpt>
      <trkpt lat="46.83087" lon="6.54275">
        <ele>1201.4</ele>
        <time>2020-07-14T09:12:39.154Z</time>
      </trkpt>
      <trkpt lat="46.83112" lon="6.543">
        <ele>1203.93</ele>
        <time>2020-07-14T09:12:56.964Z</time>
      </trkpt>
      <trkpt lat="46.83127" lon="6.54316">
        <ele>1205.52</ele>
        <time>2020-07-14T09:13:08.077Z</time>
      </trkpt>
      <trkpt lat="46.83137" lon="6.54324">
        <ele>1206.79</ele>
        <time>2020-07-14T09:13:16.829Z</time>
      </trkpt>
      <trkpt lat="46.83147" lon="6.54331">
        <ele>1207.99</ele>
        <time>2020-07-14T09:13:25.054Z</time>
      </trkpt>
      <trkpt lat="46.83161" lon="6.54336">
        <ele>1209.37</ele>
        <time>2020-07-14T09:13:34.497Z</time>
      </trkpt>
      <trkpt lat="46.83174" lon="6.54342">
        <ele>1210.92</ele>
        <time>2020-07-14T09:13:45.232Z</time>
      </trkpt>
      <trkpt lat="46.83183" lon="6.54345">
        <ele>1211.82</ele>
        <time>2020-07-14T09:13:51.380Z</time>
      </trkpt>
      <trkpt lat="46.83182" lon="6.54345">
        <ele>1211.82</ele>
        <time>2020-07-14T09:13:51.643Z</time>
      </trkpt>
      <trkpt lat="46.8319" lon="6.54347">
        <ele>1212.72</ele>
        <time>2020-07-14T09:13:57.838Z</time>
      </trkpt>
      <trkpt lat="46.83215" lon="6.54358">
        <ele>1215.39</ele>
        <time>2020-07-14T09:14:16.055Z</time>
      </trkpt>
      <trkpt lat="46.83221" lon="6.54361">
        <ele>1216.03</ele>
        <time>2020-07-14T09:14:20.422Z</time>
      </trkpt>
      <trkpt lat="46.83239" lon="6.5437">
        <ele>1217.82</ele>
        <time>2020-07-14T09:14:32.696Z</time>
      </trkpt>
      <trkpt lat="46.83255" lon="6.54381">
        <ele>1219.29</ele>
        <time>2020-07-14T09:14:43.058Z</time>
      </trkpt>
      <trkpt lat="46.83263" lon="6.54387">
        <ele>1220.14</ele>
        <time>2020-07-14T09:14:48.883Z</time>
      </trkpt>
      <trkpt lat="46.8327" lon="6.54394">
        <ele>1220.87</ele>
        <time>2020-07-14T09:14:53.978Z</time>
      </trkpt>
      <trkpt lat="46.83278" lon="6.54405">
        <ele>1221.94</ele>
        <time>2020-07-14T09:15:01.289Z</time>
      </trkpt>
      <trkpt lat="46.8329" lon="6.5442">
        <ele>1223.46</ele>
        <time>2020-07-14T09:15:11.685Z</time>
      </trkpt>
      <trkpt lat="46.83318" lon="6.54459">
        <ele>1226.66</ele>
        <time>2020-07-14T09:15:34.275Z</time>
      </trkpt>
      <trkpt lat="46.83337" lon="6.54483">
        <ele>1229.01</ele>
        <time>2020-07-14T09:15:50.401Z</time>
      </trkpt>
      <trkpt lat="46.83346" lon="6.54495">
        <ele>1230.27</ele>
        <time>2020-07-14T09:15:59.001Z</time>
      </trkpt>
      <trkpt lat="46.83351" lon="6.545">
        <ele>1230.97</ele>
        <time>2020-07-14T09:16:03.873Z</time>
      </trkpt>
      <trkpt lat="46.83355" lon="6.54502">
        <ele>1231.13</ele>
        <time>2020-07-14T09:16:05.571Z</time>
      </trkpt>
      <trkpt lat="46.83362" lon="6.54505">
        <ele>1231.9</ele>
        <time>2020-07-14T09:16:10.833Z</time>
      </trkpt>
      <trkpt lat="46.83368" lon="6.54506">
        <ele>1232.42</ele>
        <time>2020-07-14T09:16:14.462Z</time>
      </trkpt>
      <trkpt lat="46.83376" lon="6.54507">
        <ele>1233.25</ele>
        <time>2020-07-14T09:16:20.127Z</time>
      </trkpt>
      <trkpt lat="46.83383" lon="6.54508">
        <ele>1233.74</ele>
        <time>2020-07-14T09:16:23.831Z</time>
      </trkpt>
      <trkpt lat="46.83391" lon="6.5451">
        <ele>1234.68</ele>
        <time>2020-07-14T09:16:30.379Z</time>
      </trkpt>
      <trkpt lat="46.83398" lon="6.54513">
        <ele>1235.36</ele>
        <time>2020-07-14T09:16:35.048Z</time>
      </trkpt>
      <trkpt lat="46.83408" lon="6.54518">
        <ele>1236.15</ele>
        <time>2020-07-14T09:16:40.835Z</time>
      </trkpt>
      <trkpt lat="46.83449" lon="6.54544">
        <ele>1239.98</ele>
        <time>2020-07-14T09:17:07.600Z</time>
      </trkpt>
      <trkpt lat="46.83456" lon="6.5455">
        <ele>1240.55</ele>
        <time>2020-07-14T09:17:11.892Z</time>
      </trkpt>
      <trkpt lat="46.83461" lon="6.54554">
        <ele>1240.96</ele>
        <time>2020-07-14T09:17:14.946Z</time>
      </trkpt>
      <trkpt lat="46.83468" lon="6.54561">
        <ele>1241.61</ele>
        <time>2020-07-14T09:17:19.660Z</time>
      </trkpt>
      <trkpt lat="46.83472" lon="6.54567">
        <ele>1242.11</ele>
        <time>2020-07-14T09:17:23.138Z</time>
      </trkpt>
      <trkpt lat="46.83476" lon="6.54574">
        <ele>1242.63</ele>
        <time>2020-07-14T09:17:26.801Z</time>
      </trkpt>
      <trkpt lat="46.83479" lon="6.54579">
        <ele>1243.05</ele>
        <time>2020-07-14T09:17:29.689Z</time>
      </trkpt>
      <trkpt lat="46.83482" lon="6.54581">
        <ele>1243.42</ele>
        <time>2020-07-14T09:17:32.243Z</time>
      </trkpt>
      <trkpt lat="46.83486" lon="6.54582">
        <ele>1243.63</ele>
        <time>2020-07-14T09:17:34.127Z</time>
      </trkpt>
      <trkpt lat="46.8349" lon="6.54582">
        <ele>1244.18</ele>
        <time>2020-07-14T09:17:38.175Z</time>
      </trkpt>
      <trkpt lat="46.83492" lon="6.5458">
        <ele>1244.34</ele>
        <time>2020-07-14T09:17:39.417Z</time>
      </trkpt>
      <trkpt lat="46.83494" lon="6.54576">
        <ele>1244.55</ele>
        <time>2020-07-14T09:17:41.104Z</time>
      </trkpt>
      <trkpt lat="46.83495" lon="6.54572">
        <ele>1244.78</ele>
        <time>2020-07-14T09:17:42.754Z</time>
      </trkpt>
      <trkpt lat="46.83496" lon="6.54567">
        <ele>1244.88</ele>
        <time>2020-07-14T09:17:44.013Z</time>
      </trkpt>
      <trkpt lat="46.83494" lon="6.54562">
        <ele>1245.13</ele>
        <time>2020-07-14T09:17:46.001Z</time>
      </trkpt>
      <trkpt lat="46.83492" lon="6.54556">
        <ele>1245.63</ele>
        <time>2020-07-14T09:17:49.435Z</time>
      </trkpt>
      <trkpt lat="46.83479" lon="6.54535">
        <ele>1247.12</ele>
        <time>2020-07-14T09:18:00.226Z</time>
      </trkpt>
      <trkpt lat="46.83475" lon="6.54526">
        <ele>1247.71</ele>
        <time>2020-07-14T09:18:04.431Z</time>
      </trkpt>
      <trkpt lat="46.8347" lon="6.54513">
        <ele>1248.44</ele>
        <time>2020-07-14T09:18:09.882Z</time>
      </trkpt>
      <trkpt lat="46.83465" lon="6.54497">
        <ele>1249.35</ele>
        <time>2020-07-14T09:18:16.517Z</time>
      </trkpt>
      <trkpt lat="46.83462" lon="6.54484">
        <ele>1250.08</ele>
        <time>2020-07-14T09:18:21.781Z</time>
      </trkpt>
      <trkpt lat="46.83462" lon="6.54483">
        <ele>1250.08</ele>
        <time>2020-07-14T09:18:21.960Z</time>
      </trkpt>
      <trkpt lat="46.8346" lon="6.54471">
        <ele>1250.81</ele>
        <time>2020-07-14T09:18:27.051Z</time>
      </trkpt>
      <trkpt lat="46.83455" lon="6.54445">
        <ele>1252</ele>
        <time>2020-07-14T09:18:36.411Z</time>
      </trkpt>
      <trkpt lat="46.83452" lon="6.54434">
        <ele>1252.58</ele>
        <time>2020-07-14T09:18:40.741Z</time>
      </trkpt>
      <trkpt lat="46.8345" lon="6.54423">
        <ele>1253.27</ele>
        <time>2020-07-14T09:18:45.523Z</time>
      </trkpt>
      <trkpt lat="46.8344" lon="6.54383">
        <ele>1256.21</ele>
        <time>2020-07-14T09:19:05.581Z</time>
      </trkpt>
      <trkpt lat="46.83431" lon="6.54347">
        <ele>1259.01</ele>
        <time>2020-07-14T09:19:24.739Z</time>
      </trkpt>
      <trkpt lat="46.83427" lon="6.54331">
        <ele>1260.43</ele>
        <time>2020-07-14T09:19:34.842Z</time>
      </trkpt>
      <trkpt lat="46.8342" lon="6.54293">
        <ele>1262.83</ele>
        <time>2020-07-14T09:19:51.455Z</time>
      </trkpt>
      <trkpt lat="46.83416" lon="6.5427">
        <ele>1264.21</ele>
        <time>2020-07-14T09:20:01.120Z</time>
      </trkpt>
      <trkpt lat="46.83413" lon="6.54256">
        <ele>1264.96</ele>
        <time>2020-07-14T09:20:06.615Z</time>
      </trkpt>
      <trkpt lat="46.8341" lon="6.54243">
        <ele>1265.66</ele>
        <time>2020-07-14T09:20:11.748Z</time>
      </trkpt>
      <trkpt lat="46.83405" lon="6.54218">
        <ele>1267.3</ele>
        <time>2020-07-14T09:20:23.031Z</time>
      </trkpt>
      <trkpt lat="46.83403" lon="6.54203">
        <ele>1268.5</ele>
        <time>2020-07-14T09:20:31.365Z</time>
      </trkpt>
      <trkpt lat="46.83401" lon="6.54191">
        <ele>1269.3</ele>
        <time>2020-07-14T09:20:36.847Z</time>
      </trkpt>
      <trkpt lat="46.834" lon="6.5416">
        <ele>1271.68</ele>
        <time>2020-07-14T09:20:53.270Z</time>
      </trkpt>
      <trkpt lat="46.83398" lon="6.54146">
        <ele>1272.75</ele>
        <time>2020-07-14T09:21:00.616Z</time>
      </trkpt>
      <trkpt lat="46.83395" lon="6.54119">
        <ele>1275.04</ele>
        <time>2020-07-14T09:21:16.945Z</time>
      </trkpt>
      <trkpt lat="46.83393" lon="6.54106">
        <ele>1276.57</ele>
        <time>2020-07-14T09:21:26.170Z</time>
      </trkpt>
      <trkpt lat="46.83393" lon="6.54105">
        <ele>1276.57</ele>
        <time>2020-07-14T09:21:26.350Z</time>
      </trkpt>
      <trkpt lat="46.8339" lon="6.54079">
        <ele>1278.1</ele>
        <time>2020-07-14T09:21:37.072Z</time>
      </trkpt>
      <trkpt lat="46.8339" lon="6.5407">
        <ele>1278.68</ele>
        <time>2020-07-14T09:21:41.048Z</time>
      </trkpt>
      <trkpt lat="46.83391" lon="6.54064">
        <ele>1279.06</ele>
        <time>2020-07-14T09:21:43.674Z</time>
      </trkpt>
      <trkpt lat="46.83393" lon="6.54058">
        <ele>1279.56</ele>
        <time>2020-07-14T09:21:47.108Z</time>
      </trkpt>
      <trkpt lat="46.83397" lon="6.54055">
        <ele>1279.66</ele>
        <time>2020-07-14T09:21:48.589Z</time>
      </trkpt>
      <trkpt lat="46.83399" lon="6.54054">
        <ele>1279.94</ele>
        <time>2020-07-14T09:21:50.699Z</time>
      </trkpt>
      <trkpt lat="46.83406" lon="6.54054">
        <ele>1280.86</ele>
        <time>2020-07-14T09:21:57.584Z</time>
      </trkpt>
      <trkpt lat="46.83414" lon="6.54057">
        <ele>1281.49</ele>
        <time>2020-07-14T09:22:02.161Z</time>
      </trkpt>
      <trkpt lat="46.83417" lon="6.54058">
        <ele>1281.98</ele>
        <time>2020-07-14T09:22:05.275Z</time>
      </trkpt>
      <trkpt lat="46.83416" lon="6.54058">
        <ele>1281.98</ele>
        <time>2020-07-14T09:22:05.538Z</time>
      </trkpt>
      <trkpt lat="46.83424" lon="6.54062">
        <ele>1282.47</ele>
        <time>2020-07-14T09:22:09.630Z</time>
      </trkpt>
      <trkpt lat="46.83431" lon="6.54065">
        <ele>1282.97</ele>
        <time>2020-07-14T09:22:13.440Z</time>
      </trkpt>
      <trkpt lat="46.83437" lon="6.54069">
        <ele>1283.47</ele>
        <time>2020-07-14T09:22:17.082Z</time>
      </trkpt>
      <trkpt lat="46.83443" lon="6.54073">
        <ele>1284.09</ele>
        <time>2020-07-14T09:22:21.333Z</time>
      </trkpt>
      <trkpt lat="46.83448" lon="6.54078">
        <ele>1284.52</ele>
        <time>2020-07-14T09:22:24.556Z</time>
      </trkpt>
      <trkpt lat="46.8346" lon="6.54092">
        <ele>1285.84</ele>
        <time>2020-07-14T09:22:33.772Z</time>
      </trkpt>
      <trkpt lat="46.83473" lon="6.54106">
        <ele>1287.34</ele>
        <time>2020-07-14T09:22:44.077Z</time>
      </trkpt>
      <trkpt lat="46.83481" lon="6.54117">
        <ele>1288.46</ele>
        <time>2020-07-14T09:22:51.718Z</time>
      </trkpt>
      <trkpt lat="46.83492" lon="6.54134">
        <ele>1290.16</ele>
        <time>2020-07-14T09:23:03.343Z</time>
      </trkpt>
      <trkpt lat="46.83509" lon="6.54163">
        <ele>1292.59</ele>
        <time>2020-07-14T09:23:20.033Z</time>
      </trkpt>
      <trkpt lat="46.83522" lon="6.54182">
        <ele>1293.97</ele>
        <time>2020-07-14T09:23:30.125Z</time>
      </trkpt>
      <trkpt lat="46.83539" lon="6.54212">
        <ele>1295.73</ele>
        <time>2020-07-14T09:23:43.788Z</time>
      </trkpt>
      <trkpt lat="46.83551" lon="6.54238">
        <ele>1297.48</ele>
        <time>2020-07-14T09:23:56.198Z</time>
      </trkpt>
      <trkpt lat="46.83558" lon="6.54252">
        <ele>1298.75</ele>
        <time>2020-07-14T09:24:04.891Z</time>
      </trkpt>
      <trkpt lat="46.8356" lon="6.54255">
        <ele>1298.95</ele>
        <time>2020-07-14T09:24:06.401Z</time>
      </trkpt>
      <trkpt lat="46.83566" lon="6.54262">
        <ele>1299.64</ele>
        <time>2020-07-14T09:24:11.169Z</time>
      </trkpt>
      <trkpt lat="46.83569" lon="6.54265">
        <ele>1300.04</ele>
        <time>2020-07-14T09:24:13.919Z</time>
      </trkpt>
      <trkpt lat="46.83573" lon="6.54268">
        <ele>1300.44</ele>
        <time>2020-07-14T09:24:16.689Z</time>
      </trkpt>
      <trkpt lat="46.83579" lon="6.54271">
        <ele>1301.17</ele>
        <time>2020-07-14T09:24:21.763Z</time>
      </trkpt>
      <trkpt lat="46.83583" lon="6.54274">
        <ele>1301.6</ele>
        <time>2020-07-14T09:24:24.706Z</time>
      </trkpt>
      <trkpt lat="46.83588" lon="6.54278">
        <ele>1302.22</ele>
        <time>2020-07-14T09:24:28.959Z</time>
      </trkpt>
      <trkpt lat="46.83594" lon="6.54281">
        <ele>1302.88</ele>
        <time>2020-07-14T09:24:33.465Z</time>
      </trkpt>
      <trkpt lat="46.836" lon="6.54283">
        <ele>1303.56</ele>
        <time>2020-07-14T09:24:38.143Z</time>
      </trkpt>
      <trkpt lat="46.83605" lon="6.54284">
        <ele>1304.19</ele>
        <time>2020-07-14T09:24:42.686Z</time>
      </trkpt>
      <trkpt lat="46.83615" lon="6.5428">
        <ele>1305.08</ele>
        <time>2020-07-14T09:24:48.902Z</time>
      </trkpt>
      <trkpt lat="46.8362" lon="6.54276">
        <ele>1305.84</ele>
        <time>2020-07-14T09:24:54.663Z</time>
      </trkpt>
      <trkpt lat="46.83624" lon="6.54269">
        <ele>1306.54</ele>
        <time>2020-07-14T09:24:59.494Z</time>
      </trkpt>
      <trkpt lat="46.83625" lon="6.54266">
        <ele>1306.77</ele>
        <time>2020-07-14T09:25:01.063Z</time>
      </trkpt>
      <trkpt lat="46.83625" lon="6.54266">
        <ele>1306.77</ele>
        <time>2020-07-14T09:25:01.063Z</time>
      </trkpt>
      <trkpt lat="46.83626" lon="6.54263">
        <ele>1307.01</ele>
        <time>2020-07-14T09:25:02.703Z</time>
      </trkpt>
      <trkpt lat="46.83628" lon="6.54255">
        <ele>1307.49</ele>
        <time>2020-07-14T09:25:06.096Z</time>
      </trkpt>
      <trkpt lat="46.83628" lon="6.54246">
        <ele>1308.18</ele>
        <time>2020-07-14T09:25:10.857Z</time>
      </trkpt>
      <trkpt lat="46.83628" lon="6.54221">
        <ele>1309.74</ele>
        <time>2020-07-14T09:25:21.587Z</time>
      </trkpt>
      <trkpt lat="46.83621" lon="6.54194">
        <ele>1311.66</ele>
        <time>2020-07-14T09:25:34.716Z</time>
      </trkpt>
      <trkpt lat="46.83618" lon="6.54178">
        <ele>1312.94</ele>
        <time>2020-07-14T09:25:43.562Z</time>
      </trkpt>
      <trkpt lat="46.83618" lon="6.5417">
        <ele>1313.43</ele>
        <time>2020-07-14T09:25:46.951Z</time>
      </trkpt>
      <trkpt lat="46.83618" lon="6.5416">
        <ele>1314.34</ele>
        <time>2020-07-14T09:25:53.833Z</time>
      </trkpt>
      <trkpt lat="46.83619" lon="6.54149">
        <ele>1314.88</ele>
        <time>2020-07-14T09:25:57.876Z</time>
      </trkpt>
      <trkpt lat="46.83621" lon="6.54136">
        <ele>1315.4</ele>
        <time>2020-07-14T09:26:02.260Z</time>
      </trkpt>
      <trkpt lat="46.83627" lon="6.54113">
        <ele>1316.52</ele>
        <time>2020-07-14T09:26:10.923Z</time>
      </trkpt>
      <trkpt lat="46.83635" lon="6.54077">
        <ele>1316.52</ele>
        <time>2020-07-14T09:26:17.794Z</time>
      </trkpt>
      <trkpt lat="46.83643" lon="6.5404">
        <ele>1320.27</ele>
        <time>2020-07-14T09:26:44.364Z</time>
      </trkpt>
      <trkpt lat="46.83644" lon="6.54029">
        <ele>1321.04</ele>
        <time>2020-07-14T09:26:49.618Z</time>
      </trkpt>
      <trkpt lat="46.83646" lon="6.54016">
        <ele>1321.6</ele>
        <time>2020-07-14T09:26:54.138Z</time>
      </trkpt>
      <trkpt lat="46.83646" lon="6.54005">
        <ele>1322.21</ele>
        <time>2020-07-14T09:26:58.473Z</time>
      </trkpt>
      <trkpt lat="46.83645" lon="6.53959">
        <ele>1324.73</ele>
        <time>2020-07-14T09:27:16.458Z</time>
      </trkpt>
      <trkpt lat="46.83645" lon="6.53945">
        <ele>1325.62</ele>
        <time>2020-07-14T09:27:22.572Z</time>
      </trkpt>
      <trkpt lat="46.83644" lon="6.53934">
        <ele>1326.34</ele>
        <time>2020-07-14T09:27:27.504Z</time>
      </trkpt>
      <trkpt lat="46.83643" lon="6.53927">
        <ele>1326.81</ele>
        <time>2020-07-14T09:27:30.719Z</time>
      </trkpt>
      <trkpt lat="46.8364" lon="6.53916">
        <ele>1327.67</ele>
        <time>2020-07-14T09:27:36.599Z</time>
      </trkpt>
      <trkpt lat="46.83632" lon="6.53899">
        <ele>1329.24</ele>
        <time>2020-07-14T09:27:47.414Z</time>
      </trkpt>
      <trkpt lat="46.83631" lon="6.53897">
        <ele>1329.87</ele>
        <time>2020-07-14T09:27:49.129Z</time>
      </trkpt>
      <trkpt lat="46.83631" lon="6.53896">
        <ele>1329.87</ele>
        <time>2020-07-14T09:27:49.308Z</time>
      </trkpt>
      <trkpt lat="46.83628" lon="6.53886">
        <ele>1330.51</ele>
        <time>2020-07-14T09:27:53.781Z</time>
      </trkpt>
      <trkpt lat="46.83625" lon="6.53872">
        <ele>1331.62</ele>
        <time>2020-07-14T09:28:01.418Z</time>
      </trkpt>
      <trkpt lat="46.83623" lon="6.53858">
        <ele>1332.46</ele>
        <time>2020-07-14T09:28:07.285Z</time>
      </trkpt>
      <trkpt lat="46.83621" lon="6.5385">
        <ele>1333.27</ele>
        <time>2020-07-14T09:28:13.182Z</time>
      </trkpt>
      <trkpt lat="46.83619" lon="6.53839">
        <ele>1333.61</ele>
        <time>2020-07-14T09:28:16.587Z</time>
      </trkpt>
      <trkpt lat="46.83617" lon="6.53828">
        <ele>1334.36</ele>
        <time>2020-07-14T09:28:21.716Z</time>
      </trkpt>
      <trkpt lat="46.83617" lon="6.53822">
        <ele>1334.71</ele>
        <time>2020-07-14T09:28:24.166Z</time>
      </trkpt>
      <trkpt lat="46.83618" lon="6.53815">
        <ele>1335.01</ele>
        <time>2020-07-14T09:28:26.590Z</time>
      </trkpt>
      <trkpt lat="46.83621" lon="6.53811">
        <ele>1335.56</ele>
        <time>2020-07-14T09:28:30.699Z</time>
      </trkpt>
      <trkpt lat="46.83624" lon="6.53807">
        <ele>1335.91</ele>
        <time>2020-07-14T09:28:33.142Z</time>
      </trkpt>
      <trkpt lat="46.83627" lon="6.53806">
        <ele>1336.24</ele>
        <time>2020-07-14T09:28:35.401Z</time>
      </trkpt>
      <trkpt lat="46.83631" lon="6.53805">
        <ele>1336.59</ele>
        <time>2020-07-14T09:28:37.842Z</time>
      </trkpt>
      <trkpt lat="46.83634" lon="6.53806">
        <ele>1336.94</ele>
        <time>2020-07-14T09:28:40.267Z</time>
      </trkpt>
      <trkpt lat="46.83644" lon="6.5381">
        <ele>1338.04</ele>
        <time>2020-07-14T09:28:47.788Z</time>
      </trkpt>
      <trkpt lat="46.83657" lon="6.53817">
        <ele>1339.32</ele>
        <time>2020-07-14T09:28:56.589Z</time>
      </trkpt>
      <trkpt lat="46.83699" lon="6.53837">
        <ele>1342.15</ele>
        <time>2020-07-14T09:29:18.913Z</time>
      </trkpt>
      <trkpt lat="46.83698" lon="6.53837">
        <ele>1342.15</ele>
        <time>2020-07-14T09:29:19.175Z</time>
      </trkpt>
      <trkpt lat="46.83714" lon="6.53844">
        <ele>1344.97</ele>
        <time>2020-07-14T09:29:36.078Z</time>
      </trkpt>
      <trkpt lat="46.83738" lon="6.53856">
        <ele>1347.9</ele>
        <time>2020-07-14T09:29:56.468Z</time>
      </trkpt>
      <trkpt lat="46.83745" lon="6.53861">
        <ele>1348.68</ele>
        <time>2020-07-14T09:30:01.790Z</time>
      </trkpt>
      <trkpt lat="46.83779" lon="6.53888">
        <ele>1352.43</ele>
        <time>2020-07-14T09:30:27.421Z</time>
      </trkpt>
      <trkpt lat="46.83788" lon="6.53894">
        <ele>1353.36</ele>
        <time>2020-07-14T09:30:33.799Z</time>
      </trkpt>
      <trkpt lat="46.83797" lon="6.53898">
        <ele>1354.16</ele>
        <time>2020-07-14T09:30:39.401Z</time>
      </trkpt>
      <trkpt lat="46.83805" lon="6.53902">
        <ele>1354.71</ele>
        <time>2020-07-14T09:30:43.705Z</time>
      </trkpt>
      <trkpt lat="46.83816" lon="6.53911">
        <ele>1356</ele>
        <time>2020-07-14T09:30:52.507Z</time>
      </trkpt>
      <trkpt lat="46.83822" lon="6.53917">
        <ele>1356.6</ele>
        <time>2020-07-14T09:30:56.745Z</time>
      </trkpt>
      <trkpt lat="46.8383" lon="6.53927">
        <ele>1357.67</ele>
        <time>2020-07-14T09:31:04.045Z</time>
      </trkpt>
      <trkpt lat="46.83836" lon="6.53933">
        <ele>1358.5</ele>
        <time>2020-07-14T09:31:09.801Z</time>
      </trkpt>
      <trkpt lat="46.83841" lon="6.53939">
        <ele>1359.25</ele>
        <time>2020-07-14T09:31:15.026Z</time>
      </trkpt>
      <trkpt lat="46.83844" lon="6.53943">
        <ele>1360.03</ele>
        <time>2020-07-14T09:31:19.136Z</time>
      </trkpt>
      <trkpt lat="46.83849" lon="6.53951">
        <ele>1360.71</ele>
        <time>2020-07-14T09:31:23.817Z</time>
      </trkpt>
      <trkpt lat="46.83852" lon="6.53957">
        <ele>1361.39</ele>
        <time>2020-07-14T09:31:28.962Z</time>
      </trkpt>
      <trkpt lat="46.83862" lon="6.53977">
        <ele>1363.6</ele>
        <time>2020-07-14T09:31:45.395Z</time>
      </trkpt>
      <trkpt lat="46.83871" lon="6.53993">
        <ele>1365.25</ele>
        <time>2020-07-14T09:31:56.909Z</time>
      </trkpt>
      <trkpt lat="46.83884" lon="6.54018">
        <ele>1367.89</ele>
        <time>2020-07-14T09:32:15.776Z</time>
      </trkpt>
      <trkpt lat="46.83887" lon="6.54023">
        <ele>1368.33</ele>
        <time>2020-07-14T09:32:18.784Z</time>
      </trkpt>
      <trkpt lat="46.83892" lon="6.54029">
        <ele>1369.27</ele>
        <time>2020-07-14T09:32:25.331Z</time>
      </trkpt>
      <trkpt lat="46.83898" lon="6.54037">
        <ele>1370.39</ele>
        <time>2020-07-14T09:32:33.550Z</time>
      </trkpt>
      <trkpt lat="46.83903" lon="6.54041">
        <ele>1370.72</ele>
        <time>2020-07-14T09:32:36.307Z</time>
      </trkpt>
      <trkpt lat="46.83907" lon="6.54045">
        <ele>1371.52</ele>
        <time>2020-07-14T09:32:41.212Z</time>
      </trkpt>
      <trkpt lat="46.83912" lon="6.54049">
        <ele>1372.33</ele>
        <time>2020-07-14T09:32:46.981Z</time>
      </trkpt>
      <trkpt lat="46.83919" lon="6.54053">
        <ele>1373.31</ele>
        <time>2020-07-14T09:32:54.267Z</time>
      </trkpt>
      <trkpt lat="46.83924" lon="6.54056">
        <ele>1373.99</ele>
        <time>2020-07-14T09:32:59.194Z</time>
      </trkpt>
      <trkpt lat="46.83928" lon="6.54057">
        <ele>1374.55</ele>
        <time>2020-07-14T09:33:03.301Z</time>
      </trkpt>
      <trkpt lat="46.83932" lon="6.54058">
        <ele>1374.76</ele>
        <time>2020-07-14T09:33:05.185Z</time>
      </trkpt>
      <trkpt lat="46.83946" lon="6.54058">
        <ele>1376.15</ele>
        <time>2020-07-14T09:33:14.671Z</time>
      </trkpt>
      <trkpt lat="46.83945" lon="6.54058">
        <ele>1376.15</ele>
        <time>2020-07-14T09:33:14.934Z</time>
      </trkpt>
      <trkpt lat="46.83954" lon="6.54058">
        <ele>1377.55</ele>
        <time>2020-07-14T09:33:24.042Z</time>
      </trkpt>
      <trkpt lat="46.83963" lon="6.54058">
        <ele>1378.48</ele>
        <time>2020-07-14T09:33:30.390Z</time>
      </trkpt>
      <trkpt lat="46.83969" lon="6.54057">
        <ele>1379.4</ele>
        <time>2020-07-14T09:33:36.501Z</time>
      </trkpt>
      <trkpt lat="46.83974" lon="6.54055">
        <ele>1380.14</ele>
        <time>2020-07-14T09:33:41.748Z</time>
      </trkpt>
      <trkpt lat="46.83979" lon="6.54051">
        <ele>1380.71</ele>
        <time>2020-07-14T09:33:45.637Z</time>
      </trkpt>
      <trkpt lat="46.83982" lon="6.54048">
        <ele>1381.17</ele>
        <time>2020-07-14T09:33:48.983Z</time>
      </trkpt>
      <trkpt lat="46.83986" lon="6.54042">
        <ele>1381.64</ele>
        <time>2020-07-14T09:33:52.310Z</time>
      </trkpt>
      <trkpt lat="46.83988" lon="6.54035">
        <ele>1382.34</ele>
        <time>2020-07-14T09:33:57.562Z</time>
      </trkpt>
      <trkpt lat="46.8399" lon="6.54027">
        <ele>1383.02</ele>
        <time>2020-07-14T09:34:02.311Z</time>
      </trkpt>
      <trkpt lat="46.83995" lon="6.53976">
        <ele>1386.94</ele>
        <time>2020-07-14T09:34:29.313Z</time>
      </trkpt>
      <trkpt lat="46.83997" lon="6.53956">
        <ele>1388.34</ele>
        <time>2020-07-14T09:34:38.864Z</time>
      </trkpt>
      <trkpt lat="46.83999" lon="6.53934">
        <ele>1390.02</ele>
        <time>2020-07-14T09:34:50.424Z</time>
      </trkpt>
      <trkpt lat="46.84002" lon="6.53892">
        <ele>1393.32</ele>
        <time>2020-07-14T09:35:13.311Z</time>
      </trkpt>
      <trkpt lat="46.84004" lon="6.53859">
        <ele>1395.83</ele>
        <time>2020-07-14T09:35:30.585Z</time>
      </trkpt>
      <trkpt lat="46.84005" lon="6.53851">
        <ele>1396.29</ele>
        <time>2020-07-14T09:35:33.833Z</time>
      </trkpt>
      <trkpt lat="46.84006" lon="6.53843">
        <ele>1397.2</ele>
        <time>2020-07-14T09:35:39.463Z</time>
      </trkpt>
      <trkpt lat="46.84007" lon="6.53835">
        <ele>1397.82</ele>
        <time>2020-07-14T09:35:43.735Z</time>
      </trkpt>
      <trkpt lat="46.84008" lon="6.53828">
        <ele>1398.23</ele>
        <time>2020-07-14T09:35:46.618Z</time>
      </trkpt>
      <trkpt lat="46.84011" lon="6.53828">
        <ele>1398.84</ele>
        <time>2020-07-14T09:35:49.655Z</time>
      </trkpt>
      <trkpt lat="46.84016" lon="6.53827">
        <ele>1399.31</ele>
        <time>2020-07-14T09:35:52.882Z</time>
      </trkpt>
      <trkpt lat="46.8402" lon="6.53828">
        <ele>1399.85</ele>
        <time>2020-07-14T09:35:56.968Z</time>
      </trkpt>
      <trkpt lat="46.84023" lon="6.5383">
        <ele>1400.37</ele>
        <time>2020-07-14T09:36:00.305Z</time>
      </trkpt>
      <trkpt lat="46.84027" lon="6.53833">
        <ele>1400.96</ele>
        <time>2020-07-14T09:36:04.714Z</time>
      </trkpt>
      <trkpt lat="46.84036" lon="6.53842">
        <ele>1402.18</ele>
        <time>2020-07-14T09:36:13.129Z</time>
      </trkpt>
      <trkpt lat="46.84057" lon="6.53864">
        <ele>1404.25</ele>
        <time>2020-07-14T09:36:27.897Z</time>
      </trkpt>
      <trkpt lat="46.84056" lon="6.53864">
        <ele>1404.25</ele>
        <time>2020-07-14T09:36:28.160Z</time>
      </trkpt>
      <trkpt lat="46.84063" lon="6.53871">
        <ele>1406.33</ele>
        <time>2020-07-14T09:36:36.743Z</time>
      </trkpt>
      <trkpt lat="46.84072" lon="6.5388">
        <ele>1407.45</ele>
        <time>2020-07-14T09:36:44.385Z</time>
      </trkpt>
      <trkpt lat="46.84086" lon="6.53895">
        <ele>1409.07</ele>
        <time>2020-07-14T09:36:55.506Z</time>
      </trkpt>
      <trkpt lat="46.84094" lon="6.53902">
        <ele>1409.37</ele>
        <time>2020-07-14T09:36:58.975Z</time>
      </trkpt>
      <trkpt lat="46.84109" lon="6.53915">
        <ele>1411.23</ele>
        <time>2020-07-14T09:37:11.700Z</time>
      </trkpt>
      <trkpt lat="46.84127" lon="6.53929">
        <ele>1412.73</ele>
        <time>2020-07-14T09:37:22.763Z</time>
      </trkpt>
      <trkpt lat="46.84137" lon="6.53939">
        <ele>1414.06</ele>
        <time>2020-07-14T09:37:31.900Z</time>
      </trkpt>
      <trkpt lat="46.84155" lon="6.53957">
        <ele>1415.8</ele>
        <time>2020-07-14T09:37:44.332Z</time>
      </trkpt>
      <trkpt lat="46.84175" lon="6.53978">
        <ele>1418.04</ele>
        <time>2020-07-14T09:37:59.775Z</time>
      </trkpt>
      <trkpt lat="46.84196" lon="6.54">
        <ele>1420.98</ele>
        <time>2020-07-14T09:38:20.142Z</time>
      </trkpt>
      <trkpt lat="46.84207" lon="6.54011">
        <ele>1422.35</ele>
        <time>2020-07-14T09:38:29.490Z</time>
      </trkpt>
      <trkpt lat="46.84211" lon="6.54017">
        <ele>1422.78</ele>
        <time>2020-07-14T09:38:32.636Z</time>
      </trkpt>
      <trkpt lat="46.84215" lon="6.54022">
        <ele>1423.41</ele>
        <time>2020-07-14T09:38:37.080Z</time>
      </trkpt>
      <trkpt lat="46.84217" lon="6.54027">
        <ele>1423.78</ele>
        <time>2020-07-14T09:38:39.620Z</time>
      </trkpt>
      <trkpt lat="46.84226" lon="6.54046">
        <ele>1425.7</ele>
        <time>2020-07-14T09:38:53.258Z</time>
      </trkpt>
      <trkpt lat="46.84234" lon="6.54064">
        <ele>1427.47</ele>
        <time>2020-07-14T09:39:05.785Z</time>
      </trkpt>
      <trkpt lat="46.84236" lon="6.5407">
        <ele>1428.18</ele>
        <time>2020-07-14T09:39:10.406Z</time>
      </trkpt>
      <trkpt lat="46.84242" lon="6.5408">
        <ele>1429.4</ele>
        <time>2020-07-14T09:39:19.614Z</time>
      </trkpt>
      <trkpt lat="46.84243" lon="6.54081">
        <ele>1430.86</ele>
        <time>2020-07-14T09:39:20.840Z</time>
      </trkpt>
      <trkpt lat="46.84243" lon="6.5408">
        <ele>1430.86</ele>
        <time>2020-07-14T09:39:21.020Z</time>
      </trkpt>
      <trkpt lat="46.8426" lon="6.54104">
        <ele>1432.33</ele>
        <time>2020-07-14T09:39:32.804Z</time>
      </trkpt>
      <trkpt lat="46.84263" lon="6.54106">
        <ele>1432.57</ele>
        <time>2020-07-14T09:39:34.583Z</time>
      </trkpt>
      <trkpt lat="46.84266" lon="6.54107">
        <ele>1433.2</ele>
        <time>2020-07-14T09:39:37.697Z</time>
      </trkpt>
      <trkpt lat="46.84268" lon="6.54106">
        <ele>1433.51</ele>
        <time>2020-07-14T09:39:39.836Z</time>
      </trkpt>
      <trkpt lat="46.8427" lon="6.54104">
        <ele>1433.98</ele>
        <time>2020-07-14T09:39:42.288Z</time>
      </trkpt>
      <trkpt lat="46.84272" lon="6.54101">
        <ele>1434.4</ele>
        <time>2020-07-14T09:39:45.189Z</time>
      </trkpt>
      <trkpt lat="46.84283" lon="6.54082">
        <ele>1436.6</ele>
        <time>2020-07-14T09:40:01.429Z</time>
      </trkpt>
      <trkpt lat="46.84287" lon="6.54075">
        <ele>1437.42</ele>
        <time>2020-07-14T09:40:07.566Z</time>
      </trkpt>
      <trkpt lat="46.84289" lon="6.54072">
        <ele>1437.08</ele>
        <time>2020-07-14T09:40:07.879Z</time>
      </trkpt>
      <trkpt lat="46.84295" lon="6.54066">
        <ele>1438.28</ele>
        <time>2020-07-14T09:40:15.236Z</time>
      </trkpt>
      <trkpt lat="46.84299" lon="6.54063">
        <ele>1438.98</ele>
        <time>2020-07-14T09:40:19.786Z</time>
      </trkpt>
      <trkpt lat="46.84302" lon="6.54063">
        <ele>1439.38</ele>
        <time>2020-07-14T09:40:22.818Z</time>
      </trkpt>
      <trkpt lat="46.84307" lon="6.54065">
        <ele>1439.78</ele>
        <time>2020-07-14T09:40:25.711Z</time>
      </trkpt>
      <trkpt lat="46.84312" lon="6.54069">
        <ele>1440.47</ele>
        <time>2020-07-14T09:40:30.605Z</time>
      </trkpt>
      <trkpt lat="46.84318" lon="6.54075">
        <ele>1441.27</ele>
        <time>2020-07-14T09:40:36.103Z</time>
      </trkpt>
      <trkpt lat="46.84319" lon="6.54076">
        <ele>1441.72</ele>
        <time>2020-07-14T09:40:37.329Z</time>
      </trkpt>
      <trkpt lat="46.84319" lon="6.54075">
        <ele>1441.72</ele>
        <time>2020-07-14T09:40:37.509Z</time>
      </trkpt>
      <trkpt lat="46.84326" lon="6.54082">
        <ele>1442.17</ele>
        <time>2020-07-14T09:40:41.480Z</time>
      </trkpt>
      <trkpt lat="46.84333" lon="6.54087">
        <ele>1442.97</ele>
        <time>2020-07-14T09:40:46.938Z</time>
      </trkpt>
      <trkpt lat="46.84341" lon="6.54092">
        <ele>1443.77</ele>
        <time>2020-07-14T09:40:52.443Z</time>
      </trkpt>
      <trkpt lat="46.84352" lon="6.54097">
        <ele>1444.87</ele>
        <time>2020-07-14T09:40:59.973Z</time>
      </trkpt>
      <trkpt lat="46.84361" lon="6.54101">
        <ele>1445.67</ele>
        <time>2020-07-14T09:41:05.575Z</time>
      </trkpt>
      <trkpt lat="46.8437" lon="6.54103">
        <ele>1446.77</ele>
        <time>2020-07-14T09:41:13.369Z</time>
      </trkpt>
      <trkpt lat="46.84381" lon="6.54106">
        <ele>1448.42</ele>
        <time>2020-07-14T09:41:24.693Z</time>
      </trkpt>
      <trkpt lat="46.84405" lon="6.5411">
        <ele>1449.54</ele>
        <time>2020-07-14T09:41:35.518Z</time>
      </trkpt>
      <trkpt lat="46.84404" lon="6.5411">
        <ele>1449.54</ele>
        <time>2020-07-14T09:41:35.781Z</time>
      </trkpt>
      <trkpt lat="46.84412" lon="6.54112">
        <ele>1450.67</ele>
        <time>2020-07-14T09:41:43.995Z</time>
      </trkpt>
      <trkpt lat="46.84419" lon="6.54112">
        <ele>1451.15</ele>
        <time>2020-07-14T09:41:47.651Z</time>
      </trkpt>
      <trkpt lat="46.84424" lon="6.54113">
        <ele>1451.48</ele>
        <time>2020-07-14T09:41:50.226Z</time>
      </trkpt>
      <trkpt lat="46.84447" lon="6.54118">
        <ele>1453.85</ele>
        <time>2020-07-14T09:42:06.396Z</time>
      </trkpt>
      <trkpt lat="46.84459" lon="6.54119">
        <ele>1455.39</ele>
        <time>2020-07-14T09:42:17.693Z</time>
      </trkpt>
      <trkpt lat="46.84469" lon="6.54119">
        <ele>1455.8</ele>
        <time>2020-07-14T09:42:21.895Z</time>
      </trkpt>
      <trkpt lat="46.84486" lon="6.54119">
        <ele>1457.06</ele>
        <time>2020-07-14T09:42:31.159Z</time>
      </trkpt>
      <trkpt lat="46.84502" lon="6.54117">
        <ele>1458.48</ele>
        <time>2020-07-14T09:42:41.006Z</time>
      </trkpt>
      <trkpt lat="46.84511" lon="6.54117">
        <ele>1459.65</ele>
        <time>2020-07-14T09:42:49.684Z</time>
      </trkpt>
      <trkpt lat="46.8452" lon="6.54117">
        <ele>1460.46</ele>
        <time>2020-07-14T09:42:55.279Z</time>
      </trkpt>
      <trkpt lat="46.84526" lon="6.54118">
        <ele>1461.24</ele>
        <time>2020-07-14T09:43:01.036Z</time>
      </trkpt>
      <trkpt lat="46.84544" lon="6.54124">
        <ele>1463.51</ele>
        <time>2020-07-14T09:43:17.263Z</time>
      </trkpt>
      <trkpt lat="46.8455" lon="6.54126">
        <ele>1464.13</ele>
        <time>2020-07-14T09:43:21.493Z</time>
      </trkpt>
      <trkpt lat="46.84555" lon="6.54128">
        <ele>1465.03</ele>
        <time>2020-07-14T09:43:26.739Z</time>
      </trkpt>
      <trkpt lat="46.8456" lon="6.54131">
        <ele>1465.64</ele>
        <time>2020-07-14T09:43:30.956Z</time>
      </trkpt>
      <trkpt lat="46.84566" lon="6.54136">
        <ele>1466.58</ele>
        <time>2020-07-14T09:43:37.945Z</time>
      </trkpt>
      <trkpt lat="46.84576" lon="6.54146">
        <ele>1467.81</ele>
        <time>2020-07-14T09:43:46.337Z</time>
      </trkpt>
      <trkpt lat="46.8459" lon="6.54158">
        <ele>1469.53</ele>
        <time>2020-07-14T09:43:58.096Z</time>
      </trkpt>
      <trkpt lat="46.84597" lon="6.54165">
        <ele>1470.22</ele>
        <time>2020-07-14T09:44:02.993Z</time>
      </trkpt>
      <trkpt lat="46.84608" lon="6.54178">
        <ele>1471.16</ele>
        <time>2020-07-14T09:44:10.267Z</time>
      </trkpt>
      <trkpt lat="46.84615" lon="6.54184">
        <ele>1471.78</ele>
        <time>2020-07-14T09:44:14.769Z</time>
      </trkpt>
      <trkpt lat="46.84622" lon="6.54189">
        <ele>1472.73</ele>
        <time>2020-07-14T09:44:21.530Z</time>
      </trkpt>
      <trkpt lat="46.8463" lon="6.54193">
        <ele>1473.45</ele>
        <time>2020-07-14T09:44:26.570Z</time>
      </trkpt>
      <trkpt lat="46.84637" lon="6.54197">
        <ele>1474.38</ele>
        <time>2020-07-14T09:44:33.242Z</time>
      </trkpt>
      <trkpt lat="46.84642" lon="6.54201">
        <ele>1474.89</ele>
        <time>2020-07-14T09:44:36.770Z</time>
      </trkpt>
      <trkpt lat="46.84647" lon="6.54206">
        <ele>1474.99</ele>
        <time>2020-07-14T09:44:38.642Z</time>
      </trkpt>
      <trkpt lat="46.8466" lon="6.54223">
        <ele>1474.84</ele>
        <time>2020-07-14T09:44:41.763Z</time>
      </trkpt>
      <trkpt lat="46.84669" lon="6.54235">
        <ele>1475.32</ele>
        <time>2020-07-14T09:44:46.764Z</time>
      </trkpt>
      <trkpt lat="46.84677" lon="6.54244">
        <ele>1475.64</ele>
        <time>2020-07-14T09:44:50.496Z</time>
      </trkpt>
      <trkpt lat="46.84684" lon="6.5425">
        <ele>1476.04</ele>
        <time>2020-07-14T09:44:54.202Z</time>
      </trkpt>
      <trkpt lat="46.8469" lon="6.54254">
        <ele>1476.38</ele>
        <time>2020-07-14T09:44:57.259Z</time>
      </trkpt>
      <trkpt lat="46.84697" lon="6.54259">
        <ele>1476.74</ele>
        <time>2020-07-14T09:45:00.747Z</time>
      </trkpt>
      <trkpt lat="46.84714" lon="6.54267">
        <ele>1478.57</ele>
        <time>2020-07-14T09:45:13.233Z</time>
      </trkpt>
      <trkpt lat="46.84723" lon="6.54273">
        <ele>1479.58</ele>
        <time>2020-07-14T09:45:20.124Z</time>
      </trkpt>
      <trkpt lat="46.84763" lon="6.54302">
        <ele>1486.49</ele>
        <time>2020-07-14T09:46:05.310Z</time>
      </trkpt>
      <trkpt lat="46.84773" lon="6.5431">
        <ele>1488.83</ele>
        <time>2020-07-14T09:46:16.847Z</time>
      </trkpt>
      <trkpt lat="46.84805" lon="6.54337">
        <ele>1491.12</ele>
        <time>2020-07-14T09:46:35.242Z</time>
      </trkpt>
      <trkpt lat="46.84829" lon="6.54359">
        <ele>1492.53</ele>
        <time>2020-07-14T09:46:48.219Z</time>
      </trkpt>
      <trkpt lat="46.84832" lon="6.54362">
        <ele>1492.99</ele>
        <time>2020-07-14T09:46:51.565Z</time>
      </trkpt>
      <trkpt lat="46.84832" lon="6.54361">
        <ele>1492.99</ele>
        <time>2020-07-14T09:46:51.745Z</time>
      </trkpt>
      <trkpt lat="46.84843" lon="6.54371">
        <ele>1493.45</ele>
        <time>2020-07-14T09:46:56.782Z</time>
      </trkpt>
      <trkpt lat="46.84863" lon="6.54388">
        <ele>1494.37</ele>
        <time>2020-07-14T09:47:06.330Z</time>
      </trkpt>
      <trkpt lat="46.84885" lon="6.54405">
        <ele>1496.02</ele>
        <time>2020-07-14T09:47:19.113Z</time>
      </trkpt>
      <trkpt lat="46.84909" lon="6.54421">
        <ele>1499.11</ele>
        <time>2020-07-14T09:47:40.722Z</time>
      </trkpt>
      <trkpt lat="46.84919" lon="6.54426">
        <ele>1500.96</ele>
        <time>2020-07-14T09:47:51.418Z</time>
      </trkpt>
      <trkpt lat="46.84932" lon="6.54433">
        <ele>1503.57</ele>
        <time>2020-07-14T09:48:05.438Z</time>
      </trkpt>
      <trkpt lat="46.84945" lon="6.54438">
        <ele>1505.75</ele>
        <time>2020-07-14T09:48:19.043Z</time>
      </trkpt>
      <trkpt lat="46.84954" lon="6.54443">
        <ele>1507.75</ele>
        <time>2020-07-14T09:48:28.787Z</time>
      </trkpt>
      <trkpt lat="46.84959" lon="6.54445">
        <ele>1508.86</ele>
        <time>2020-07-14T09:48:34.033Z</time>
      </trkpt>
      <trkpt lat="46.84963" lon="6.54445">
        <ele>1509.19</ele>
        <time>2020-07-14T09:48:36.365Z</time>
      </trkpt>
      <trkpt lat="46.84966" lon="6.54444">
        <ele>1509.6</ele>
        <time>2020-07-14T09:48:39.471Z</time>
      </trkpt>
      <trkpt lat="46.84969" lon="6.5444">
        <ele>1510.01</ele>
        <time>2020-07-14T09:48:42.268Z</time>
      </trkpt>
      <trkpt lat="46.84971" lon="6.54435">
        <ele>1510.39</ele>
        <time>2020-07-14T09:48:44.867Z</time>
      </trkpt>
      <trkpt lat="46.84972" lon="6.54427">
        <ele>1511.04</ele>
        <time>2020-07-14T09:48:49.409Z</time>
      </trkpt>
      <trkpt lat="46.84973" lon="6.54419">
        <ele>1511.7</ele>
        <time>2020-07-14T09:48:54.048Z</time>
      </trkpt>
      <trkpt lat="46.84975" lon="6.54411">
        <ele>1512.26</ele>
        <time>2020-07-14T09:48:57.878Z</time>
      </trkpt>
      <trkpt lat="46.8498" lon="6.54389">
        <ele>1514.44</ele>
        <time>2020-07-14T09:49:13.925Z</time>
      </trkpt>
      <trkpt lat="46.84981" lon="6.54383">
        <ele>1515.43</ele>
        <time>2020-07-14T09:49:18.199Z</time>
      </trkpt>
      <trkpt lat="46.84981" lon="6.54375">
        <ele>1516.17</ele>
        <time>2020-07-14T09:49:23.737Z</time>
      </trkpt>
      <trkpt lat="46.84979" lon="6.54322">
        <ele>1518.49</ele>
        <time>2020-07-14T09:49:42.062Z</time>
      </trkpt>
      <trkpt lat="46.84979" lon="6.54321">
        <ele>1518.49</ele>
        <time>2020-07-14T09:49:42.242Z</time>
      </trkpt>
      <trkpt lat="46.84979" lon="6.5432">
        <ele>1520.81</ele>
        <time>2020-07-14T09:49:42.934Z</time>
      </trkpt>
      <trkpt lat="46.84978" lon="6.54312">
        <ele>1521.47</ele>
        <time>2020-07-14T09:49:47.573Z</time>
      </trkpt>
      <trkpt lat="46.84977" lon="6.54305">
        <ele>1522.34</ele>
        <time>2020-07-14T09:49:52.522Z</time>
      </trkpt>
      <trkpt lat="46.84974" lon="6.54287">
        <ele>1523.99</ele>
        <time>2020-07-14T09:50:04.777Z</time>
      </trkpt>
      <trkpt lat="46.84973" lon="6.5428">
        <ele>1524.6</ele>
        <time>2020-07-14T09:50:09.173Z</time>
      </trkpt>
      <trkpt lat="46.84973" lon="6.54273">
        <ele>1525.17</ele>
        <time>2020-07-14T09:50:13.185Z</time>
      </trkpt>
      <trkpt lat="46.84973" lon="6.54267">
        <ele>1525.72</ele>
        <time>2020-07-14T09:50:17.338Z</time>
      </trkpt>
      <trkpt lat="46.84974" lon="6.54262">
        <ele>1526.26</ele>
        <time>2020-07-14T09:50:20.944Z</time>
      </trkpt>
      <trkpt lat="46.84977" lon="6.54255">
        <ele>1526.66</ele>
        <time>2020-07-14T09:50:23.945Z</time>
      </trkpt>
      <trkpt lat="46.84979" lon="6.54251">
        <ele>1527.1</ele>
        <time>2020-07-14T09:50:27.205Z</time>
      </trkpt>
      <trkpt lat="46.84983" lon="6.54245">
        <ele>1527.67</ele>
        <time>2020-07-14T09:50:31.095Z</time>
      </trkpt>
      <trkpt lat="46.8499" lon="6.54235">
        <ele>1529.03</ele>
        <time>2020-07-14T09:50:41.000Z</time>
      </trkpt>
      <trkpt lat="46.84994" lon="6.54226">
        <ele>1529.7</ele>
        <time>2020-07-14T09:50:45.616Z</time>
      </trkpt>
      <trkpt lat="46.84996" lon="6.54222">
        <ele>1530.22</ele>
        <time>2020-07-14T09:50:49.046Z</time>
      </trkpt>
      <trkpt lat="46.84997" lon="6.54218">
        <ele>1530.56</ele>
        <time>2020-07-14T09:50:51.420Z</time>
      </trkpt>
      <trkpt lat="46.84997" lon="6.54211">
        <ele>1530.91</ele>
        <time>2020-07-14T09:50:54.009Z</time>
      </trkpt>
      <trkpt lat="46.84997" lon="6.54203">
        <ele>1531.35</ele>
        <time>2020-07-14T09:50:57.144Z</time>
      </trkpt>
      <trkpt lat="46.84996" lon="6.54195">
        <ele>1531.81</ele>
        <time>2020-07-14T09:51:00.392Z</time>
      </trkpt>
      <trkpt lat="46.84994" lon="6.54188">
        <ele>1532.1</ele>
        <time>2020-07-14T09:51:02.868Z</time>
      </trkpt>
      <trkpt lat="46.84988" lon="6.5417">
        <ele>1533</ele>
        <time>2020-07-14T09:51:09.872Z</time>
      </trkpt>
      <trkpt lat="46.84974" lon="6.54136">
        <ele>1535.29</ele>
        <time>2020-07-14T09:51:25.945Z</time>
      </trkpt>
      <trkpt lat="46.84967" lon="6.54121">
        <ele>1536.57</ele>
        <time>2020-07-14T09:51:34.680Z</time>
      </trkpt>
      <trkpt lat="46.84964" lon="6.5411">
        <ele>1537.41</ele>
        <time>2020-07-14T09:51:40.414Z</time>
      </trkpt>
      <trkpt lat="46.84963" lon="6.54103">
        <ele>1538.21</ele>
        <time>2020-07-14T09:51:45.363Z</time>
      </trkpt>
      <trkpt lat="46.84963" lon="6.54095">
        <ele>1538.77</ele>
        <time>2020-07-14T09:51:49.184Z</time>
      </trkpt>
      <trkpt lat="46.84965" lon="6.54089">
        <ele>1539.43</ele>
        <time>2020-07-14T09:51:53.804Z</time>
      </trkpt>
      <trkpt lat="46.84967" lon="6.54084">
        <ele>1540.21</ele>
        <time>2020-07-14T09:51:57.814Z</time>
      </trkpt>
      <trkpt lat="46.84971" lon="6.54081">
        <ele>1540.67</ele>
        <time>2020-07-14T09:52:00.952Z</time>
      </trkpt>
      <trkpt lat="46.84975" lon="6.54079">
        <ele>1541.39</ele>
        <time>2020-07-14T09:52:05.231Z</time>
      </trkpt>
      <trkpt lat="46.84982" lon="6.54076">
        <ele>1542.59</ele>
        <time>2020-07-14T09:52:12.613Z</time>
      </trkpt>
      <trkpt lat="46.8499" lon="6.54071">
        <ele>1544.64</ele>
        <time>2020-07-14T09:52:21.418Z</time>
      </trkpt>
      <trkpt lat="46.84994" lon="6.54069">
        <ele>1545.59</ele>
        <time>2020-07-14T09:52:25.697Z</time>
      </trkpt>
      <trkpt lat="46.84998" lon="6.54066">
        <ele>1546.62</ele>
        <time>2020-07-14T09:52:30.247Z</time>
      </trkpt>
      <trkpt lat="46.85001" lon="6.54062">
        <ele>1547.81</ele>
        <time>2020-07-14T09:52:34.356Z</time>
      </trkpt>
      <trkpt lat="46.85003" lon="6.54057">
        <ele>1548.5</ele>
        <time>2020-07-14T09:52:38.365Z</time>
      </trkpt>
      <trkpt lat="46.85004" lon="6.54053">
        <ele>1549.36</ele>
        <time>2020-07-14T09:52:41.313Z</time>
      </trkpt>
      <trkpt lat="46.85004" lon="6.54046">
        <ele>1550.38</ele>
        <time>2020-07-14T09:52:46.158Z</time>
      </trkpt>
      <trkpt lat="46.85003" lon="6.54039">
        <ele>1551.5</ele>
        <time>2020-07-14T09:52:51.108Z</time>
      </trkpt>
      <trkpt lat="46.85002" lon="6.54032">
        <ele>1552.36</ele>
        <time>2020-07-14T09:52:56.057Z</time>
      </trkpt>
      <trkpt lat="46.84999" lon="6.54026">
        <ele>1552.87</ele>
        <time>2020-07-14T09:52:59.537Z</time>
      </trkpt>
      <trkpt lat="46.84996" lon="6.5402">
        <ele>1553.51</ele>
        <time>2020-07-14T09:53:04.177Z</time>
      </trkpt>
      <trkpt lat="46.84983" lon="6.54005">
        <ele>1554.91</ele>
        <time>2020-07-14T09:53:13.997Z</time>
      </trkpt>
      <trkpt lat="46.8498" lon="6.53999">
        <ele>1555.29</ele>
        <time>2020-07-14T09:53:16.781Z</time>
      </trkpt>
      <trkpt lat="46.84976" lon="6.53991">
        <ele>1556.08</ele>
        <time>2020-07-14T09:53:22.295Z</time>
      </trkpt>
      <trkpt lat="46.84974" lon="6.53983">
        <ele>1557.06</ele>
        <time>2020-07-14T09:53:28.191Z</time>
      </trkpt>
      <trkpt lat="46.84974" lon="6.53978">
        <ele>1557.66</ele>
        <time>2020-07-14T09:53:31.652Z</time>
      </trkpt>
      <trkpt lat="46.84973" lon="6.53969">
        <ele>1558.78</ele>
        <time>2020-07-14T09:53:37.963Z</time>
      </trkpt>
      <trkpt lat="46.84973" lon="6.53955">
        <ele>1560.67</ele>
        <time>2020-07-14T09:53:47.653Z</time>
      </trkpt>
      <trkpt lat="46.84973" lon="6.53945">
        <ele>1562.17</ele>
        <time>2020-07-14T09:53:54.575Z</time>
      </trkpt>
      <trkpt lat="46.84973" lon="6.53937">
        <ele>1562.77</ele>
        <time>2020-07-14T09:53:58.696Z</time>
      </trkpt>
      <trkpt lat="46.84972" lon="6.53931">
        <ele>1563.17</ele>
        <time>2020-07-14T09:54:01.437Z</time>
      </trkpt>
      <trkpt lat="46.84969" lon="6.53925">
        <ele>1563.27</ele>
        <time>2020-07-14T09:54:03.064Z</time>
      </trkpt>
      <trkpt lat="46.84968" lon="6.53919">
        <ele>1563.47</ele>
        <time>2020-07-14T09:54:04.969Z</time>
      </trkpt>
      <trkpt lat="46.84969" lon="6.53914">
        <ele>1563.47</ele>
        <time>2020-07-14T09:54:05.903Z</time>
      </trkpt>
      <trkpt lat="46.8497" lon="6.53911">
        <ele>1564.07</ele>
        <time>2020-07-14T09:54:08.213Z</time>
      </trkpt>
      <trkpt lat="46.84971" lon="6.5391">
        <ele>1564.37</ele>
        <time>2020-07-14T09:54:09.440Z</time>
      </trkpt>
      <trkpt lat="46.84974" lon="6.53909">
        <ele>1564.67</ele>
        <time>2020-07-14T09:54:11.489Z</time>
      </trkpt>
      <trkpt lat="46.84978" lon="6.53909">
        <ele>1565.27</ele>
        <time>2020-07-14T09:54:15.537Z</time>
      </trkpt>
      <trkpt lat="46.84983" lon="6.5391">
        <ele>1566.37</ele>
        <time>2020-07-14T09:54:20.645Z</time>
      </trkpt>
      <trkpt lat="46.84992" lon="6.53913">
        <ele>1568.46</ele>
        <time>2020-07-14T09:54:29.987Z</time>
      </trkpt>
      <trkpt lat="46.85002" lon="6.53916">
        <ele>1570.96</ele>
        <time>2020-07-14T09:54:40.319Z</time>
      </trkpt>
      <trkpt lat="46.8501" lon="6.53919">
        <ele>1572.86</ele>
        <time>2020-07-14T09:54:48.677Z</time>
      </trkpt>
      <trkpt lat="46.85017" lon="6.53921">
        <ele>1574.66</ele>
        <time>2020-07-14T09:54:55.896Z</time>
      </trkpt>
      <trkpt lat="46.85024" lon="6.53922">
        <ele>1575.86</ele>
        <time>2020-07-14T09:55:03.014Z</time>
      </trkpt>
      <trkpt lat="46.85031" lon="6.53924">
        <ele>1577.26</ele>
        <time>2020-07-14T09:55:10.233Z</time>
      </trkpt>
      <trkpt lat="46.85048" lon="6.5393">
        <ele>1579.66</ele>
        <time>2020-07-14T09:55:27.932Z</time>
      </trkpt>
      <trkpt lat="46.85055" lon="6.53932">
        <ele>1580.45</ele>
        <time>2020-07-14T09:55:33.369Z</time>
      </trkpt>
      <trkpt lat="46.85058" lon="6.53933">
        <ele>1581.06</ele>
        <time>2020-07-14T09:55:36.483Z</time>
      </trkpt>
      <trkpt lat="46.85061" lon="6.53932">
        <ele>1581.35</ele>
        <time>2020-07-14T09:55:38.471Z</time>
      </trkpt>
      <trkpt lat="46.85063" lon="6.5393">
        <ele>1581.66</ele>
        <time>2020-07-14T09:55:40.743Z</time>
      </trkpt>
      <trkpt lat="46.85065" lon="6.53928">
        <ele>1581.95</ele>
        <time>2020-07-14T09:55:42.789Z</time>
      </trkpt>
      <trkpt lat="46.85065" lon="6.53926">
        <ele>1582.15</ele>
        <time>2020-07-14T09:55:44.173Z</time>
      </trkpt>
      <trkpt lat="46.85064" lon="6.53921">
        <ele>1582.73</ele>
        <time>2020-07-14T09:55:47.779Z</time>
      </trkpt>
      <trkpt lat="46.85063" lon="6.53905">
        <ele>1584.35</ele>
        <time>2020-07-14T09:55:58.899Z</time>
      </trkpt>
      <trkpt lat="46.85063" lon="6.53896">
        <ele>1585.35</ele>
        <time>2020-07-14T09:56:05.129Z</time>
      </trkpt>
      <trkpt lat="46.85064" lon="6.53893">
        <ele>1585.76</ele>
        <time>2020-07-14T09:56:07.439Z</time>
      </trkpt>
      <trkpt lat="46.85065" lon="6.53889">
        <ele>1586.3</ele>
        <time>2020-07-14T09:56:10.386Z</time>
      </trkpt>
      <trkpt lat="46.85067" lon="6.53885">
        <ele>1586.87</ele>
        <time>2020-07-14T09:56:13.816Z</time>
      </trkpt>
      <trkpt lat="46.85067" lon="6.53884">
        <ele>1586.89</ele>
        <time>2020-07-14T09:56:14.061Z</time>
      </trkpt>
      <trkpt lat="46.85068" lon="6.53882">
        <ele>1586.92</ele>
        <time>2020-07-14T09:56:14.592Z</time>
      </trkpt>
      <trkpt lat="46.85068" lon="6.5388">
        <ele>1587.35</ele>
        <time>2020-07-14T09:56:15.976Z</time>
      </trkpt>
      <trkpt lat="46.85068" lon="6.53878">
        <ele>1587.89</ele>
        <time>2020-07-14T09:56:17.360Z</time>
      </trkpt>
      <trkpt lat="46.85068" lon="6.53872">
        <ele>1588.42</ele>
        <time>2020-07-14T09:56:21.272Z</time>
      </trkpt>
      <trkpt lat="46.85067" lon="6.53866">
        <ele>1589.08</ele>
        <time>2020-07-14T09:56:25.546Z</time>
      </trkpt>
      <trkpt lat="46.85065" lon="6.53859">
        <ele>1589.45</ele>
        <time>2020-07-14T09:56:28.313Z</time>
      </trkpt>
      <trkpt lat="46.85063" lon="6.53852">
        <ele>1590.44</ele>
        <time>2020-07-14T09:56:33.564Z</time>
      </trkpt>
      <trkpt lat="46.85059" lon="6.53846">
        <ele>1591.18</ele>
        <time>2020-07-14T09:56:39.024Z</time>
      </trkpt>
      <trkpt lat="46.8505" lon="6.53834">
        <ele>1593.84</ele>
        <time>2020-07-14T09:56:51.351Z</time>
      </trkpt>
      <trkpt lat="46.85045" lon="6.53829">
        <ele>1594.84</ele>
        <time>2020-07-14T09:56:57.482Z</time>
      </trkpt>
      <trkpt lat="46.85043" lon="6.53825">
        <ele>1595.51</ele>
        <time>2020-07-14T09:57:00.912Z</time>
      </trkpt>
      <trkpt lat="46.85042" lon="6.53822">
        <ele>1595.77</ele>
        <time>2020-07-14T09:57:02.713Z</time>
      </trkpt>
      <trkpt lat="46.85042" lon="6.53818">
        <ele>1596.1</ele>
        <time>2020-07-14T09:57:05.050Z</time>
      </trkpt>
      <trkpt lat="46.85043" lon="6.53817">
        <ele>1596.21</ele>
        <time>2020-07-14T09:57:05.808Z</time>
      </trkpt>
      <trkpt lat="46.85043" lon="6.53815">
        <ele>1596.57</ele>
        <time>2020-07-14T09:57:07.193Z</time>
      </trkpt>
      <trkpt lat="46.85044" lon="6.53814">
        <ele>1596.64</ele>
        <time>2020-07-14T09:57:07.778Z</time>
      </trkpt>
      <trkpt lat="46.85044" lon="6.53814">
        <ele>1596.71</ele>
        <time>2020-07-14T09:57:07.778Z</time>
      </trkpt>
      <trkpt lat="46.85046" lon="6.53812">
        <ele>1596.91</ele>
        <time>2020-07-14T09:57:09.191Z</time>
      </trkpt>
      <trkpt lat="46.85047" lon="6.53812">
        <ele>1597.11</ele>
        <time>2020-07-14T09:57:10.203Z</time>
      </trkpt>
      <trkpt lat="46.85047" lon="6.53812">
        <ele>1597.11</ele>
        <time>2020-07-14T09:57:10.203Z</time>
      </trkpt>
      <trkpt lat="46.85046" lon="6.53812">
        <ele>1596.91</ele>
        <time>2020-07-14T09:57:10.313Z</time>
      </trkpt>
      <trkpt lat="46.85044" lon="6.53814">
        <ele>1596.71</ele>
        <time>2020-07-14T09:57:10.578Z</time>
      </trkpt>
      <trkpt lat="46.85044" lon="6.53814">
        <ele>1596.64</ele>
        <time>2020-07-14T09:57:10.578Z</time>
      </trkpt>
      <trkpt lat="46.85043" lon="6.53815">
        <ele>1596.57</ele>
        <time>2020-07-14T09:57:10.708Z</time>
      </trkpt>
      <trkpt lat="46.85043" lon="6.53817">
        <ele>1596.21</ele>
        <time>2020-07-14T09:57:10.857Z</time>
      </trkpt>
      <trkpt lat="46.85042" lon="6.53818">
        <ele>1596.1</ele>
        <time>2020-07-14T09:57:10.990Z</time>
      </trkpt>
      <trkpt lat="46.85042" lon="6.53822">
        <ele>1595.77</ele>
        <time>2020-07-14T09:57:11.289Z</time>
      </trkpt>
      <trkpt lat="46.85043" lon="6.53825">
        <ele>1595.51</ele>
        <time>2020-07-14T09:57:11.538Z</time>
      </trkpt>
      <trkpt lat="46.85045" lon="6.53829">
        <ele>1594.84</ele>
        <time>2020-07-14T09:57:11.909Z</time>
      </trkpt>
      <trkpt lat="46.8505" lon="6.53834">
        <ele>1593.84</ele>
        <time>2020-07-14T09:57:12.571Z</time>
      </trkpt>
      <trkpt lat="46.85059" lon="6.53846">
        <ele>1591.18</ele>
        <time>2020-07-14T09:57:13.903Z</time>
      </trkpt>
      <trkpt lat="46.85063" lon="6.53852">
        <ele>1590.44</ele>
        <time>2020-07-14T09:57:14.530Z</time>
      </trkpt>
      <trkpt lat="46.85065" lon="6.53859">
        <ele>1589.45</ele>
        <time>2020-07-14T09:57:15.097Z</time>
      </trkpt>
      <trkpt lat="46.85067" lon="6.53866">
        <ele>1589.08</ele>
        <time>2020-07-14T09:57:15.665Z</time>
      </trkpt>
      <trkpt lat="46.85068" lon="6.53872">
        <ele>1588.42</ele>
        <time>2020-07-14T09:57:16.126Z</time>
      </trkpt>
      <trkpt lat="46.85068" lon="6.53878">
        <ele>1587.89</ele>
        <time>2020-07-14T09:57:16.575Z</time>
      </trkpt>
      <trkpt lat="46.85068" lon="6.5388">
        <ele>1587.35</ele>
        <time>2020-07-14T09:57:16.725Z</time>
      </trkpt>
      <trkpt lat="46.85068" lon="6.53882">
        <ele>1586.92</ele>
        <time>2020-07-14T09:57:16.874Z</time>
      </trkpt>
      <trkpt lat="46.85067" lon="6.53884">
        <ele>1586.89</ele>
        <time>2020-07-14T09:57:17.144Z</time>
      </trkpt>
      <trkpt lat="46.85067" lon="6.53885">
        <ele>1586.87</ele>
        <time>2020-07-14T09:57:17.240Z</time>
      </trkpt>
      <trkpt lat="46.85065" lon="6.53889">
        <ele>1586.3</ele>
        <time>2020-07-14T09:57:17.610Z</time>
      </trkpt>
      <trkpt lat="46.85064" lon="6.53893">
        <ele>1585.76</ele>
        <time>2020-07-14T09:57:17.929Z</time>
      </trkpt>
      <trkpt lat="46.85063" lon="6.53896">
        <ele>1585.35</ele>
        <time>2020-07-14T09:57:18.179Z</time>
      </trkpt>
      <trkpt lat="46.85063" lon="6.53905">
        <ele>1584.35</ele>
        <time>2020-07-14T09:57:18.852Z</time>
      </trkpt>
      <trkpt lat="46.85064" lon="6.53921">
        <ele>1582.73</ele>
        <time>2020-07-14T09:57:20.053Z</time>
      </trkpt>
      <trkpt lat="46.85065" lon="6.53926">
        <ele>1582.15</ele>
        <time>2020-07-14T09:57:20.443Z</time>
      </trkpt>
      <trkpt lat="46.85065" lon="6.53928">
        <ele>1581.95</ele>
        <time>2020-07-14T09:57:20.592Z</time>
      </trkpt>
      <trkpt lat="46.85063" lon="6.5393">
        <ele>1581.66</ele>
        <time>2020-07-14T09:57:20.857Z</time>
      </trkpt>
      <trkpt lat="46.85061" lon="6.53932">
        <ele>1581.35</ele>
        <time>2020-07-14T09:57:21.122Z</time>
      </trkpt>
      <trkpt lat="46.85058" lon="6.53933">
        <ele>1581.06</ele>
        <time>2020-07-14T09:57:21.459Z</time>
      </trkpt>
      <trkpt lat="46.85055" lon="6.53932">
        <ele>1580.45</ele>
        <time>2020-07-14T09:57:21.795Z</time>
      </trkpt>
      <trkpt lat="46.85048" lon="6.5393">
        <ele>1579.66</ele>
        <time>2020-07-14T09:57:22.575Z</time>
      </trkpt>
      <trkpt lat="46.85031" lon="6.53924">
        <ele>1577.26</ele>
        <time>2020-07-14T09:57:24.487Z</time>
      </trkpt>
      <trkpt lat="46.85024" lon="6.53922">
        <ele>1575.86</ele>
        <time>2020-07-14T09:57:25.267Z</time>
      </trkpt>
      <trkpt lat="46.85017" lon="6.53921">
        <ele>1574.66</ele>
        <time>2020-07-14T09:57:26.036Z</time>
      </trkpt>
      <trkpt lat="46.8501" lon="6.53919">
        <ele>1572.86</ele>
        <time>2020-07-14T09:57:26.816Z</time>
      </trkpt>
      <trkpt lat="46.85008" lon="6.53919">
        <ele>1571.91</ele>
        <time>2020-07-14T09:57:27.035Z</time>
      </trkpt>
      <trkpt lat="46.85008" lon="6.53918">
        <ele>1571.91</ele>
        <time>2020-07-14T09:57:27.215Z</time>
      </trkpt>
      <trkpt lat="46.85002" lon="6.53916">
        <ele>1570.96</ele>
        <time>2020-07-14T09:57:27.887Z</time>
      </trkpt>
      <trkpt lat="46.84992" lon="6.53913">
        <ele>1568.46</ele>
        <time>2020-07-14T09:57:29.004Z</time>
      </trkpt>
      <trkpt lat="46.84983" lon="6.5391">
        <ele>1566.37</ele>
        <time>2020-07-14T09:57:30.013Z</time>
      </trkpt>
      <trkpt lat="46.84978" lon="6.53909">
        <ele>1565.27</ele>
        <time>2020-07-14T09:57:30.565Z</time>
      </trkpt>
      <trkpt lat="46.84974" lon="6.53909">
        <ele>1564.67</ele>
        <time>2020-07-14T09:57:31.002Z</time>
      </trkpt>
      <trkpt lat="46.84971" lon="6.5391">
        <ele>1564.37</ele>
        <time>2020-07-14T09:57:31.339Z</time>
      </trkpt>
      <trkpt lat="46.8497" lon="6.53911">
        <ele>1564.07</ele>
        <time>2020-07-14T09:57:31.471Z</time>
      </trkpt>
      <trkpt lat="46.84969" lon="6.53914">
        <ele>1563.47</ele>
        <time>2020-07-14T09:57:31.721Z</time>
      </trkpt>
      <trkpt lat="46.84968" lon="6.53919">
        <ele>1563.47</ele>
        <time>2020-07-14T09:57:32.656Z</time>
      </trkpt>
      <trkpt lat="46.84969" lon="6.53925">
        <ele>1563.27</ele>
        <time>2020-07-14T09:57:33.151Z</time>
      </trkpt>
      <trkpt lat="46.84972" lon="6.53931">
        <ele>1563.17</ele>
        <time>2020-07-14T09:57:33.942Z</time>
      </trkpt>
      <trkpt lat="46.84973" lon="6.53937">
        <ele>1562.77</ele>
        <time>2020-07-14T09:57:34.404Z</time>
      </trkpt>
      <trkpt lat="46.84973" lon="6.53945">
        <ele>1562.17</ele>
        <time>2020-07-14T09:57:35.003Z</time>
      </trkpt>
      <trkpt lat="46.84973" lon="6.53955">
        <ele>1560.67</ele>
        <time>2020-07-14T09:57:35.750Z</time>
      </trkpt>
      <trkpt lat="46.84973" lon="6.53969">
        <ele>1558.78</ele>
        <time>2020-07-14T09:57:36.797Z</time>
      </trkpt>
      <trkpt lat="46.84974" lon="6.53978">
        <ele>1557.66</ele>
        <time>2020-07-14T09:57:37.479Z</time>
      </trkpt>
      <trkpt lat="46.84974" lon="6.53983">
        <ele>1557.06</ele>
        <time>2020-07-14T09:57:37.853Z</time>
      </trkpt>
      <trkpt lat="46.84976" lon="6.53991">
        <ele>1556.08</ele>
        <time>2020-07-14T09:57:38.490Z</time>
      </trkpt>
      <trkpt lat="46.8498" lon="6.53999">
        <ele>1555.29</ele>
        <time>2020-07-14T09:57:39.231Z</time>
      </trkpt>
      <trkpt lat="46.84983" lon="6.54005">
        <ele>1554.91</ele>
        <time>2020-07-14T09:57:39.787Z</time>
      </trkpt>
      <trkpt lat="46.84996" lon="6.5402">
        <ele>1553.51</ele>
        <time>2020-07-14T09:57:41.598Z</time>
      </trkpt>
      <trkpt lat="46.84999" lon="6.54026">
        <ele>1552.87</ele>
        <time>2020-07-14T09:57:42.154Z</time>
      </trkpt>
      <trkpt lat="46.85002" lon="6.54032">
        <ele>1552.36</ele>
        <time>2020-07-14T09:57:42.710Z</time>
      </trkpt>
      <trkpt lat="46.85003" lon="6.54039">
        <ele>1551.5</ele>
        <time>2020-07-14T09:57:43.245Z</time>
      </trkpt>
      <trkpt lat="46.85004" lon="6.54046">
        <ele>1550.38</ele>
        <time>2020-07-14T09:57:43.779Z</time>
      </trkpt>
      <trkpt lat="46.85004" lon="6.54053">
        <ele>1549.36</ele>
        <time>2020-07-14T09:57:44.303Z</time>
      </trkpt>
      <trkpt lat="46.85003" lon="6.54057">
        <ele>1548.5</ele>
        <time>2020-07-14T09:57:44.621Z</time>
      </trkpt>
      <trkpt lat="46.85001" lon="6.54062">
        <ele>1547.81</ele>
        <time>2020-07-14T09:57:45.055Z</time>
      </trkpt>
      <trkpt lat="46.84998" lon="6.54066">
        <ele>1546.62</ele>
        <time>2020-07-14T09:57:45.499Z</time>
      </trkpt>
      <trkpt lat="46.84994" lon="6.54069">
        <ele>1545.59</ele>
        <time>2020-07-14T09:57:45.990Z</time>
      </trkpt>
      <trkpt lat="46.8499" lon="6.54071">
        <ele>1544.64</ele>
        <time>2020-07-14T09:57:46.452Z</time>
      </trkpt>
      <trkpt lat="46.84982" lon="6.54076">
        <ele>1542.59</ele>
        <time>2020-07-14T09:57:47.404Z</time>
      </trkpt>
      <trkpt lat="46.84975" lon="6.54079">
        <ele>1541.39</ele>
        <time>2020-07-14T09:57:48.202Z</time>
      </trkpt>
      <trkpt lat="46.84971" lon="6.54081">
        <ele>1540.67</ele>
        <time>2020-07-14T09:57:48.664Z</time>
      </trkpt>
      <trkpt lat="46.84967" lon="6.54084">
        <ele>1540.21</ele>
        <time>2020-07-14T09:57:49.155Z</time>
      </trkpt>
      <trkpt lat="46.84965" lon="6.54089">
        <ele>1539.43</ele>
        <time>2020-07-14T09:57:49.589Z</time>
      </trkpt>
      <trkpt lat="46.84963" lon="6.54095">
        <ele>1538.77</ele>
        <time>2020-07-14T09:57:50.088Z</time>
      </trkpt>
      <trkpt lat="46.84963" lon="6.54103">
        <ele>1538.21</ele>
        <time>2020-07-14T09:57:50.686Z</time>
      </trkpt>
      <trkpt lat="46.84964" lon="6.5411">
        <ele>1537.41</ele>
        <time>2020-07-14T09:57:51.221Z</time>
      </trkpt>
      <trkpt lat="46.84967" lon="6.54121">
        <ele>1536.57</ele>
        <time>2020-07-14T09:57:52.107Z</time>
      </trkpt>
      <trkpt lat="46.84974" lon="6.54136">
        <ele>1535.29</ele>
        <time>2020-07-14T09:57:53.465Z</time>
      </trkpt>
      <trkpt lat="46.84977" lon="6.54145">
        <ele>1534.15</ele>
        <time>2020-07-14T09:57:54.213Z</time>
      </trkpt>
      <trkpt lat="46.84977" lon="6.54144">
        <ele>1534.15</ele>
        <time>2020-07-14T09:57:54.393Z</time>
      </trkpt>
      <trkpt lat="46.84988" lon="6.5417">
        <ele>1533</ele>
        <time>2020-07-14T09:57:56.691Z</time>
      </trkpt>
      <trkpt lat="46.84994" lon="6.54188">
        <ele>1532.1</ele>
        <time>2020-07-14T09:57:58.072Z</time>
      </trkpt>
      <trkpt lat="46.84996" lon="6.54195">
        <ele>1531.81</ele>
        <time>2020-07-14T09:57:58.638Z</time>
      </trkpt>
      <trkpt lat="46.84997" lon="6.54203">
        <ele>1531.35</ele>
        <time>2020-07-14T09:57:59.247Z</time>
      </trkpt>
      <trkpt lat="46.84997" lon="6.54211">
        <ele>1530.91</ele>
        <time>2020-07-14T09:57:59.845Z</time>
      </trkpt>
      <trkpt lat="46.84997" lon="6.54218">
        <ele>1530.56</ele>
        <time>2020-07-14T09:58:00.368Z</time>
      </trkpt>
      <trkpt lat="46.84996" lon="6.54222">
        <ele>1530.22</ele>
        <time>2020-07-14T09:58:00.687Z</time>
      </trkpt>
      <trkpt lat="46.84994" lon="6.54226">
        <ele>1529.7</ele>
        <time>2020-07-14T09:58:01.057Z</time>
      </trkpt>
      <trkpt lat="46.8499" lon="6.54235">
        <ele>1529.03</ele>
        <time>2020-07-14T09:58:01.860Z</time>
      </trkpt>
      <trkpt lat="46.84983" lon="6.54245">
        <ele>1527.67</ele>
        <time>2020-07-14T09:58:02.930Z</time>
      </trkpt>
      <trkpt lat="46.84979" lon="6.54251">
        <ele>1527.1</ele>
        <time>2020-07-14T09:58:03.557Z</time>
      </trkpt>
      <trkpt lat="46.84977" lon="6.54255">
        <ele>1526.66</ele>
        <time>2020-07-14T09:58:03.928Z</time>
      </trkpt>
      <trkpt lat="46.84974" lon="6.54262">
        <ele>1526.26</ele>
        <time>2020-07-14T09:58:04.545Z</time>
      </trkpt>
      <trkpt lat="46.84973" lon="6.54267">
        <ele>1525.72</ele>
        <time>2020-07-14T09:58:04.935Z</time>
      </trkpt>
      <trkpt lat="46.84973" lon="6.54273">
        <ele>1525.17</ele>
        <time>2020-07-14T09:58:05.384Z</time>
      </trkpt>
      <trkpt lat="46.84973" lon="6.5428">
        <ele>1524.6</ele>
        <time>2020-07-14T09:58:05.907Z</time>
      </trkpt>
      <trkpt lat="46.84974" lon="6.54287">
        <ele>1523.99</ele>
        <time>2020-07-14T09:58:06.442Z</time>
      </trkpt>
      <trkpt lat="46.84977" lon="6.54305">
        <ele>1522.34</ele>
        <time>2020-07-14T09:58:07.828Z</time>
      </trkpt>
      <trkpt lat="46.84978" lon="6.54312">
        <ele>1521.47</ele>
        <time>2020-07-14T09:58:08.362Z</time>
      </trkpt>
      <trkpt lat="46.84979" lon="6.5432">
        <ele>1520.81</ele>
        <time>2020-07-14T09:58:08.971Z</time>
      </trkpt>
      <trkpt lat="46.84981" lon="6.54375">
        <ele>1516.17</ele>
        <time>2020-07-14T09:58:13.090Z</time>
      </trkpt>
      <trkpt lat="46.84981" lon="6.54383">
        <ele>1515.43</ele>
        <time>2020-07-14T09:58:13.688Z</time>
      </trkpt>
      <trkpt lat="46.8498" lon="6.54389">
        <ele>1514.44</ele>
        <time>2020-07-14T09:58:14.150Z</time>
      </trkpt>
      <trkpt lat="46.84975" lon="6.54411">
        <ele>1512.26</ele>
        <time>2020-07-14T09:58:15.884Z</time>
      </trkpt>
      <trkpt lat="46.84973" lon="6.54419">
        <ele>1511.7</ele>
        <time>2020-07-14T09:58:16.521Z</time>
      </trkpt>
      <trkpt lat="46.84972" lon="6.54427">
        <ele>1511.04</ele>
        <time>2020-07-14T09:58:17.129Z</time>
      </trkpt>
      <trkpt lat="46.84971" lon="6.54435">
        <ele>1510.39</ele>
        <time>2020-07-14T09:58:17.737Z</time>
      </trkpt>
      <trkpt lat="46.84969" lon="6.5444">
        <ele>1510.01</ele>
        <time>2020-07-14T09:58:18.170Z</time>
      </trkpt>
      <trkpt lat="46.84966" lon="6.54444">
        <ele>1509.6</ele>
        <time>2020-07-14T09:58:18.614Z</time>
      </trkpt>
      <trkpt lat="46.84963" lon="6.54445">
        <ele>1509.19</ele>
        <time>2020-07-14T09:58:18.951Z</time>
      </trkpt>
      <trkpt lat="46.84959" lon="6.54445">
        <ele>1508.86</ele>
        <time>2020-07-14T09:58:19.388Z</time>
      </trkpt>
      <trkpt lat="46.84954" lon="6.54443">
        <ele>1507.75</ele>
        <time>2020-07-14T09:58:19.955Z</time>
      </trkpt>
      <trkpt lat="46.84945" lon="6.54438">
        <ele>1505.75</ele>
        <time>2020-07-14T09:58:21.008Z</time>
      </trkpt>
      <trkpt lat="46.84932" lon="6.54433">
        <ele>1503.57</ele>
        <time>2020-07-14T09:58:22.478Z</time>
      </trkpt>
      <trkpt lat="46.84919" lon="6.54426">
        <ele>1500.96</ele>
        <time>2020-07-14T09:58:23.992Z</time>
      </trkpt>
      <trkpt lat="46.84909" lon="6.54421">
        <ele>1499.11</ele>
        <time>2020-07-14T09:58:25.148Z</time>
      </trkpt>
      <trkpt lat="46.84885" lon="6.54405">
        <ele>1496.02</ele>
        <time>2020-07-14T09:58:28.032Z</time>
      </trkpt>
      <trkpt lat="46.8488" lon="6.544">
        <ele>1495.2</ele>
        <time>2020-07-14T09:58:28.695Z</time>
      </trkpt>
      <trkpt lat="46.84879" lon="6.544">
        <ele>1495.2</ele>
        <time>2020-07-14T09:58:28.957Z</time>
      </trkpt>
      <trkpt lat="46.84863" lon="6.54388">
        <ele>1494.37</ele>
        <time>2020-07-14T09:58:31.090Z</time>
      </trkpt>
      <trkpt lat="46.84843" lon="6.54371">
        <ele>1493.45</ele>
        <time>2020-07-14T09:58:34.001Z</time>
      </trkpt>
      <trkpt lat="46.84829" lon="6.54359">
        <ele>1492.53</ele>
        <time>2020-07-14T09:58:35.760Z</time>
      </trkpt>
      <trkpt lat="46.84805" lon="6.54337">
        <ele>1491.12</ele>
        <time>2020-07-14T09:58:39.014Z</time>
      </trkpt>
      <trkpt lat="46.84773" lon="6.5431">
        <ele>1488.83</ele>
        <time>2020-07-14T09:58:42.852Z</time>
      </trkpt>
      <trkpt lat="46.84763" lon="6.54302">
        <ele>1486.49</ele>
        <time>2020-07-14T09:58:44.098Z</time>
      </trkpt>
      <trkpt lat="46.84723" lon="6.54273">
        <ele>1479.58</ele>
        <time>2020-07-14T09:58:48.980Z</time>
      </trkpt>
      <trkpt lat="46.84714" lon="6.54267">
        <ele>1478.57</ele>
        <time>2020-07-14T09:58:50.062Z</time>
      </trkpt>
      <trkpt lat="46.84697" lon="6.54259">
        <ele>1476.74</ele>
        <time>2020-07-14T09:58:52.015Z</time>
      </trkpt>
      <trkpt lat="46.8469" lon="6.54254">
        <ele>1476.38</ele>
        <time>2020-07-14T09:58:52.938Z</time>
      </trkpt>
      <trkpt lat="46.84684" lon="6.5425">
        <ele>1476.04</ele>
        <time>2020-07-14T09:58:53.684Z</time>
      </trkpt>
      <trkpt lat="46.84677" lon="6.54244">
        <ele>1475.64</ele>
        <time>2020-07-14T09:58:54.621Z</time>
      </trkpt>
      <trkpt lat="46.84669" lon="6.54235">
        <ele>1475.32</ele>
        <time>2020-07-14T09:58:55.996Z</time>
      </trkpt>
      <trkpt lat="46.8466" lon="6.54223">
        <ele>1474.84</ele>
        <time>2020-07-14T09:58:57.534Z</time>
      </trkpt>
      <trkpt lat="46.84647" lon="6.54206">
        <ele>1474.99</ele>
        <time>2020-07-14T09:59:02.502Z</time>
      </trkpt>
      <trkpt lat="46.84642" lon="6.54201">
        <ele>1474.89</ele>
        <time>2020-07-14T09:59:03.481Z</time>
      </trkpt>
      <trkpt lat="46.84637" lon="6.54197">
        <ele>1474.38</ele>
        <time>2020-07-14T09:59:04.104Z</time>
      </trkpt>
      <trkpt lat="46.8463" lon="6.54193">
        <ele>1473.45</ele>
        <time>2020-07-14T09:59:04.926Z</time>
      </trkpt>
      <trkpt lat="46.84622" lon="6.54189">
        <ele>1472.73</ele>
        <time>2020-07-14T09:59:05.851Z</time>
      </trkpt>
      <trkpt lat="46.84615" lon="6.54184">
        <ele>1471.78</ele>
        <time>2020-07-14T09:59:06.703Z</time>
      </trkpt>
      <trkpt lat="46.84608" lon="6.54178">
        <ele>1471.16</ele>
        <time>2020-07-14T09:59:07.590Z</time>
      </trkpt>
      <trkpt lat="46.84597" lon="6.54165">
        <ele>1470.22</ele>
        <time>2020-07-14T09:59:09.009Z</time>
      </trkpt>
      <trkpt lat="46.8459" lon="6.54158">
        <ele>1469.53</ele>
        <time>2020-07-14T09:59:09.936Z</time>
      </trkpt>
      <trkpt lat="46.84576" lon="6.54146">
        <ele>1467.81</ele>
        <time>2020-07-14T09:59:11.711Z</time>
      </trkpt>
      <trkpt lat="46.84566" lon="6.54136">
        <ele>1466.58</ele>
        <time>2020-07-14T09:59:13.036Z</time>
      </trkpt>
      <trkpt lat="46.8456" lon="6.54131">
        <ele>1465.64</ele>
        <time>2020-07-14T09:59:13.791Z</time>
      </trkpt>
      <trkpt lat="46.84555" lon="6.54128">
        <ele>1465.03</ele>
        <time>2020-07-14T09:59:14.382Z</time>
      </trkpt>
      <trkpt lat="46.8455" lon="6.54126">
        <ele>1464.13</ele>
        <time>2020-07-14T09:59:14.949Z</time>
      </trkpt>
      <trkpt lat="46.84544" lon="6.54124">
        <ele>1463.51</ele>
        <time>2020-07-14T09:59:15.622Z</time>
      </trkpt>
      <trkpt lat="46.84526" lon="6.54118">
        <ele>1461.24</ele>
        <time>2020-07-14T09:59:17.641Z</time>
      </trkpt>
      <trkpt lat="46.8452" lon="6.54117">
        <ele>1460.46</ele>
        <time>2020-07-14T09:59:18.301Z</time>
      </trkpt>
      <trkpt lat="46.84511" lon="6.54117">
        <ele>1459.65</ele>
        <time>2020-07-14T09:59:19.285Z</time>
      </trkpt>
      <trkpt lat="46.84502" lon="6.54117">
        <ele>1458.48</ele>
        <time>2020-07-14T09:59:20.269Z</time>
      </trkpt>
      <trkpt lat="46.84486" lon="6.54119">
        <ele>1457.06</ele>
        <time>2020-07-14T09:59:22.025Z</time>
      </trkpt>
      <trkpt lat="46.84469" lon="6.54119">
        <ele>1455.8</ele>
        <time>2020-07-14T09:59:23.884Z</time>
      </trkpt>
      <trkpt lat="46.84459" lon="6.54119">
        <ele>1455.39</ele>
        <time>2020-07-14T09:59:25.128Z</time>
      </trkpt>
      <trkpt lat="46.84447" lon="6.54118">
        <ele>1453.85</ele>
        <time>2020-07-14T09:59:26.442Z</time>
      </trkpt>
      <trkpt lat="46.84424" lon="6.54113">
        <ele>1451.48</ele>
        <time>2020-07-14T09:59:28.985Z</time>
      </trkpt>
      <trkpt lat="46.84419" lon="6.54112">
        <ele>1451.15</ele>
        <time>2020-07-14T09:59:29.496Z</time>
      </trkpt>
      <trkpt lat="46.84412" lon="6.54112">
        <ele>1450.67</ele>
        <time>2020-07-14T09:59:30.261Z</time>
      </trkpt>
      <trkpt lat="46.84381" lon="6.54106">
        <ele>1448.42</ele>
        <time>2020-07-14T09:59:33.681Z</time>
      </trkpt>
      <trkpt lat="46.84373" lon="6.54104">
        <ele>1447.59</ele>
        <time>2020-07-14T09:59:34.568Z</time>
      </trkpt>
      <trkpt lat="46.84372" lon="6.54104">
        <ele>1447.59</ele>
        <time>2020-07-14T09:59:34.830Z</time>
      </trkpt>
      <trkpt lat="46.8437" lon="6.54103">
        <ele>1446.77</ele>
        <time>2020-07-14T09:59:35.062Z</time>
      </trkpt>
      <trkpt lat="46.84361" lon="6.54101">
        <ele>1445.67</ele>
        <time>2020-07-14T09:59:36.057Z</time>
      </trkpt>
      <trkpt lat="46.84352" lon="6.54097">
        <ele>1444.87</ele>
        <time>2020-07-14T09:59:37.086Z</time>
      </trkpt>
      <trkpt lat="46.84341" lon="6.54092">
        <ele>1443.77</ele>
        <time>2020-07-14T09:59:38.345Z</time>
      </trkpt>
      <trkpt lat="46.84333" lon="6.54087">
        <ele>1442.97</ele>
        <time>2020-07-14T09:59:39.297Z</time>
      </trkpt>
      <trkpt lat="46.84326" lon="6.54082">
        <ele>1442.17</ele>
        <time>2020-07-14T09:59:40.149Z</time>
      </trkpt>
      <trkpt lat="46.84318" lon="6.54075">
        <ele>1441.27</ele>
        <time>2020-07-14T09:59:41.168Z</time>
      </trkpt>
      <trkpt lat="46.84312" lon="6.54069">
        <ele>1440.47</ele>
        <time>2020-07-14T09:59:41.963Z</time>
      </trkpt>
      <trkpt lat="46.84307" lon="6.54065">
        <ele>1439.78</ele>
        <time>2020-07-14T09:59:42.586Z</time>
      </trkpt>
      <trkpt lat="46.84302" lon="6.54063">
        <ele>1439.38</ele>
        <time>2020-07-14T09:59:43.153Z</time>
      </trkpt>
      <trkpt lat="46.84299" lon="6.54063">
        <ele>1438.98</ele>
        <time>2020-07-14T09:59:43.481Z</time>
      </trkpt>
      <trkpt lat="46.84295" lon="6.54066">
        <ele>1438.28</ele>
        <time>2020-07-14T09:59:43.973Z</time>
      </trkpt>
      <trkpt lat="46.84289" lon="6.54072">
        <ele>1437.08</ele>
        <time>2020-07-14T09:59:44.768Z</time>
      </trkpt>
      <trkpt lat="46.84287" lon="6.54075">
        <ele>1437.42</ele>
        <time>2020-07-14T09:59:47.157Z</time>
      </trkpt>
      <trkpt lat="46.84283" lon="6.54082">
        <ele>1436.6</ele>
        <time>2020-07-14T09:59:47.840Z</time>
      </trkpt>
      <trkpt lat="46.84272" lon="6.54101">
        <ele>1434.4</ele>
        <time>2020-07-14T09:59:49.701Z</time>
      </trkpt>
      <trkpt lat="46.8427" lon="6.54104">
        <ele>1433.98</ele>
        <time>2020-07-14T09:59:50.015Z</time>
      </trkpt>
      <trkpt lat="46.84268" lon="6.54106">
        <ele>1433.51</ele>
        <time>2020-07-14T09:59:50.280Z</time>
      </trkpt>
      <trkpt lat="46.84266" lon="6.54107">
        <ele>1433.2</ele>
        <time>2020-07-14T09:59:50.511Z</time>
      </trkpt>
      <trkpt lat="46.84263" lon="6.54106">
        <ele>1432.57</ele>
        <time>2020-07-14T09:59:50.847Z</time>
      </trkpt>
      <trkpt lat="46.8426" lon="6.54104">
        <ele>1432.33</ele>
        <time>2020-07-14T09:59:51.208Z</time>
      </trkpt>
      <trkpt lat="46.84242" lon="6.5408">
        <ele>1429.4</ele>
        <time>2020-07-14T09:59:53.872Z</time>
      </trkpt>
      <trkpt lat="46.84236" lon="6.5407">
        <ele>1428.18</ele>
        <time>2020-07-14T09:59:54.867Z</time>
      </trkpt>
      <trkpt lat="46.84234" lon="6.54064">
        <ele>1427.47</ele>
        <time>2020-07-14T09:59:55.366Z</time>
      </trkpt>
      <trkpt lat="46.84226" lon="6.54046">
        <ele>1425.7</ele>
        <time>2020-07-14T09:59:56.972Z</time>
      </trkpt>
      <trkpt lat="46.84217" lon="6.54027">
        <ele>1423.78</ele>
        <time>2020-07-14T09:59:58.700Z</time>
      </trkpt>
      <trkpt lat="46.84215" lon="6.54022">
        <ele>1423.41</ele>
        <time>2020-07-14T09:59:59.134Z</time>
      </trkpt>
      <trkpt lat="46.84211" lon="6.54017">
        <ele>1422.78</ele>
        <time>2020-07-14T09:59:59.709Z</time>
      </trkpt>
      <trkpt lat="46.84207" lon="6.54011">
        <ele>1422.35</ele>
        <time>2020-07-14T10:00:00.336Z</time>
      </trkpt>
      <trkpt lat="46.84196" lon="6.54">
        <ele>1420.98</ele>
        <time>2020-07-14T10:00:01.793Z</time>
      </trkpt>
      <trkpt lat="46.84175" lon="6.53978">
        <ele>1418.04</ele>
        <time>2020-07-14T10:00:04.618Z</time>
      </trkpt>
      <trkpt lat="46.84166" lon="6.53969">
        <ele>1416.92</ele>
        <time>2020-07-14T10:00:05.811Z</time>
      </trkpt>
      <trkpt lat="46.84166" lon="6.53968">
        <ele>1416.92</ele>
        <time>2020-07-14T10:00:05.990Z</time>
      </trkpt>
      <trkpt lat="46.84155" lon="6.53957">
        <ele>1415.8</ele>
        <time>2020-07-14T10:00:07.447Z</time>
      </trkpt>
      <trkpt lat="46.84137" lon="6.53939">
        <ele>1414.06</ele>
        <time>2020-07-14T10:00:09.832Z</time>
      </trkpt>
      <trkpt lat="46.84127" lon="6.53929">
        <ele>1412.73</ele>
        <time>2020-07-14T10:00:11.157Z</time>
      </trkpt>
      <trkpt lat="46.84109" lon="6.53915">
        <ele>1411.23</ele>
        <time>2020-07-14T10:00:13.386Z</time>
      </trkpt>
      <trkpt lat="46.84094" lon="6.53902">
        <ele>1409.37</ele>
        <time>2020-07-14T10:00:15.293Z</time>
      </trkpt>
      <trkpt lat="46.84086" lon="6.53895">
        <ele>1409.07</ele>
        <time>2020-07-14T10:00:16.558Z</time>
      </trkpt>
      <trkpt lat="46.84072" lon="6.5388">
        <ele>1407.45</ele>
        <time>2020-07-14T10:00:18.456Z</time>
      </trkpt>
      <trkpt lat="46.84063" lon="6.53871">
        <ele>1406.33</ele>
        <time>2020-07-14T10:00:19.648Z</time>
      </trkpt>
      <trkpt lat="46.84036" lon="6.53842">
        <ele>1402.18</ele>
        <time>2020-07-14T10:00:23.312Z</time>
      </trkpt>
      <trkpt lat="46.84027" lon="6.53833">
        <ele>1400.96</ele>
        <time>2020-07-14T10:00:24.504Z</time>
      </trkpt>
      <trkpt lat="46.84023" lon="6.5383">
        <ele>1400.37</ele>
        <time>2020-07-14T10:00:24.996Z</time>
      </trkpt>
      <trkpt lat="46.8402" lon="6.53828">
        <ele>1399.85</ele>
        <time>2020-07-14T10:00:25.357Z</time>
      </trkpt>
      <trkpt lat="46.84016" lon="6.53827">
        <ele>1399.31</ele>
        <time>2020-07-14T10:00:25.800Z</time>
      </trkpt>
      <trkpt lat="46.84011" lon="6.53828">
        <ele>1398.84</ele>
        <time>2020-07-14T10:00:26.352Z</time>
      </trkpt>
      <trkpt lat="46.84008" lon="6.53828">
        <ele>1398.23</ele>
        <time>2020-07-14T10:00:26.680Z</time>
      </trkpt>
      <trkpt lat="46.84007" lon="6.53835">
        <ele>1397.82</ele>
        <time>2020-07-14T10:00:27.215Z</time>
      </trkpt>
      <trkpt lat="46.84006" lon="6.53843">
        <ele>1397.2</ele>
        <time>2020-07-14T10:00:27.823Z</time>
      </trkpt>
      <trkpt lat="46.84005" lon="6.53851">
        <ele>1396.29</ele>
        <time>2020-07-14T10:00:28.432Z</time>
      </trkpt>
      <trkpt lat="46.84004" lon="6.53859">
        <ele>1395.83</ele>
        <time>2020-07-14T10:00:29.040Z</time>
      </trkpt>
      <trkpt lat="46.84002" lon="6.53891">
        <ele>1394.57</ele>
        <time>2020-07-14T10:00:31.410Z</time>
      </trkpt>
      <trkpt lat="46.84002" lon="6.53891">
        <ele>1394.57</ele>
        <time>2020-07-14T10:00:31.410Z</time>
      </trkpt>
      <trkpt lat="46.84002" lon="6.53892">
        <ele>1393.32</ele>
        <time>2020-07-14T10:00:31.485Z</time>
      </trkpt>
      <trkpt lat="46.83999" lon="6.53934">
        <ele>1390.02</ele>
        <time>2020-07-14T10:00:34.643Z</time>
      </trkpt>
      <trkpt lat="46.83997" lon="6.53956">
        <ele>1388.34</ele>
        <time>2020-07-14T10:00:36.303Z</time>
      </trkpt>
      <trkpt lat="46.83995" lon="6.53976">
        <ele>1386.94</ele>
        <time>2020-07-14T10:00:37.815Z</time>
      </trkpt>
      <trkpt lat="46.8399" lon="6.54027">
        <ele>1383.02</ele>
        <time>2020-07-14T10:00:41.669Z</time>
      </trkpt>
      <trkpt lat="46.83988" lon="6.54035">
        <ele>1382.34</ele>
        <time>2020-07-14T10:00:42.306Z</time>
      </trkpt>
      <trkpt lat="46.83986" lon="6.54042">
        <ele>1381.64</ele>
        <time>2020-07-14T10:00:42.874Z</time>
      </trkpt>
      <trkpt lat="46.83982" lon="6.54048">
        <ele>1381.17</ele>
        <time>2020-07-14T10:00:43.500Z</time>
      </trkpt>
      <trkpt lat="46.83979" lon="6.54051">
        <ele>1380.71</ele>
        <time>2020-07-14T10:00:43.898Z</time>
      </trkpt>
      <trkpt lat="46.83974" lon="6.54055">
        <ele>1380.14</ele>
        <time>2020-07-14T10:00:44.521Z</time>
      </trkpt>
      <trkpt lat="46.83969" lon="6.54057">
        <ele>1379.4</ele>
        <time>2020-07-14T10:00:45.088Z</time>
      </trkpt>
      <trkpt lat="46.83963" lon="6.54058">
        <ele>1378.48</ele>
        <time>2020-07-14T10:00:45.748Z</time>
      </trkpt>
      <trkpt lat="46.83954" lon="6.54058">
        <ele>1377.55</ele>
        <time>2020-07-14T10:00:46.732Z</time>
      </trkpt>
      <trkpt lat="46.83932" lon="6.54058">
        <ele>1374.76</ele>
        <time>2020-07-14T10:00:49.138Z</time>
      </trkpt>
      <trkpt lat="46.83928" lon="6.54057">
        <ele>1374.55</ele>
        <time>2020-07-14T10:00:49.596Z</time>
      </trkpt>
      <trkpt lat="46.83924" lon="6.54056">
        <ele>1373.99</ele>
        <time>2020-07-14T10:00:50.040Z</time>
      </trkpt>
      <trkpt lat="46.83919" lon="6.54053">
        <ele>1373.31</ele>
        <time>2020-07-14T10:00:50.631Z</time>
      </trkpt>
      <trkpt lat="46.83918" lon="6.54053">
        <ele>1372.82</ele>
        <time>2020-07-14T10:00:50.741Z</time>
      </trkpt>
      <trkpt lat="46.83912" lon="6.54049">
        <ele>1372.33</ele>
        <time>2020-07-14T10:00:51.462Z</time>
      </trkpt>
      <trkpt lat="46.83907" lon="6.54045">
        <ele>1371.52</ele>
        <time>2020-07-14T10:00:52.085Z</time>
      </trkpt>
      <trkpt lat="46.83903" lon="6.54041">
        <ele>1370.72</ele>
        <time>2020-07-14T10:00:52.615Z</time>
      </trkpt>
      <trkpt lat="46.83898" lon="6.54037">
        <ele>1370.39</ele>
        <time>2020-07-14T10:00:53.227Z</time>
      </trkpt>
      <trkpt lat="46.83892" lon="6.54029">
        <ele>1369.27</ele>
        <time>2020-07-14T10:00:54.115Z</time>
      </trkpt>
      <trkpt lat="46.83887" lon="6.54023">
        <ele>1368.33</ele>
        <time>2020-07-14T10:00:54.822Z</time>
      </trkpt>
      <trkpt lat="46.83884" lon="6.54018">
        <ele>1367.89</ele>
        <time>2020-07-14T10:00:55.319Z</time>
      </trkpt>
      <trkpt lat="46.83871" lon="6.53993">
        <ele>1365.25</ele>
        <time>2020-07-14T10:00:57.668Z</time>
      </trkpt>
      <trkpt lat="46.83862" lon="6.53977">
        <ele>1363.6</ele>
        <time>2020-07-14T10:00:59.218Z</time>
      </trkpt>
      <trkpt lat="46.83852" lon="6.53957">
        <ele>1361.39</ele>
        <time>2020-07-14T10:01:01.071Z</time>
      </trkpt>
      <trkpt lat="46.83849" lon="6.53951">
        <ele>1360.71</ele>
        <time>2020-07-14T10:01:01.627Z</time>
      </trkpt>
      <trkpt lat="46.83844" lon="6.53943">
        <ele>1360.03</ele>
        <time>2020-07-14T10:01:02.438Z</time>
      </trkpt>
      <trkpt lat="46.83841" lon="6.53939">
        <ele>1359.25</ele>
        <time>2020-07-14T10:01:02.882Z</time>
      </trkpt>
      <trkpt lat="46.83836" lon="6.53933">
        <ele>1358.5</ele>
        <time>2020-07-14T10:01:03.589Z</time>
      </trkpt>
      <trkpt lat="46.8383" lon="6.53927">
        <ele>1357.67</ele>
        <time>2020-07-14T10:01:04.384Z</time>
      </trkpt>
      <trkpt lat="46.83822" lon="6.53917">
        <ele>1356.6</ele>
        <time>2020-07-14T10:01:05.535Z</time>
      </trkpt>
      <trkpt lat="46.83816" lon="6.53911">
        <ele>1356</ele>
        <time>2020-07-14T10:01:06.330Z</time>
      </trkpt>
      <trkpt lat="46.83805" lon="6.53902">
        <ele>1354.71</ele>
        <time>2020-07-14T10:01:07.708Z</time>
      </trkpt>
      <trkpt lat="46.83797" lon="6.53898">
        <ele>1354.16</ele>
        <time>2020-07-14T10:01:08.566Z</time>
      </trkpt>
      <trkpt lat="46.83788" lon="6.53894">
        <ele>1353.36</ele>
        <time>2020-07-14T10:01:09.594Z</time>
      </trkpt>
      <trkpt lat="46.83779" lon="6.53888">
        <ele>1352.43</ele>
        <time>2020-07-14T10:01:10.676Z</time>
      </trkpt>
      <trkpt lat="46.83748" lon="6.53863">
        <ele>1350.55</ele>
        <time>2020-07-14T10:01:14.629Z</time>
      </trkpt>
      <trkpt lat="46.83747" lon="6.53862">
        <ele>1350.55</ele>
        <time>2020-07-14T10:01:14.947Z</time>
      </trkpt>
      <trkpt lat="46.83745" lon="6.53861">
        <ele>1348.68</ele>
        <time>2020-07-14T10:01:15.178Z</time>
      </trkpt>
      <trkpt lat="46.83738" lon="6.53856">
        <ele>1347.9</ele>
        <time>2020-07-14T10:01:16.030Z</time>
      </trkpt>
      <trkpt lat="46.83714" lon="6.53844">
        <ele>1344.97</ele>
        <time>2020-07-14T10:01:18.804Z</time>
      </trkpt>
      <trkpt lat="46.83657" lon="6.53817">
        <ele>1339.32</ele>
        <time>2020-07-14T10:01:25.356Z</time>
      </trkpt>
      <trkpt lat="46.83644" lon="6.5381">
        <ele>1338.04</ele>
        <time>2020-07-14T10:01:26.871Z</time>
      </trkpt>
      <trkpt lat="46.83634" lon="6.53806">
        <ele>1336.94</ele>
        <time>2020-07-14T10:01:28.005Z</time>
      </trkpt>
      <trkpt lat="46.83631" lon="6.53805">
        <ele>1336.59</ele>
        <time>2020-07-14T10:01:28.341Z</time>
      </trkpt>
      <trkpt lat="46.83627" lon="6.53806">
        <ele>1336.24</ele>
        <time>2020-07-14T10:01:28.785Z</time>
      </trkpt>
      <trkpt lat="46.83624" lon="6.53807">
        <ele>1335.91</ele>
        <time>2020-07-14T10:01:29.121Z</time>
      </trkpt>
      <trkpt lat="46.83621" lon="6.53811">
        <ele>1335.56</ele>
        <time>2020-07-14T10:01:29.565Z</time>
      </trkpt>
      <trkpt lat="46.83618" lon="6.53815">
        <ele>1335.01</ele>
        <time>2020-07-14T10:01:30.009Z</time>
      </trkpt>
      <trkpt lat="46.83617" lon="6.53822">
        <ele>1334.71</ele>
        <time>2020-07-14T10:01:30.520Z</time>
      </trkpt>
      <trkpt lat="46.83617" lon="6.53828">
        <ele>1334.36</ele>
        <time>2020-07-14T10:01:30.969Z</time>
      </trkpt>
      <trkpt lat="46.83619" lon="6.53839">
        <ele>1333.61</ele>
        <time>2020-07-14T10:01:31.820Z</time>
      </trkpt>
      <trkpt lat="46.83619" lon="6.53842">
        <ele>1333.44</ele>
        <time>2020-07-14T10:01:32.045Z</time>
      </trkpt>
      <trkpt lat="46.83619" lon="6.53841">
        <ele>1333.44</ele>
        <time>2020-07-14T10:01:32.224Z</time>
      </trkpt>
      <trkpt lat="46.83621" lon="6.5385">
        <ele>1333.27</ele>
        <time>2020-07-14T10:01:33.159Z</time>
      </trkpt>
      <trkpt lat="46.83623" lon="6.53858">
        <ele>1332.46</ele>
        <time>2020-07-14T10:01:33.796Z</time>
      </trkpt>
      <trkpt lat="46.83625" lon="6.53872">
        <ele>1331.62</ele>
        <time>2020-07-14T10:01:34.866Z</time>
      </trkpt>
      <trkpt lat="46.83628" lon="6.53886">
        <ele>1330.51</ele>
        <time>2020-07-14T10:01:35.964Z</time>
      </trkpt>
      <trkpt lat="46.83632" lon="6.53899">
        <ele>1329.24</ele>
        <time>2020-07-14T10:01:37.030Z</time>
      </trkpt>
      <trkpt lat="46.8364" lon="6.53916">
        <ele>1327.67</ele>
        <time>2020-07-14T10:01:38.573Z</time>
      </trkpt>
      <trkpt lat="46.83643" lon="6.53927">
        <ele>1326.81</ele>
        <time>2020-07-14T10:01:39.459Z</time>
      </trkpt>
      <trkpt lat="46.83644" lon="6.53934">
        <ele>1326.34</ele>
        <time>2020-07-14T10:01:39.994Z</time>
      </trkpt>
      <trkpt lat="46.83645" lon="6.53945">
        <ele>1325.62</ele>
        <time>2020-07-14T10:01:40.824Z</time>
      </trkpt>
      <trkpt lat="46.83645" lon="6.53959">
        <ele>1324.73</ele>
        <time>2020-07-14T10:01:41.871Z</time>
      </trkpt>
      <trkpt lat="46.83646" lon="6.54005">
        <ele>1322.21</ele>
        <time>2020-07-14T10:01:45.314Z</time>
      </trkpt>
      <trkpt lat="46.83646" lon="6.54016">
        <ele>1321.6</ele>
        <time>2020-07-14T10:01:46.137Z</time>
      </trkpt>
      <trkpt lat="46.83644" lon="6.54029">
        <ele>1321.04</ele>
        <time>2020-07-14T10:01:47.088Z</time>
      </trkpt>
      <trkpt lat="46.83643" lon="6.5404">
        <ele>1320.27</ele>
        <time>2020-07-14T10:01:47.918Z</time>
      </trkpt>
      <trkpt lat="46.83635" lon="6.54076">
        <ele>1318.39</ele>
        <time>2020-07-14T10:01:50.750Z</time>
      </trkpt>
      <trkpt lat="46.83635" lon="6.54076">
        <ele>1318.39</ele>
        <time>2020-07-14T10:01:50.750Z</time>
      </trkpt>
      <trkpt lat="46.83627" lon="6.54113">
        <ele>1316.52</ele>
        <time>2020-07-14T10:01:53.652Z</time>
      </trkpt>
      <trkpt lat="46.83621" lon="6.54136">
        <ele>1315.4</ele>
        <time>2020-07-14T10:01:55.341Z</time>
      </trkpt>
      <trkpt lat="46.83619" lon="6.54149">
        <ele>1314.88</ele>
        <time>2020-07-14T10:01:56.326Z</time>
      </trkpt>
      <trkpt lat="46.83618" lon="6.5416">
        <ele>1314.34</ele>
        <time>2020-07-14T10:01:57.156Z</time>
      </trkpt>
      <trkpt lat="46.83618" lon="6.5417">
        <ele>1313.43</ele>
        <time>2020-07-14T10:01:57.904Z</time>
      </trkpt>
      <trkpt lat="46.83618" lon="6.54178">
        <ele>1312.94</ele>
        <time>2020-07-14T10:01:58.503Z</time>
      </trkpt>
      <trkpt lat="46.83621" lon="6.54194">
        <ele>1311.66</ele>
        <time>2020-07-14T10:01:59.744Z</time>
      </trkpt>
      <trkpt lat="46.83625" lon="6.54222">
        <ele>1310.7</ele>
        <time>2020-07-14T10:02:02.006Z</time>
      </trkpt>
      <trkpt lat="46.83625" lon="6.54221">
        <ele>1310.7</ele>
        <time>2020-07-14T10:02:02.185Z</time>
      </trkpt>
      <trkpt lat="46.83625" lon="6.54225">
        <ele>1309.74</ele>
        <time>2020-07-14T10:02:02.485Z</time>
      </trkpt>
      <trkpt lat="46.83628" lon="6.54246">
        <ele>1308.18</ele>
        <time>2020-07-14T10:02:04.089Z</time>
      </trkpt>
      <trkpt lat="46.83628" lon="6.54255">
        <ele>1307.49</ele>
        <time>2020-07-14T10:02:04.763Z</time>
      </trkpt>
      <trkpt lat="46.83626" lon="6.54263">
        <ele>1307.01</ele>
        <time>2020-07-14T10:02:05.400Z</time>
      </trkpt>
      <trkpt lat="46.83624" lon="6.54269">
        <ele>1306.54</ele>
        <time>2020-07-14T10:02:05.899Z</time>
      </trkpt>
      <trkpt lat="46.8362" lon="6.54276">
        <ele>1305.84</ele>
        <time>2020-07-14T10:02:06.581Z</time>
      </trkpt>
      <trkpt lat="46.83615" lon="6.5428">
        <ele>1305.08</ele>
        <time>2020-07-14T10:02:07.205Z</time>
      </trkpt>
      <trkpt lat="46.83605" lon="6.54284">
        <ele>1304.19</ele>
        <time>2020-07-14T10:02:08.338Z</time>
      </trkpt>
      <trkpt lat="46.836" lon="6.54283">
        <ele>1303.56</ele>
        <time>2020-07-14T10:02:08.890Z</time>
      </trkpt>
      <trkpt lat="46.83594" lon="6.54281">
        <ele>1302.88</ele>
        <time>2020-07-14T10:02:09.563Z</time>
      </trkpt>
      <trkpt lat="46.83588" lon="6.54278">
        <ele>1302.22</ele>
        <time>2020-07-14T10:02:10.257Z</time>
      </trkpt>
      <trkpt lat="46.83585" lon="6.54275">
        <ele>1301.91</ele>
        <time>2020-07-14T10:02:10.654Z</time>
      </trkpt>
      <trkpt lat="46.83584" lon="6.54275">
        <ele>1301.91</ele>
        <time>2020-07-14T10:02:10.916Z</time>
      </trkpt>
      <trkpt lat="46.83583" lon="6.54274">
        <ele>1301.6</ele>
        <time>2020-07-14T10:02:11.049Z</time>
      </trkpt>
      <trkpt lat="46.83579" lon="6.54271">
        <ele>1301.17</ele>
        <time>2020-07-14T10:02:11.541Z</time>
      </trkpt>
      <trkpt lat="46.83573" lon="6.54268">
        <ele>1300.44</ele>
        <time>2020-07-14T10:02:12.234Z</time>
      </trkpt>
      <trkpt lat="46.83569" lon="6.54265">
        <ele>1300.04</ele>
        <time>2020-07-14T10:02:12.726Z</time>
      </trkpt>
      <trkpt lat="46.83566" lon="6.54262">
        <ele>1299.64</ele>
        <time>2020-07-14T10:02:13.123Z</time>
      </trkpt>
      <trkpt lat="46.8356" lon="6.54255">
        <ele>1298.95</ele>
        <time>2020-07-14T10:02:13.962Z</time>
      </trkpt>
      <trkpt lat="46.83558" lon="6.54252">
        <ele>1298.75</ele>
        <time>2020-07-14T10:02:14.276Z</time>
      </trkpt>
      <trkpt lat="46.83551" lon="6.54238">
        <ele>1297.48</ele>
        <time>2020-07-14T10:02:15.573Z</time>
      </trkpt>
      <trkpt lat="46.83539" lon="6.54212">
        <ele>1295.73</ele>
        <time>2020-07-14T10:02:17.919Z</time>
      </trkpt>
      <trkpt lat="46.83522" lon="6.54182">
        <ele>1293.97</ele>
        <time>2020-07-14T10:02:20.602Z</time>
      </trkpt>
      <trkpt lat="46.83509" lon="6.54163">
        <ele>1292.59</ele>
        <time>2020-07-14T10:02:22.612Z</time>
      </trkpt>
      <trkpt lat="46.83492" lon="6.54134">
        <ele>1290.16</ele>
        <time>2020-07-14T10:02:25.469Z</time>
      </trkpt>
      <trkpt lat="46.83482" lon="6.54119">
        <ele>1289.31</ele>
        <time>2020-07-14T10:02:26.989Z</time>
      </trkpt>
      <trkpt lat="46.83482" lon="6.54118">
        <ele>1289.31</ele>
        <time>2020-07-14T10:02:27.168Z</time>
      </trkpt>
      <trkpt lat="46.83481" lon="6.54117">
        <ele>1288.46</ele>
        <time>2020-07-14T10:02:27.301Z</time>
      </trkpt>
      <trkpt lat="46.83473" lon="6.54106">
        <ele>1287.34</ele>
        <time>2020-07-14T10:02:28.502Z</time>
      </trkpt>
      <trkpt lat="46.8346" lon="6.54092">
        <ele>1285.84</ele>
        <time>2020-07-14T10:02:30.267Z</time>
      </trkpt>
      <trkpt lat="46.83448" lon="6.54078">
        <ele>1284.52</ele>
        <time>2020-07-14T10:02:31.946Z</time>
      </trkpt>
      <trkpt lat="46.83443" lon="6.54073">
        <ele>1284.09</ele>
        <time>2020-07-14T10:02:32.609Z</time>
      </trkpt>
      <trkpt lat="46.83437" lon="6.54069">
        <ele>1283.47</ele>
        <time>2020-07-14T10:02:33.330Z</time>
      </trkpt>
      <trkpt lat="46.83431" lon="6.54065">
        <ele>1282.97</ele>
        <time>2020-07-14T10:02:34.051Z</time>
      </trkpt>
      <trkpt lat="46.83424" lon="6.54062">
        <ele>1282.47</ele>
        <time>2020-07-14T10:02:34.849Z</time>
      </trkpt>
      <trkpt lat="46.83414" lon="6.54057">
        <ele>1281.49</ele>
        <time>2020-07-14T10:02:36.004Z</time>
      </trkpt>
      <trkpt lat="46.83406" lon="6.54054">
        <ele>1280.86</ele>
        <time>2020-07-14T10:02:36.908Z</time>
      </trkpt>
      <trkpt lat="46.83399" lon="6.54054">
        <ele>1279.94</ele>
        <time>2020-07-14T10:02:37.673Z</time>
      </trkpt>
      <trkpt lat="46.83397" lon="6.54055">
        <ele>1279.66</ele>
        <time>2020-07-14T10:02:37.904Z</time>
      </trkpt>
      <trkpt lat="46.83393" lon="6.54058">
        <ele>1279.56</ele>
        <time>2020-07-14T10:02:38.583Z</time>
      </trkpt>
      <trkpt lat="46.83391" lon="6.54064">
        <ele>1279.06</ele>
        <time>2020-07-14T10:02:39.082Z</time>
      </trkpt>
      <trkpt lat="46.8339" lon="6.5407">
        <ele>1278.68</ele>
        <time>2020-07-14T10:02:39.544Z</time>
      </trkpt>
      <trkpt lat="46.8339" lon="6.54079">
        <ele>1278.1</ele>
        <time>2020-07-14T10:02:40.218Z</time>
      </trkpt>
      <trkpt lat="46.83391" lon="6.54087">
        <ele>1276.57</ele>
        <time>2020-07-14T10:02:40.826Z</time>
      </trkpt>
      <trkpt lat="46.83391" lon="6.54086">
        <ele>1276.57</ele>
        <time>2020-07-14T10:02:41.006Z</time>
      </trkpt>
      <trkpt lat="46.83395" lon="6.54119">
        <ele>1275.04</ele>
        <time>2020-07-14T10:02:43.513Z</time>
      </trkpt>
      <trkpt lat="46.83398" lon="6.54146">
        <ele>1272.75</ele>
        <time>2020-07-14T10:02:45.559Z</time>
      </trkpt>
      <trkpt lat="46.834" lon="6.5416">
        <ele>1271.68</ele>
        <time>2020-07-14T10:02:46.629Z</time>
      </trkpt>
      <trkpt lat="46.83401" lon="6.54191">
        <ele>1269.3</ele>
        <time>2020-07-14T10:02:48.951Z</time>
      </trkpt>
      <trkpt lat="46.83403" lon="6.54203">
        <ele>1268.5</ele>
        <time>2020-07-14T10:02:49.875Z</time>
      </trkpt>
      <trkpt lat="46.83405" lon="6.54218">
        <ele>1267.3</ele>
        <time>2020-07-14T10:02:51.018Z</time>
      </trkpt>
      <trkpt lat="46.8341" lon="6.54243">
        <ele>1265.66</ele>
        <time>2020-07-14T10:02:52.966Z</time>
      </trkpt>
      <trkpt lat="46.83413" lon="6.54256">
        <ele>1264.96</ele>
        <time>2020-07-14T10:02:53.993Z</time>
      </trkpt>
      <trkpt lat="46.83416" lon="6.5427">
        <ele>1264.21</ele>
        <time>2020-07-14T10:02:55.090Z</time>
      </trkpt>
      <trkpt lat="46.8342" lon="6.54293">
        <ele>1262.83</ele>
        <time>2020-07-14T10:02:56.865Z</time>
      </trkpt>
      <trkpt lat="46.83427" lon="6.54331">
        <ele>1260.43</ele>
        <time>2020-07-14T10:02:59.809Z</time>
      </trkpt>
      <trkpt lat="46.83431" lon="6.54347">
        <ele>1259.01</ele>
        <time>2020-07-14T10:03:01.084Z</time>
      </trkpt>
      <trkpt lat="46.83431" lon="6.5435">
        <ele>1257.61</ele>
        <time>2020-07-14T10:03:01.308Z</time>
      </trkpt>
      <trkpt lat="46.83431" lon="6.54349">
        <ele>1257.61</ele>
        <time>2020-07-14T10:03:01.488Z</time>
      </trkpt>
      <trkpt lat="46.8344" lon="6.54383">
        <ele>1256.21</ele>
        <time>2020-07-14T10:03:04.203Z</time>
      </trkpt>
      <trkpt lat="46.8345" lon="6.54423">
        <ele>1253.27</ele>
        <time>2020-07-14T10:03:07.389Z</time>
      </trkpt>
      <trkpt lat="46.83452" lon="6.54434">
        <ele>1252.58</ele>
        <time>2020-07-14T10:03:08.240Z</time>
      </trkpt>
      <trkpt lat="46.83455" lon="6.54445">
        <ele>1252</ele>
        <time>2020-07-14T10:03:09.126Z</time>
      </trkpt>
      <trkpt lat="46.8346" lon="6.54471">
        <ele>1250.81</ele>
        <time>2020-07-14T10:03:11.009Z</time>
      </trkpt>
      <trkpt lat="46.83465" lon="6.54497">
        <ele>1249.35</ele>
        <time>2020-07-14T10:03:13.030Z</time>
      </trkpt>
      <trkpt lat="46.8347" lon="6.54513">
        <ele>1248.44</ele>
        <time>2020-07-14T10:03:14.346Z</time>
      </trkpt>
      <trkpt lat="46.83475" lon="6.54526">
        <ele>1247.71</ele>
        <time>2020-07-14T10:03:15.461Z</time>
      </trkpt>
      <trkpt lat="46.83479" lon="6.54535">
        <ele>1247.12</ele>
        <time>2020-07-14T10:03:16.264Z</time>
      </trkpt>
      <trkpt lat="46.83492" lon="6.54556">
        <ele>1245.63</ele>
        <time>2020-07-14T10:03:18.383Z</time>
      </trkpt>
      <trkpt lat="46.83494" lon="6.54562">
        <ele>1245.13</ele>
        <time>2020-07-14T10:03:18.882Z</time>
      </trkpt>
      <trkpt lat="46.83496" lon="6.54567">
        <ele>1244.88</ele>
        <time>2020-07-14T10:03:19.290Z</time>
      </trkpt>
      <trkpt lat="46.83495" lon="6.54572">
        <ele>1244.78</ele>
        <time>2020-07-14T10:03:19.795Z</time>
      </trkpt>
      <trkpt lat="46.83494" lon="6.54576">
        <ele>1244.55</ele>
        <time>2020-07-14T10:03:20.113Z</time>
      </trkpt>
      <trkpt lat="46.83492" lon="6.5458">
        <ele>1244.34</ele>
        <time>2020-07-14T10:03:20.465Z</time>
      </trkpt>
      <trkpt lat="46.8349" lon="6.54582">
        <ele>1244.18</ele>
        <time>2020-07-14T10:03:20.709Z</time>
      </trkpt>
      <trkpt lat="46.83492" lon="6.54586">
        <ele>1244.34</ele>
        <time>2020-07-14T10:03:22.236Z</time>
      </trkpt>
      <trkpt lat="46.83494" lon="6.54588">
        <ele>1244.92</ele>
        <time>2020-07-14T10:03:24.689Z</time>
      </trkpt>
      <trkpt lat="46.83497" lon="6.54592">
        <ele>1245.44</ele>
        <time>2020-07-14T10:03:28.502Z</time>
      </trkpt>
      <trkpt lat="46.83512" lon="6.54602">
        <ele>1247.03</ele>
        <time>2020-07-14T10:03:39.375Z</time>
      </trkpt>
      <trkpt lat="46.83519" lon="6.54608">
        <ele>1247.39</ele>
        <time>2020-07-14T10:03:42.961Z</time>
      </trkpt>
      <trkpt lat="46.83533" lon="6.54622">
        <ele>1247.75</ele>
        <time>2020-07-14T10:03:48.486Z</time>
      </trkpt>
      <trkpt lat="46.83533" lon="6.54621">
        <ele>1247.75</ele>
        <time>2020-07-14T10:03:48.666Z</time>
      </trkpt>
      <trkpt lat="46.83536" lon="6.54625">
        <ele>1248.12</ele>
        <time>2020-07-14T10:03:51.216Z</time>
      </trkpt>
      <trkpt lat="46.83552" lon="6.5464">
        <ele>1248.72</ele>
        <time>2020-07-14T10:03:58.232Z</time>
      </trkpt>
      <trkpt lat="46.83583" lon="6.54671">
        <ele>1249.47</ele>
        <time>2020-07-14T10:04:10.293Z</time>
      </trkpt>
      <trkpt lat="46.83592" lon="6.5468">
        <ele>1249.57</ele>
        <time>2020-07-14T10:04:13.417Z</time>
      </trkpt>
      <trkpt lat="46.83604" lon="6.54693">
        <ele>1249.33</ele>
        <time>2020-07-14T10:04:15.844Z</time>
      </trkpt>
      <trkpt lat="46.83616" lon="6.54709">
        <ele>1248.91</ele>
        <time>2020-07-14T10:04:18.199Z</time>
      </trkpt>
      <trkpt lat="46.83631" lon="6.54727">
        <ele>1248.41</ele>
        <time>2020-07-14T10:04:21.017Z</time>
      </trkpt>
      <trkpt lat="46.83634" lon="6.54731">
        <ele>1248.4</ele>
        <time>2020-07-14T10:04:22.044Z</time>
      </trkpt>
      <trkpt lat="46.83644" lon="6.54741">
        <ele>1248.3</ele>
        <time>2020-07-14T10:04:24.222Z</time>
      </trkpt>
      <trkpt lat="46.83648" lon="6.54746">
        <ele>1248.3</ele>
        <time>2020-07-14T10:04:25.603Z</time>
      </trkpt>
      <trkpt lat="46.83653" lon="6.54754">
        <ele>1248.24</ele>
        <time>2020-07-14T10:04:26.938Z</time>
      </trkpt>
      <trkpt lat="46.83661" lon="6.54768">
        <ele>1248.06</ele>
        <time>2020-07-14T10:04:29.008Z</time>
      </trkpt>
      <trkpt lat="46.83673" lon="6.54787">
        <ele>1247.96</ele>
        <time>2020-07-14T10:04:33.280Z</time>
      </trkpt>
      <trkpt lat="46.83684" lon="6.54805">
        <ele>1247.95</ele>
        <time>2020-07-14T10:04:37.572Z</time>
      </trkpt>
      <trkpt lat="46.83702" lon="6.54837">
        <ele>1248.34</ele>
        <time>2020-07-14T10:04:46.081Z</time>
      </trkpt>
      <trkpt lat="46.83728" lon="6.54881">
        <ele>1248.01</ele>
        <time>2020-07-14T10:04:53.227Z</time>
      </trkpt>
      <trkpt lat="46.83739" lon="6.54898">
        <ele>1248.07</ele>
        <time>2020-07-14T10:04:57.576Z</time>
      </trkpt>
      <trkpt lat="46.83753" lon="6.54919">
        <ele>1248.14</ele>
        <time>2020-07-14T10:05:03.013Z</time>
      </trkpt>
      <trkpt lat="46.83753" lon="6.54918">
        <ele>1248.14</ele>
        <time>2020-07-14T10:05:03.193Z</time>
      </trkpt>
      <trkpt lat="46.83754" lon="6.5492">
        <ele>1248.21</ele>
        <time>2020-07-14T10:05:03.908Z</time>
      </trkpt>
      <trkpt lat="46.83778" lon="6.54954">
        <ele>1248.64</ele>
        <time>2020-07-14T10:05:13.849Z</time>
      </trkpt>
      <trkpt lat="46.83791" lon="6.54973">
        <ele>1249.28</ele>
        <time>2020-07-14T10:05:20.931Z</time>
      </trkpt>
      <trkpt lat="46.83806" lon="6.54993">
        <ele>1250.26</ele>
        <time>2020-07-14T10:05:30.141Z</time>
      </trkpt>
      <trkpt lat="46.8382" lon="6.55012">
        <ele>1250.55</ele>
        <time>2020-07-14T10:05:35.963Z</time>
      </trkpt>
      <trkpt lat="46.8383" lon="6.55022">
        <ele>1250.9</ele>
        <time>2020-07-14T10:05:40.286Z</time>
      </trkpt>
      <trkpt lat="46.83841" lon="6.55035">
        <ele>1250.82</ele>
        <time>2020-07-14T10:05:43.701Z</time>
      </trkpt>
      <trkpt lat="46.83853" lon="6.55052">
        <ele>1250.36</ele>
        <time>2020-07-14T10:05:46.081Z</time>
      </trkpt>
      <trkpt lat="46.83864" lon="6.55067">
        <ele>1249.65</ele>
        <time>2020-07-14T10:05:47.849Z</time>
      </trkpt>
      <trkpt lat="46.83879" lon="6.55092">
        <ele>1248.06</ele>
        <time>2020-07-14T10:05:50.337Z</time>
      </trkpt>
      <trkpt lat="46.83885" lon="6.55103">
        <ele>1247.01</ele>
        <time>2020-07-14T10:05:51.389Z</time>
      </trkpt>
      <trkpt lat="46.83891" lon="6.55116">
        <ele>1246.39</ele>
        <time>2020-07-14T10:05:52.541Z</time>
      </trkpt>
      <trkpt lat="46.83911" lon="6.55169">
        <ele>1243.6</ele>
        <time>2020-07-14T10:05:57.069Z</time>
      </trkpt>
      <trkpt lat="46.8392" lon="6.55189">
        <ele>1241.81</ele>
        <time>2020-07-14T10:05:58.860Z</time>
      </trkpt>
      <trkpt lat="46.83929" lon="6.55211">
        <ele>1240.65</ele>
        <time>2020-07-14T10:06:00.623Z</time>
      </trkpt>
      <trkpt lat="46.83936" lon="6.55226">
        <ele>1240</ele>
        <time>2020-07-14T10:06:02.019Z</time>
      </trkpt>
      <trkpt lat="46.83943" lon="6.55239">
        <ele>1239.47</ele>
        <time>2020-07-14T10:06:03.353Z</time>
      </trkpt>
      <trkpt lat="46.8395" lon="6.55252">
        <ele>1239.2</ele>
        <time>2020-07-14T10:06:05.032Z</time>
      </trkpt>
      <trkpt lat="46.83966" lon="6.55281">
        <ele>1239.57</ele>
        <time>2020-07-14T10:06:12.744Z</time>
      </trkpt>
      <trkpt lat="46.83972" lon="6.55289">
        <ele>1239.59</ele>
        <time>2020-07-14T10:06:14.924Z</time>
      </trkpt>
      <trkpt lat="46.83979" lon="6.55298">
        <ele>1239.73</ele>
        <time>2020-07-14T10:06:17.761Z</time>
      </trkpt>
      <trkpt lat="46.83986" lon="6.55307">
        <ele>1240.18</ele>
        <time>2020-07-14T10:06:21.990Z</time>
      </trkpt>
      <trkpt lat="46.84" lon="6.55326">
        <ele>1241.23</ele>
        <time>2020-07-14T10:06:31.049Z</time>
      </trkpt>
      <trkpt lat="46.84016" lon="6.55344">
        <ele>1242.36</ele>
        <time>2020-07-14T10:06:40.689Z</time>
      </trkpt>
      <trkpt lat="46.84029" lon="6.5536">
        <ele>1243.19</ele>
        <time>2020-07-14T10:06:48.427Z</time>
      </trkpt>
      <trkpt lat="46.84041" lon="6.55372">
        <ele>1243.91</ele>
        <time>2020-07-14T10:06:55.076Z</time>
      </trkpt>
      <trkpt lat="46.8405" lon="6.55382">
        <ele>1244.39</ele>
        <time>2020-07-14T10:06:59.930Z</time>
      </trkpt>
      <trkpt lat="46.84055" lon="6.5539">
        <ele>1244.58</ele>
        <time>2020-07-14T10:07:02.472Z</time>
      </trkpt>
      <trkpt lat="46.84082" lon="6.55437">
        <ele>1243.69</ele>
        <time>2020-07-14T10:07:08.889Z</time>
      </trkpt>
      <trkpt lat="46.84085" lon="6.55442">
        <ele>1243.18</ele>
        <time>2020-07-14T10:07:09.387Z</time>
      </trkpt>
      <trkpt lat="46.84085" lon="6.55441">
        <ele>1243.18</ele>
        <time>2020-07-14T10:07:09.566Z</time>
      </trkpt>
      <trkpt lat="46.84103" lon="6.55473">
        <ele>1242.67</ele>
        <time>2020-07-14T10:07:14.065Z</time>
      </trkpt>
      <trkpt lat="46.84109" lon="6.55483">
        <ele>1242.55</ele>
        <time>2020-07-14T10:07:15.597Z</time>
      </trkpt>
      <trkpt lat="46.84115" lon="6.5549">
        <ele>1242.71</ele>
        <time>2020-07-14T10:07:18.087Z</time>
      </trkpt>
      <trkpt lat="46.8412" lon="6.55495">
        <ele>1242.97</ele>
        <time>2020-07-14T10:07:20.706Z</time>
      </trkpt>
      <trkpt lat="46.84125" lon="6.55499">
        <ele>1243.39</ele>
        <time>2020-07-14T10:07:23.802Z</time>
      </trkpt>
      <trkpt lat="46.84136" lon="6.55507">
        <ele>1244.49</ele>
        <time>2020-07-14T10:07:31.409Z</time>
      </trkpt>
      <trkpt lat="46.8416" lon="6.55523">
        <ele>1246.35</ele>
        <time>2020-07-14T10:07:45.390Z</time>
      </trkpt>
      <trkpt lat="46.84167" lon="6.55528">
        <ele>1246.81</ele>
        <time>2020-07-14T10:07:49.190Z</time>
      </trkpt>
      <trkpt lat="46.84189" lon="6.55554">
        <ele>1248.07</ele>
        <time>2020-07-14T10:08:01.721Z</time>
      </trkpt>
      <trkpt lat="46.84198" lon="6.55566">
        <ele>1247.98</ele>
        <time>2020-07-14T10:08:03.936Z</time>
      </trkpt>
      <trkpt lat="46.842" lon="6.55571">
        <ele>1247.78</ele>
        <time>2020-07-14T10:08:04.389Z</time>
      </trkpt>
      <trkpt lat="46.84209" lon="6.55586">
        <ele>1247.37</ele>
        <time>2020-07-14T10:08:06.282Z</time>
      </trkpt>
      <trkpt lat="46.84214" lon="6.55595">
        <ele>1247.14</ele>
        <time>2020-07-14T10:08:07.393Z</time>
      </trkpt>
      <trkpt lat="46.84221" lon="6.55606">
        <ele>1246.86</ele>
        <time>2020-07-14T10:08:08.862Z</time>
      </trkpt>
      <trkpt lat="46.84233" lon="6.55624">
        <ele>1246.96</ele>
        <time>2020-07-14T10:08:13.627Z</time>
      </trkpt>
      <trkpt lat="46.84239" lon="6.5563">
        <ele>1246.95</ele>
        <time>2020-07-14T10:08:15.495Z</time>
      </trkpt>
      <trkpt lat="46.84246" lon="6.55635">
        <ele>1247.08</ele>
        <time>2020-07-14T10:08:17.908Z</time>
      </trkpt>
      <trkpt lat="46.84257" lon="6.55642">
        <ele>1247.44</ele>
        <time>2020-07-14T10:08:22.249Z</time>
      </trkpt>
      <trkpt lat="46.84267" lon="6.5565">
        <ele>1247.88</ele>
        <time>2020-07-14T10:08:26.876Z</time>
      </trkpt>
      <trkpt lat="46.84272" lon="6.55654">
        <ele>1248.09</ele>
        <time>2020-07-14T10:08:29.133Z</time>
      </trkpt>
      <trkpt lat="46.84271" lon="6.55654">
        <ele>1248.09</ele>
        <time>2020-07-14T10:08:29.395Z</time>
      </trkpt>
      <trkpt lat="46.84273" lon="6.55655">
        <ele>1248.3</ele>
        <time>2020-07-14T10:08:30.829Z</time>
      </trkpt>
      <trkpt lat="46.84284" lon="6.55669">
        <ele>1249.17</ele>
        <time>2020-07-14T10:08:37.972Z</time>
      </trkpt>
      <trkpt lat="46.84294" lon="6.5568">
        <ele>1249.78</ele>
        <time>2020-07-14T10:08:43.666Z</time>
      </trkpt>
      <trkpt lat="46.84312" lon="6.55701">
        <ele>1250.42</ele>
        <time>2020-07-14T10:08:51.772Z</time>
      </trkpt>
      <trkpt lat="46.84324" lon="6.55716">
        <ele>1250.74</ele>
        <time>2020-07-14T10:08:56.859Z</time>
      </trkpt>
      <trkpt lat="46.84336" lon="6.55729">
        <ele>1251.11</ele>
        <time>2020-07-14T10:09:01.929Z</time>
      </trkpt>
      <trkpt lat="46.84349" lon="6.55742">
        <ele>1251.38</ele>
        <time>2020-07-14T10:09:06.831Z</time>
      </trkpt>
      <trkpt lat="46.84358" lon="6.55752">
        <ele>1251.57</ele>
        <time>2020-07-14T10:09:10.337Z</time>
      </trkpt>
      <trkpt lat="46.84367" lon="6.55761">
        <ele>1251.62</ele>
        <time>2020-07-14T10:09:13.323Z</time>
      </trkpt>
      <trkpt lat="46.84376" lon="6.5577">
        <ele>1251.49</ele>
        <time>2020-07-14T10:09:15.190Z</time>
      </trkpt>
      <trkpt lat="46.84399" lon="6.55799">
        <ele>1250.46</ele>
        <time>2020-07-14T10:09:19.238Z</time>
      </trkpt>
      <trkpt lat="46.84402" lon="6.55802">
        <ele>1250.38</ele>
        <time>2020-07-14T10:09:19.788Z</time>
      </trkpt>
      <trkpt lat="46.84404" lon="6.55805">
        <ele>1250.14</ele>
        <time>2020-07-14T10:09:20.101Z</time>
      </trkpt>
      <trkpt lat="46.84407" lon="6.55809">
        <ele>1249.86</ele>
        <time>2020-07-14T10:09:20.545Z</time>
      </trkpt>
      <trkpt lat="46.84412" lon="6.55816">
        <ele>1249.42</ele>
        <time>2020-07-14T10:09:21.256Z</time>
      </trkpt>
      <trkpt lat="46.84419" lon="6.55828">
        <ele>1248.21</ele>
        <time>2020-07-14T10:09:22.435Z</time>
      </trkpt>
      <trkpt lat="46.84431" lon="6.55849">
        <ele>1247.6</ele>
        <time>2020-07-14T10:09:24.963Z</time>
      </trkpt>
      <trkpt lat="46.84431" lon="6.55848">
        <ele>1247.6</ele>
        <time>2020-07-14T10:09:25.143Z</time>
      </trkpt>
      <trkpt lat="46.84432" lon="6.55851">
        <ele>1246.99</ele>
        <time>2020-07-14T10:09:25.392Z</time>
      </trkpt>
      <trkpt lat="46.84439" lon="6.55861">
        <ele>1246.27</ele>
        <time>2020-07-14T10:09:26.462Z</time>
      </trkpt>
      <trkpt lat="46.84444" lon="6.55867">
        <ele>1245.62</ele>
        <time>2020-07-14T10:09:27.170Z</time>
      </trkpt>
      <trkpt lat="46.84447" lon="6.55872">
        <ele>1245.18</ele>
        <time>2020-07-14T10:09:27.667Z</time>
      </trkpt>
      <trkpt lat="46.84497" lon="6.55971">
        <ele>1240.42</ele>
        <time>2020-07-14T10:09:36.800Z</time>
      </trkpt>
      <trkpt lat="46.84496" lon="6.55971">
        <ele>1240.42</ele>
        <time>2020-07-14T10:09:37.062Z</time>
      </trkpt>
      <trkpt lat="46.84504" lon="6.55986">
        <ele>1235.66</ele>
        <time>2020-07-14T10:09:38.485Z</time>
      </trkpt>
      <trkpt lat="46.84521" lon="6.56022">
        <ele>1233.2</ele>
        <time>2020-07-14T10:09:41.757Z</time>
      </trkpt>
      <trkpt lat="46.8453" lon="6.56037">
        <ele>1232.68</ele>
        <time>2020-07-14T10:09:43.502Z</time>
      </trkpt>
      <trkpt lat="46.84541" lon="6.56053">
        <ele>1231.85</ele>
        <time>2020-07-14T10:09:45.229Z</time>
      </trkpt>
      <trkpt lat="46.84549" lon="6.56064">
        <ele>1231.35</ele>
        <time>2020-07-14T10:09:46.539Z</time>
      </trkpt>
      <trkpt lat="46.84556" lon="6.56071">
        <ele>1230.98</ele>
        <time>2020-07-14T10:09:47.568Z</time>
      </trkpt>
      <trkpt lat="46.84563" lon="6.56077">
        <ele>1230.73</ele>
        <time>2020-07-14T10:09:48.684Z</time>
      </trkpt>
      <trkpt lat="46.8457" lon="6.56082">
        <ele>1230.37</ele>
        <time>2020-07-14T10:09:49.608Z</time>
      </trkpt>
      <trkpt lat="46.84576" lon="6.56087">
        <ele>1230.38</ele>
        <time>2020-07-14T10:09:51.444Z</time>
      </trkpt>
      <trkpt lat="46.84581" lon="6.56095">
        <ele>1230.54</ele>
        <time>2020-07-14T10:09:53.868Z</time>
      </trkpt>
      <trkpt lat="46.84606" lon="6.56144">
        <ele>1229.42</ele>
        <time>2020-07-14T10:09:59.871Z</time>
      </trkpt>
      <trkpt lat="46.84608" lon="6.56152">
        <ele>1229.06</ele>
        <time>2020-07-14T10:10:00.477Z</time>
      </trkpt>
      <trkpt lat="46.84609" lon="6.5616">
        <ele>1228.61</ele>
        <time>2020-07-14T10:10:01.086Z</time>
      </trkpt>
      <trkpt lat="46.84609" lon="6.56169">
        <ele>1228.1</ele>
        <time>2020-07-14T10:10:01.759Z</time>
      </trkpt>
      <trkpt lat="46.84607" lon="6.56177">
        <ele>1227.34</ele>
        <time>2020-07-14T10:10:02.396Z</time>
      </trkpt>
      <trkpt lat="46.84605" lon="6.56183">
        <ele>1226.85</ele>
        <time>2020-07-14T10:10:02.895Z</time>
      </trkpt>
      <trkpt lat="46.846" lon="6.56189">
        <ele>1226.39</ele>
        <time>2020-07-14T10:10:03.602Z</time>
      </trkpt>
      <trkpt lat="46.84595" lon="6.56194">
        <ele>1225.61</ele>
        <time>2020-07-14T10:10:04.265Z</time>
      </trkpt>
      <trkpt lat="46.8459" lon="6.56198">
        <ele>1225.08</ele>
        <time>2020-07-14T10:10:04.888Z</time>
      </trkpt>
      <trkpt lat="46.84582" lon="6.56207">
        <ele>1223.91</ele>
        <time>2020-07-14T10:10:05.992Z</time>
      </trkpt>
      <trkpt lat="46.84564" lon="6.5622">
        <ele>1222.13</ele>
        <time>2020-07-14T10:10:08.187Z</time>
      </trkpt>
      <trkpt lat="46.84556" lon="6.56225">
        <ele>1221.12</ele>
        <time>2020-07-14T10:10:09.139Z</time>
      </trkpt>
      <trkpt lat="46.84568" lon="6.56225">
        <ele>1222.28</ele>
        <time>2020-07-14T10:10:17.069Z</time>
      </trkpt>
      <trkpt lat="46.84577" lon="6.56226">
        <ele>1223.14</ele>
        <time>2020-07-14T10:10:22.957Z</time>
      </trkpt>
      <trkpt lat="46.84586" lon="6.56227">
        <ele>1224.05</ele>
        <time>2020-07-14T10:10:29.166Z</time>
      </trkpt>
      <trkpt lat="46.84598" lon="6.56232">
        <ele>1225.28</ele>
        <time>2020-07-14T10:10:37.563Z</time>
      </trkpt>
      <trkpt lat="46.84617" lon="6.5624">
        <ele>1226.6</ele>
        <time>2020-07-14T10:10:47.754Z</time>
      </trkpt>
      <trkpt lat="46.84616" lon="6.5624">
        <ele>1226.6</ele>
        <time>2020-07-14T10:10:48.016Z</time>
      </trkpt>
      <trkpt lat="46.84624" lon="6.56243">
        <ele>1227.91</ele>
        <time>2020-07-14T10:10:56.375Z</time>
      </trkpt>
      <trkpt lat="46.84634" lon="6.56248">
        <ele>1228.89</ele>
        <time>2020-07-14T10:11:03.109Z</time>
      </trkpt>
      <trkpt lat="46.84643" lon="6.56251">
        <ele>1229.83</ele>
        <time>2020-07-14T10:11:09.522Z</time>
      </trkpt>
      <trkpt lat="46.84653" lon="6.56253">
        <ele>1230.83</ele>
        <time>2020-07-14T10:11:16.347Z</time>
      </trkpt>
      <trkpt lat="46.84671" lon="6.56258">
        <ele>1232.66</ele>
        <time>2020-07-14T10:11:28.835Z</time>
      </trkpt>
      <trkpt lat="46.84679" lon="6.56261">
        <ele>1233.41</ele>
        <time>2020-07-14T10:11:34.007Z</time>
      </trkpt>
      <trkpt lat="46.84684" lon="6.56264">
        <ele>1233.89</ele>
        <time>2020-07-14T10:11:37.332Z</time>
      </trkpt>
      <trkpt lat="46.84706" lon="6.5629">
        <ele>1235.61</ele>
        <time>2020-07-14T10:11:51.300Z</time>
      </trkpt>
      <trkpt lat="46.84711" lon="6.56294">
        <ele>1235.86</ele>
        <time>2020-07-14T10:11:53.799Z</time>
      </trkpt>
      <trkpt lat="46.84718" lon="6.56299">
        <ele>1235.95</ele>
        <time>2020-07-14T10:11:56.085Z</time>
      </trkpt>
      <trkpt lat="46.84723" lon="6.56303">
        <ele>1235.76</ele>
        <time>2020-07-14T10:11:56.849Z</time>
      </trkpt>
      <trkpt lat="46.84726" lon="6.56308">
        <ele>1235.52</ele>
        <time>2020-07-14T10:11:57.359Z</time>
      </trkpt>
      <trkpt lat="46.84735" lon="6.56323">
        <ele>1235.13</ele>
        <time>2020-07-14T10:11:59.281Z</time>
      </trkpt>
      <trkpt lat="46.84739" lon="6.5633">
        <ele>1234.97</ele>
        <time>2020-07-14T10:12:00.188Z</time>
      </trkpt>
      <trkpt lat="46.84744" lon="6.56334">
        <ele>1234.8</ele>
        <time>2020-07-14T10:12:00.980Z</time>
      </trkpt>
      <trkpt lat="46.84753" lon="6.56343">
        <ele>1234.14</ele>
        <time>2020-07-14T10:12:02.126Z</time>
      </trkpt>
      <trkpt lat="46.84764" lon="6.56355">
        <ele>1233.58</ele>
        <time>2020-07-14T10:12:03.836Z</time>
      </trkpt>
      <trkpt lat="46.84774" lon="6.56368">
        <ele>1233.21</ele>
        <time>2020-07-14T10:12:05.739Z</time>
      </trkpt>
      <trkpt lat="46.84783" lon="6.56381">
        <ele>1233.03</ele>
        <time>2020-07-14T10:12:07.842Z</time>
      </trkpt>
      <trkpt lat="46.84792" lon="6.56398">
        <ele>1232.96</ele>
        <time>2020-07-14T10:12:11.438Z</time>
      </trkpt>
      <trkpt lat="46.84796" lon="6.56406">
        <ele>1233.05</ele>
        <time>2020-07-14T10:12:13.463Z</time>
      </trkpt>
      <trkpt lat="46.848" lon="6.56411">
        <ele>1233.17</ele>
        <time>2020-07-14T10:12:15.208Z</time>
      </trkpt>
      <trkpt lat="46.84803" lon="6.56415">
        <ele>1233.16</ele>
        <time>2020-07-14T10:12:16.235Z</time>
      </trkpt>
      <trkpt lat="46.84803" lon="6.56414">
        <ele>1233.16</ele>
        <time>2020-07-14T10:12:16.414Z</time>
      </trkpt>
      <trkpt lat="46.84805" lon="6.56416">
        <ele>1233.15</ele>
        <time>2020-07-14T10:12:17.012Z</time>
      </trkpt>
      <trkpt lat="46.84822" lon="6.5643">
        <ele>1233.21</ele>
        <time>2020-07-14T10:12:22.280Z</time>
      </trkpt>
      <trkpt lat="46.84831" lon="6.56439">
        <ele>1233.29</ele>
        <time>2020-07-14T10:12:25.347Z</time>
      </trkpt>
      <trkpt lat="46.84842" lon="6.5645">
        <ele>1233.53</ele>
        <time>2020-07-14T10:12:29.535Z</time>
      </trkpt>
      <trkpt lat="46.84855" lon="6.56467">
        <ele>1233.94</ele>
        <time>2020-07-14T10:12:35.367Z</time>
      </trkpt>
      <trkpt lat="46.84876" lon="6.56491">
        <ele>1235.32</ele>
        <time>2020-07-14T10:12:47.739Z</time>
      </trkpt>
      <trkpt lat="46.84888" lon="6.56503">
        <ele>1236.26</ele>
        <time>2020-07-14T10:12:55.118Z</time>
      </trkpt>
      <trkpt lat="46.849" lon="6.56514">
        <ele>1237.29</ele>
        <time>2020-07-14T10:13:02.753Z</time>
      </trkpt>
      <trkpt lat="46.84916" lon="6.56524">
        <ele>1238.08</ele>
        <time>2020-07-14T10:13:10.503Z</time>
      </trkpt>
      <trkpt lat="46.84936" lon="6.56538">
        <ele>1238.86</ele>
        <time>2020-07-14T10:13:19.087Z</time>
      </trkpt>
      <trkpt lat="46.84957" lon="6.56551">
        <ele>1240.18</ele>
        <time>2020-07-14T10:13:30.119Z</time>
      </trkpt>
      <trkpt lat="46.84967" lon="6.56556">
        <ele>1240.81</ele>
        <time>2020-07-14T10:13:35.294Z</time>
      </trkpt>
      <trkpt lat="46.84981" lon="6.5656">
        <ele>1241.62</ele>
        <time>2020-07-14T10:13:42.143Z</time>
      </trkpt>
      <trkpt lat="46.84988" lon="6.56561">
        <ele>1242.01</ele>
        <time>2020-07-14T10:13:45.490Z</time>
      </trkpt>
      <trkpt lat="46.84993" lon="6.56561">
        <ele>1242.36</ele>
        <time>2020-07-14T10:13:48.130Z</time>
      </trkpt>
      <trkpt lat="46.84998" lon="6.56558">
        <ele>1242.75</ele>
        <time>2020-07-14T10:13:51.030Z</time>
      </trkpt>
      <trkpt lat="46.8501" lon="6.5655">
        <ele>1243.39</ele>
        <time>2020-07-14T10:13:57.023Z</time>
      </trkpt>
      <trkpt lat="46.85014" lon="6.56548">
        <ele>1243.5</ele>
        <time>2020-07-14T10:13:58.480Z</time>
      </trkpt>
      <trkpt lat="46.85027" lon="6.56548">
        <ele>1243.66</ele>
        <time>2020-07-14T10:14:02.324Z</time>
      </trkpt>
      <trkpt lat="46.85034" lon="6.56546">
        <ele>1243.75</ele>
        <time>2020-07-14T10:14:04.440Z</time>
      </trkpt>
      <trkpt lat="46.85049" lon="6.5654">
        <ele>1244.22</ele>
        <time>2020-07-14T10:14:10.083Z</time>
      </trkpt>
      <trkpt lat="46.85054" lon="6.56547">
        <ele>1243.84</ele>
        <time>2020-07-14T10:14:10.844Z</time>
      </trkpt>
      <trkpt lat="46.85069" lon="6.56564">
        <ele>1242.55</ele>
        <time>2020-07-14T10:14:12.919Z</time>
      </trkpt>
      <trkpt lat="46.85078" lon="6.56573">
        <ele>1242.17</ele>
        <time>2020-07-14T10:14:14.359Z</time>
      </trkpt>
      <trkpt lat="46.85089" lon="6.56585">
        <ele>1241.92</ele>
        <time>2020-07-14T10:14:16.531Z</time>
      </trkpt>
      <trkpt lat="46.85096" lon="6.56594">
        <ele>1242.09</ele>
        <time>2020-07-14T10:14:19.468Z</time>
      </trkpt>
      <trkpt lat="46.85102" lon="6.566">
        <ele>1242.45</ele>
        <time>2020-07-14T10:14:22.792Z</time>
      </trkpt>
      <trkpt lat="46.85105" lon="6.56602">
        <ele>1242.55</ele>
        <time>2020-07-14T10:14:23.990Z</time>
      </trkpt>
      <trkpt lat="46.85109" lon="6.56604">
        <ele>1242.61</ele>
        <time>2020-07-14T10:14:25.265Z</time>
      </trkpt>
      <trkpt lat="46.85124" lon="6.56609">
        <ele>1242.68</ele>
        <time>2020-07-14T10:14:29.478Z</time>
      </trkpt>
      <trkpt lat="46.85137" lon="6.56613">
        <ele>1241.71</ele>
        <time>2020-07-14T10:14:30.930Z</time>
      </trkpt>
      <trkpt lat="46.85143" lon="6.56616">
        <ele>1241.49</ele>
        <time>2020-07-14T10:14:31.769Z</time>
      </trkpt>
      <trkpt lat="46.85145" lon="6.56618">
        <ele>1241.46</ele>
        <time>2020-07-14T10:14:32.181Z</time>
      </trkpt>
      <trkpt lat="46.85146" lon="6.56622">
        <ele>1241.35</ele>
        <time>2020-07-14T10:14:32.555Z</time>
      </trkpt>
      <trkpt lat="46.85146" lon="6.56628">
        <ele>1241.21</ele>
        <time>2020-07-14T10:14:33.101Z</time>
      </trkpt>
      <trkpt lat="46.85146" lon="6.5664">
        <ele>1241.21</ele>
        <time>2020-07-14T10:14:35.254Z</time>
      </trkpt>
      <trkpt lat="46.85146" lon="6.56651">
        <ele>1240.95</ele>
        <time>2020-07-14T10:14:36.250Z</time>
      </trkpt>
      <trkpt lat="46.85151" lon="6.56681">
        <ele>1240.72</ele>
        <time>2020-07-14T10:14:39.915Z</time>
      </trkpt>
      <trkpt lat="46.85155" lon="6.56701">
        <ele>1239.87</ele>
        <time>2020-07-14T10:14:41.422Z</time>
      </trkpt>
      <trkpt lat="46.85157" lon="6.56718">
        <ele>1238.68</ele>
        <time>2020-07-14T10:14:42.712Z</time>
      </trkpt>
      <trkpt lat="46.85157" lon="6.56724">
        <ele>1238.48</ele>
        <time>2020-07-14T10:14:43.188Z</time>
      </trkpt>
      <trkpt lat="46.85157" lon="6.56723">
        <ele>1238.48</ele>
        <time>2020-07-14T10:14:43.368Z</time>
      </trkpt>
      <trkpt lat="46.85158" lon="6.56727">
        <ele>1238.27</ele>
        <time>2020-07-14T10:14:43.686Z</time>
      </trkpt>
      <trkpt lat="46.8516" lon="6.56751">
        <ele>1236.99</ele>
        <time>2020-07-14T10:14:45.494Z</time>
      </trkpt>
      <trkpt lat="46.85162" lon="6.56768">
        <ele>1236.7</ele>
        <time>2020-07-14T10:14:47.229Z</time>
      </trkpt>
      <trkpt lat="46.85164" lon="6.56778">
        <ele>1236.56</ele>
        <time>2020-07-14T10:14:48.338Z</time>
      </trkpt>
      <trkpt lat="46.85167" lon="6.56806">
        <ele>1235.87</ele>
        <time>2020-07-14T10:14:50.878Z</time>
      </trkpt>
      <trkpt lat="46.8517" lon="6.56818">
        <ele>1235.58</ele>
        <time>2020-07-14T10:14:52.051Z</time>
      </trkpt>
      <trkpt lat="46.85175" lon="6.5683">
        <ele>1235.05</ele>
        <time>2020-07-14T10:14:53.106Z</time>
      </trkpt>
      <trkpt lat="46.85183" lon="6.56847">
        <ele>1234.75</ele>
        <time>2020-07-14T10:14:55.262Z</time>
      </trkpt>
      <trkpt lat="46.8519" lon="6.56859">
        <ele>1234.48</ele>
        <time>2020-07-14T10:14:56.840Z</time>
      </trkpt>
      <trkpt lat="46.85195" lon="6.5687">
        <ele>1234.32</ele>
        <time>2020-07-14T10:14:58.279Z</time>
      </trkpt>
      <trkpt lat="46.852" lon="6.56885">
        <ele>1233.74</ele>
        <time>2020-07-14T10:14:59.578Z</time>
      </trkpt>
      <trkpt lat="46.85201" lon="6.56892">
        <ele>1233.83</ele>
        <time>2020-07-14T10:15:01.122Z</time>
      </trkpt>
      <trkpt lat="46.85208" lon="6.56907">
        <ele>1233.55</ele>
        <time>2020-07-14T10:15:02.991Z</time>
      </trkpt>
      <trkpt lat="46.85212" lon="6.56919">
        <ele>1232.83</ele>
        <time>2020-07-14T10:15:03.989Z</time>
      </trkpt>
      <trkpt lat="46.85214" lon="6.56936">
        <ele>1231.03</ele>
        <time>2020-07-14T10:15:05.279Z</time>
      </trkpt>
      <trkpt lat="46.85218" lon="6.56951">
        <ele>1229.71</ele>
        <time>2020-07-14T10:15:06.483Z</time>
      </trkpt>
      <trkpt lat="46.85226" lon="6.5697">
        <ele>1228.66</ele>
        <time>2020-07-14T10:15:08.152Z</time>
      </trkpt>
      <trkpt lat="46.85233" lon="6.56987">
        <ele>1226.88</ele>
        <time>2020-07-14T10:15:09.636Z</time>
      </trkpt>
      <trkpt lat="46.85238" lon="6.57003">
        <ele>1225</ele>
        <time>2020-07-14T10:15:10.951Z</time>
      </trkpt>
      <trkpt lat="46.85239" lon="6.57014">
        <ele>1223.83</ele>
        <time>2020-07-14T10:15:11.781Z</time>
      </trkpt>
      <trkpt lat="46.85241" lon="6.57019">
        <ele>1223.37</ele>
        <time>2020-07-14T10:15:12.214Z</time>
      </trkpt>
      <trkpt lat="46.85257" lon="6.57038">
        <ele>1222.05</ele>
        <time>2020-07-14T10:15:14.321Z</time>
      </trkpt>
      <trkpt lat="46.85265" lon="6.57046">
        <ele>1222.13</ele>
        <time>2020-07-14T10:15:17.072Z</time>
      </trkpt>
      <trkpt lat="46.85274" lon="6.57058">
        <ele>1221.94</ele>
        <time>2020-07-14T10:15:19.063Z</time>
      </trkpt>
      <trkpt lat="46.85291" lon="6.57075">
        <ele>1220.43</ele>
        <time>2020-07-14T10:15:21.315Z</time>
      </trkpt>
      <trkpt lat="46.85298" lon="6.5708">
        <ele>1220.53</ele>
        <time>2020-07-14T10:15:23.631Z</time>
      </trkpt>
      <trkpt lat="46.85309" lon="6.57089">
        <ele>1220.63</ele>
        <time>2020-07-14T10:15:27.198Z</time>
      </trkpt>
      <trkpt lat="46.85347" lon="6.57128">
        <ele>1219.22</ele>
        <time>2020-07-14T10:15:33.614Z</time>
      </trkpt>
      <trkpt lat="46.85358" lon="6.5714">
        <ele>1219.87</ele>
        <time>2020-07-14T10:15:39.803Z</time>
      </trkpt>
      <trkpt lat="46.85378" lon="6.57161">
        <ele>1219.95</ele>
        <time>2020-07-14T10:15:46.462Z</time>
      </trkpt>
      <trkpt lat="46.85385" lon="6.57168">
        <ele>1220.52</ele>
        <time>2020-07-14T10:15:50.847Z</time>
      </trkpt>
      <trkpt lat="46.85391" lon="6.57174">
        <ele>1221.43</ele>
        <time>2020-07-14T10:15:57.421Z</time>
      </trkpt>
      <trkpt lat="46.85398" lon="6.57185">
        <ele>1221.52</ele>
        <time>2020-07-14T10:16:00.352Z</time>
      </trkpt>
      <trkpt lat="46.8541" lon="6.57206">
        <ele>1221.15</ele>
        <time>2020-07-14T10:16:03.261Z</time>
      </trkpt>
      <trkpt lat="46.85423" lon="6.57233">
        <ele>1220.31</ele>
        <time>2020-07-14T10:16:06.173Z</time>
      </trkpt>
      <trkpt lat="46.85431" lon="6.57244">
        <ele>1220.7</ele>
        <time>2020-07-14T10:16:10.444Z</time>
      </trkpt>
      <trkpt lat="46.85443" lon="6.5726">
        <ele>1220.87</ele>
        <time>2020-07-14T10:16:15.157Z</time>
      </trkpt>
      <trkpt lat="46.85461" lon="6.57295">
        <ele>1219.78</ele>
        <time>2020-07-14T10:16:19.050Z</time>
      </trkpt>
      <trkpt lat="46.85474" lon="6.57326">
        <ele>1218.94</ele>
        <time>2020-07-14T10:16:22.369Z</time>
      </trkpt>
      <trkpt lat="46.85482" lon="6.57335">
        <ele>1219.85</ele>
        <time>2020-07-14T10:16:28.653Z</time>
      </trkpt>
      <trkpt lat="46.85491" lon="6.57351">
        <ele>1218</ele>
        <time>2020-07-14T10:16:30.202Z</time>
      </trkpt>
      <trkpt lat="46.85497" lon="6.57363">
        <ele>1217.56</ele>
        <time>2020-07-14T10:16:31.440Z</time>
      </trkpt>
      <trkpt lat="46.85536" lon="6.57405">
        <ele>1222.91</ele>
        <time>2020-07-14T10:17:08.239Z</time>
      </trkpt>
      <trkpt lat="46.85551" lon="6.57431">
        <ele>1223.11</ele>
        <time>2020-07-14T10:17:14.865Z</time>
      </trkpt>
      <trkpt lat="46.85563" lon="6.57453">
        <ele>1224.47</ele>
        <time>2020-07-14T10:17:25.077Z</time>
      </trkpt>
      <trkpt lat="46.85574" lon="6.57475">
        <ele>1224.71</ele>
        <time>2020-07-14T10:17:30.621Z</time>
      </trkpt>
      <trkpt lat="46.85585" lon="6.57494">
        <ele>1224.86</ele>
        <time>2020-07-14T10:17:35.480Z</time>
      </trkpt>
      <trkpt lat="46.85598" lon="6.57513">
        <ele>1226.31</ele>
        <time>2020-07-14T10:17:45.882Z</time>
      </trkpt>
      <trkpt lat="46.85609" lon="6.57529">
        <ele>1227.14</ele>
        <time>2020-07-14T10:17:53.167Z</time>
      </trkpt>
      <trkpt lat="46.85617" lon="6.57547">
        <ele>1227.62</ele>
        <time>2020-07-14T10:17:58.666Z</time>
      </trkpt>
      <trkpt lat="46.85631" lon="6.57582">
        <ele>1226.1</ele>
        <time>2020-07-14T10:18:01.718Z</time>
      </trkpt>
      <trkpt lat="46.8564" lon="6.576">
        <ele>1226.44</ele>
        <time>2020-07-14T10:18:06.745Z</time>
      </trkpt>
      <trkpt lat="46.85643" lon="6.57605">
        <ele>1226.32</ele>
        <time>2020-07-14T10:18:07.401Z</time>
      </trkpt>
      <trkpt lat="46.85643" lon="6.57604">
        <ele>1226.32</ele>
        <time>2020-07-14T10:18:07.581Z</time>
      </trkpt>
      <trkpt lat="46.85648" lon="6.57617">
        <ele>1226.19</ele>
        <time>2020-07-14T10:18:09.309Z</time>
      </trkpt>
      <trkpt lat="46.85654" lon="6.57631">
        <ele>1225.92</ele>
        <time>2020-07-14T10:18:10.984Z</time>
      </trkpt>
      <trkpt lat="46.85665" lon="6.5765">
        <ele>1226.23</ele>
        <time>2020-07-14T10:18:16.345Z</time>
      </trkpt>
      <trkpt lat="46.85669" lon="6.57662">
        <ele>1225.45</ele>
        <time>2020-07-14T10:18:17.343Z</time>
      </trkpt>
      <trkpt lat="46.85672" lon="6.57674">
        <ele>1224.66</ele>
        <time>2020-07-14T10:18:18.298Z</time>
      </trkpt>
      <trkpt lat="46.85675" lon="6.57684">
        <ele>1224.38</ele>
        <time>2020-07-14T10:18:19.259Z</time>
      </trkpt>
      <trkpt lat="46.85681" lon="6.57693">
        <ele>1224.53</ele>
        <time>2020-07-14T10:18:21.943Z</time>
      </trkpt>
      <trkpt lat="46.85689" lon="6.57701">
        <ele>1226.28</ele>
        <time>2020-07-14T10:18:31.752Z</time>
      </trkpt>
      <trkpt lat="46.85694" lon="6.57707">
        <ele>1226.93</ele>
        <time>2020-07-14T10:18:36.186Z</time>
      </trkpt>
      <trkpt lat="46.85697" lon="6.57715">
        <ele>1226.49</ele>
        <time>2020-07-14T10:18:36.869Z</time>
      </trkpt>
      <trkpt lat="46.85702" lon="6.57729">
        <ele>1225.81</ele>
        <time>2020-07-14T10:18:37.982Z</time>
      </trkpt>
      <trkpt lat="46.85706" lon="6.5774">
        <ele>1224.39</ele>
        <time>2020-07-14T10:18:38.914Z</time>
      </trkpt>
      <trkpt lat="46.85706" lon="6.57749">
        <ele>1224.26</ele>
        <time>2020-07-14T10:18:39.855Z</time>
      </trkpt>
      <trkpt lat="46.85707" lon="6.57762">
        <ele>1223.85</ele>
        <time>2020-07-14T10:18:40.919Z</time>
      </trkpt>
      <trkpt lat="46.85706" lon="6.57775">
        <ele>1223.21</ele>
        <time>2020-07-14T10:18:41.898Z</time>
      </trkpt>
      <trkpt lat="46.85704" lon="6.57785">
        <ele>1221.8</ele>
        <time>2020-07-14T10:18:42.677Z</time>
      </trkpt>
      <trkpt lat="46.85699" lon="6.57797">
        <ele>1219.6</ele>
        <time>2020-07-14T10:18:43.727Z</time>
      </trkpt>
      <trkpt lat="46.85695" lon="6.57806">
        <ele>1217.81</ele>
        <time>2020-07-14T10:18:44.530Z</time>
      </trkpt>
      <trkpt lat="46.8569" lon="6.57812">
        <ele>1216.35</ele>
        <time>2020-07-14T10:18:45.237Z</time>
      </trkpt>
      <trkpt lat="46.8568" lon="6.57825">
        <ele>1214.08</ele>
        <time>2020-07-14T10:18:46.700Z</time>
      </trkpt>
      <trkpt lat="46.85677" lon="6.5783">
        <ele>1213.26</ele>
        <time>2020-07-14T10:18:47.198Z</time>
      </trkpt>
      <trkpt lat="46.85676" lon="6.57836">
        <ele>1213.22</ele>
        <time>2020-07-14T10:18:47.945Z</time>
      </trkpt>
      <trkpt lat="46.85678" lon="6.57852">
        <ele>1212.86</ele>
        <time>2020-07-14T10:18:49.450Z</time>
      </trkpt>
      <trkpt lat="46.85684" lon="6.57873">
        <ele>1213.65</ele>
        <time>2020-07-14T10:18:56.627Z</time>
      </trkpt>
      <trkpt lat="46.85688" lon="6.57888">
        <ele>1213.68</ele>
        <time>2020-07-14T10:18:59.589Z</time>
      </trkpt>
      <trkpt lat="46.85692" lon="6.57897">
        <ele>1213.31</ele>
        <time>2020-07-14T10:19:00.428Z</time>
      </trkpt>
      <trkpt lat="46.85692" lon="6.57902">
        <ele>1213.05</ele>
        <time>2020-07-14T10:19:00.802Z</time>
      </trkpt>
      <trkpt lat="46.85693" lon="6.5791">
        <ele>1212.58</ele>
        <time>2020-07-14T10:19:01.410Z</time>
      </trkpt>
      <trkpt lat="46.85695" lon="6.57926">
        <ele>1212.88</ele>
        <time>2020-07-14T10:19:05.286Z</time>
      </trkpt>
      <trkpt lat="46.85696" lon="6.57933">
        <ele>1213.45</ele>
        <time>2020-07-14T10:19:09.265Z</time>
      </trkpt>
      <trkpt lat="46.85698" lon="6.5794">
        <ele>1213.95</ele>
        <time>2020-07-14T10:19:12.684Z</time>
      </trkpt>
      <trkpt lat="46.857" lon="6.57945">
        <ele>1214.3</ele>
        <time>2020-07-14T10:19:15.112Z</time>
      </trkpt>
      <trkpt lat="46.85703" lon="6.57951">
        <ele>1214.77</ele>
        <time>2020-07-14T10:19:18.343Z</time>
      </trkpt>
      <trkpt lat="46.85707" lon="6.57958">
        <ele>1215.39</ele>
        <time>2020-07-14T10:19:22.574Z</time>
      </trkpt>
      <trkpt lat="46.85711" lon="6.57964">
        <ele>1216.16</ele>
        <time>2020-07-14T10:19:28.373Z</time>
      </trkpt>
      <trkpt lat="46.85713" lon="6.57968">
        <ele>1216.47</ele>
        <time>2020-07-14T10:19:30.508Z</time>
      </trkpt>
      <trkpt lat="46.85715" lon="6.57974">
        <ele>1216.85</ele>
        <time>2020-07-14T10:19:33.186Z</time>
      </trkpt>
      <trkpt lat="46.85717" lon="6.57984">
        <ele>1217.05</ele>
        <time>2020-07-14T10:19:35.702Z</time>
      </trkpt>
      <trkpt lat="46.85721" lon="6.57995">
        <ele>1217.21</ele>
        <time>2020-07-14T10:19:38.402Z</time>
      </trkpt>
      <trkpt lat="46.85723" lon="6.58002">
        <ele>1217.69</ele>
        <time>2020-07-14T10:19:41.701Z</time>
      </trkpt>
      <trkpt lat="46.85725" lon="6.58012">
        <ele>1217.85</ele>
        <time>2020-07-14T10:19:44.055Z</time>
      </trkpt>
      <trkpt lat="46.85726" lon="6.58018">
        <ele>1217.81</ele>
        <time>2020-07-14T10:19:44.802Z</time>
      </trkpt>
      <trkpt lat="46.85727" lon="6.58023">
        <ele>1217.85</ele>
        <time>2020-07-14T10:19:45.844Z</time>
      </trkpt>
      <trkpt lat="46.85729" lon="6.58031">
        <ele>1218.14</ele>
        <time>2020-07-14T10:19:48.512Z</time>
      </trkpt>
      <trkpt lat="46.85731" lon="6.5804">
        <ele>1218</ele>
        <time>2020-07-14T10:19:49.497Z</time>
      </trkpt>
      <trkpt lat="46.85733" lon="6.58044">
        <ele>1218.18</ele>
        <time>2020-07-14T10:19:51.084Z</time>
      </trkpt>
      <trkpt lat="46.85734" lon="6.58054">
        <ele>1218.31</ele>
        <time>2020-07-14T10:19:53.274Z</time>
      </trkpt>
      <trkpt lat="46.85739" lon="6.58064">
        <ele>1218.33</ele>
        <time>2020-07-14T10:19:55.546Z</time>
      </trkpt>
      <trkpt lat="46.85741" lon="6.58072">
        <ele>1218.51</ele>
        <time>2020-07-14T10:19:57.678Z</time>
      </trkpt>
      <trkpt lat="46.85744" lon="6.5808">
        <ele>1218.68</ele>
        <time>2020-07-14T10:19:59.860Z</time>
      </trkpt>
      <trkpt lat="46.85746" lon="6.58086">
        <ele>1218.97</ele>
        <time>2020-07-14T10:20:02.158Z</time>
      </trkpt>
      <trkpt lat="46.85749" lon="6.5809">
        <ele>1219.18</ele>
        <time>2020-07-14T10:20:04.042Z</time>
      </trkpt>
      <trkpt lat="46.85751" lon="6.58094">
        <ele>1219.31</ele>
        <time>2020-07-14T10:20:05.412Z</time>
      </trkpt>
      <trkpt lat="46.85755" lon="6.58103">
        <ele>1219.72</ele>
        <time>2020-07-14T10:20:08.914Z</time>
      </trkpt>
      <trkpt lat="46.85759" lon="6.58113">
        <ele>1220.08</ele>
        <time>2020-07-14T10:20:12.444Z</time>
      </trkpt>
      <trkpt lat="46.85774" lon="6.58148">
        <ele>1221.77</ele>
        <time>2020-07-14T10:20:26.295Z</time>
      </trkpt>
      <trkpt lat="46.85777" lon="6.58155">
        <ele>1222.17</ele>
        <time>2020-07-14T10:20:29.296Z</time>
      </trkpt>
      <trkpt lat="46.85781" lon="6.58161">
        <ele>1222.53</ele>
        <time>2020-07-14T10:20:32.166Z</time>
      </trkpt>
      <trkpt lat="46.85782" lon="6.58163">
        <ele>1222.67</ele>
        <time>2020-07-14T10:20:33.155Z</time>
      </trkpt>
      <trkpt lat="46.85784" lon="6.58165">
        <ele>1222.84</ele>
        <time>2020-07-14T10:20:34.436Z</time>
      </trkpt>
      <trkpt lat="46.85786" lon="6.58168">
        <ele>1223.05</ele>
        <time>2020-07-14T10:20:35.987Z</time>
      </trkpt>
      <trkpt lat="46.85789" lon="6.58173">
        <ele>1223.07</ele>
        <time>2020-07-14T10:20:37.231Z</time>
      </trkpt>
      <trkpt lat="46.85791" lon="6.58176">
        <ele>1223.29</ele>
        <time>2020-07-14T10:20:38.825Z</time>
      </trkpt>
      <trkpt lat="46.85793" lon="6.5818">
        <ele>1223.6</ele>
        <time>2020-07-14T10:20:40.960Z</time>
      </trkpt>
      <trkpt lat="46.85794" lon="6.58183">
        <ele>1223.7</ele>
        <time>2020-07-14T10:20:41.960Z</time>
      </trkpt>
      <trkpt lat="46.85796" lon="6.58186">
        <ele>1223.65</ele>
        <time>2020-07-14T10:20:42.418Z</time>
      </trkpt>
      <trkpt lat="46.85798" lon="6.58191">
        <ele>1223.7</ele>
        <time>2020-07-14T10:20:43.593Z</time>
      </trkpt>
      <trkpt lat="46.85799" lon="6.58193">
        <ele>1223.65</ele>
        <time>2020-07-14T10:20:43.829Z</time>
      </trkpt>
      <trkpt lat="46.85801" lon="6.58199">
        <ele>1223.73</ele>
        <time>2020-07-14T10:20:45.256Z</time>
      </trkpt>
      <trkpt lat="46.85803" lon="6.58205">
        <ele>1223.96</ele>
        <time>2020-07-14T10:20:47.356Z</time>
      </trkpt>
      <trkpt lat="46.85806" lon="6.58215">
        <ele>1223.98</ele>
        <time>2020-07-14T10:20:49.364Z</time>
      </trkpt>
      <trkpt lat="46.85808" lon="6.5822">
        <ele>1224.02</ele>
        <time>2020-07-14T10:20:50.509Z</time>
      </trkpt>
      <trkpt lat="46.85811" lon="6.58225">
        <ele>1224.24</ele>
        <time>2020-07-14T10:20:52.574Z</time>
      </trkpt>
      <trkpt lat="46.85815" lon="6.58228">
        <ele>1224.16</ele>
        <time>2020-07-14T10:20:53.290Z</time>
      </trkpt>
      <trkpt lat="46.85818" lon="6.58232">
        <ele>1224.16</ele>
        <time>2020-07-14T10:20:54.355Z</time>
      </trkpt>
      <trkpt lat="46.85827" lon="6.58253">
        <ele>1224.2</ele>
        <time>2020-07-14T10:20:58.900Z</time>
      </trkpt>
      <trkpt lat="46.85835" lon="6.58272">
        <ele>1223.48</ele>
        <time>2020-07-14T10:21:00.693Z</time>
      </trkpt>
      <trkpt lat="46.85836" lon="6.58276">
        <ele>1223.57</ele>
        <time>2020-07-14T10:21:01.759Z</time>
      </trkpt>
      <trkpt lat="46.85839" lon="6.58288">
        <ele>1222.75</ele>
        <time>2020-07-14T10:21:02.714Z</time>
      </trkpt>
      <trkpt lat="46.85841" lon="6.583">
        <ele>1221.85</ele>
        <time>2020-07-14T10:21:03.638Z</time>
      </trkpt>
      <trkpt lat="46.85843" lon="6.58309">
        <ele>1221.11</ele>
        <time>2020-07-14T10:21:04.345Z</time>
      </trkpt>
      <trkpt lat="46.85845" lon="6.58322">
        <ele>1219.97</ele>
        <time>2020-07-14T10:21:05.342Z</time>
      </trkpt>
      <trkpt lat="46.85846" lon="6.58335">
        <ele>1218.89</ele>
        <time>2020-07-14T10:21:06.320Z</time>
      </trkpt>
      <trkpt lat="46.85849" lon="6.58345">
        <ele>1217.76</ele>
        <time>2020-07-14T10:21:07.137Z</time>
      </trkpt>
      <trkpt lat="46.85851" lon="6.58352">
        <ele>1217.03</ele>
        <time>2020-07-14T10:21:07.704Z</time>
      </trkpt>
      <trkpt lat="46.85854" lon="6.58358">
        <ele>1216.29</ele>
        <time>2020-07-14T10:21:08.260Z</time>
      </trkpt>
      <trkpt lat="46.85861" lon="6.58381">
        <ele>1214.22</ele>
        <time>2020-07-14T10:21:10.142Z</time>
      </trkpt>
      <trkpt lat="46.85869" lon="6.58395">
        <ele>1212.43</ele>
        <time>2020-07-14T10:21:11.506Z</time>
      </trkpt>
      <trkpt lat="46.85884" lon="6.58418">
        <ele>1209.73</ele>
        <time>2020-07-14T10:21:13.883Z</time>
      </trkpt>
      <trkpt lat="46.85888" lon="6.58426">
        <ele>1209.07</ele>
        <time>2020-07-14T10:21:14.624Z</time>
      </trkpt>
      <trkpt lat="46.85893" lon="6.58441">
        <ele>1207.43</ele>
        <time>2020-07-14T10:21:15.872Z</time>
      </trkpt>
      <trkpt lat="46.85895" lon="6.5845">
        <ele>1206.87</ele>
        <time>2020-07-14T10:21:16.579Z</time>
      </trkpt>
      <trkpt lat="46.85898" lon="6.58462">
        <ele>1206.25</ele>
        <time>2020-07-14T10:21:17.535Z</time>
      </trkpt>
      <trkpt lat="46.85903" lon="6.58482">
        <ele>1204.61</ele>
        <time>2020-07-14T10:21:19.127Z</time>
      </trkpt>
      <trkpt lat="46.85905" lon="6.58497">
        <ele>1203.24</ele>
        <time>2020-07-14T10:21:20.270Z</time>
      </trkpt>
      <trkpt lat="46.85907" lon="6.58507">
        <ele>1202.27</ele>
        <time>2020-07-14T10:21:21.049Z</time>
      </trkpt>
      <trkpt lat="46.8591" lon="6.58519">
        <ele>1201.26</ele>
        <time>2020-07-14T10:21:22.004Z</time>
      </trkpt>
      <trkpt lat="46.85913" lon="6.58531">
        <ele>1200.39</ele>
        <time>2020-07-14T10:21:22.960Z</time>
      </trkpt>
      <trkpt lat="46.85919" lon="6.58553">
        <ele>1198.28</ele>
        <time>2020-07-14T10:21:24.731Z</time>
      </trkpt>
      <trkpt lat="46.85919" lon="6.58556">
        <ele>1198.13</ele>
        <time>2020-07-14T10:21:24.955Z</time>
      </trkpt>
      <trkpt lat="46.85919" lon="6.58554">
        <ele>1198.13</ele>
        <time>2020-07-14T10:21:25.314Z</time>
      </trkpt>
      <trkpt lat="46.85919" lon="6.58557">
        <ele>1197.99</ele>
        <time>2020-07-14T10:21:25.538Z</time>
      </trkpt>
      <trkpt lat="46.85927" lon="6.58584">
        <ele>1196.96</ele>
        <time>2020-07-14T10:21:27.822Z</time>
      </trkpt>
      <trkpt lat="46.85933" lon="6.58605">
        <ele>1196.61</ele>
        <time>2020-07-14T10:21:30.165Z</time>
      </trkpt>
      <trkpt lat="46.85939" lon="6.58621">
        <ele>1196.47</ele>
        <time>2020-07-14T10:21:32.322Z</time>
      </trkpt>
      <trkpt lat="46.85943" lon="6.58635">
        <ele>1196.76</ele>
        <time>2020-07-14T10:21:35.981Z</time>
      </trkpt>
      <trkpt lat="46.85947" lon="6.58648">
        <ele>1197.14</ele>
        <time>2020-07-14T10:21:39.959Z</time>
      </trkpt>
      <trkpt lat="46.85952" lon="6.58664">
        <ele>1197.6</ele>
        <time>2020-07-14T10:21:44.817Z</time>
      </trkpt>
      <trkpt lat="46.85956" lon="6.58675">
        <ele>1197.85</ele>
        <time>2020-07-14T10:21:47.874Z</time>
      </trkpt>
      <trkpt lat="46.85961" lon="6.58689">
        <ele>1198.04</ele>
        <time>2020-07-14T10:21:51.252Z</time>
      </trkpt>
      <trkpt lat="46.85979" lon="6.58739">
        <ele>1199.51</ele>
        <time>2020-07-14T10:22:06.813Z</time>
      </trkpt>
      <trkpt lat="46.85981" lon="6.58743">
        <ele>1199.67</ele>
        <time>2020-07-14T10:22:08.340Z</time>
      </trkpt>
      <trkpt lat="46.85985" lon="6.58754">
        <ele>1200.22</ele>
        <time>2020-07-14T10:22:12.661Z</time>
      </trkpt>
      <trkpt lat="46.85988" lon="6.58764">
        <ele>1200.14</ele>
        <time>2020-07-14T10:22:13.960Z</time>
      </trkpt>
      <trkpt lat="46.85991" lon="6.58776">
        <ele>1199.95</ele>
        <time>2020-07-14T10:22:15.287Z</time>
      </trkpt>
      <trkpt lat="46.85991" lon="6.58781">
        <ele>1199.78</ele>
        <time>2020-07-14T10:22:15.680Z</time>
      </trkpt>
      <trkpt lat="46.85994" lon="6.58789">
        <ele>1200.01</ele>
        <time>2020-07-14T10:22:18.151Z</time>
      </trkpt>
      <trkpt lat="46.85999" lon="6.58797">
        <ele>1200.59</ele>
        <time>2020-07-14T10:22:22.324Z</time>
      </trkpt>
      <trkpt lat="46.8601" lon="6.5881">
        <ele>1201.76</ele>
        <time>2020-07-14T10:22:30.584Z</time>
      </trkpt>
      <trkpt lat="46.86013" lon="6.58817">
        <ele>1201.87</ele>
        <time>2020-07-14T10:22:32.388Z</time>
      </trkpt>
      <trkpt lat="46.86014" lon="6.58823">
        <ele>1201.8</ele>
        <time>2020-07-14T10:22:33.070Z</time>
      </trkpt>
      <trkpt lat="46.86014" lon="6.58828">
        <ele>1201.69</ele>
        <time>2020-07-14T10:22:33.534Z</time>
      </trkpt>
      <trkpt lat="46.86017" lon="6.58833">
        <ele>1201.73</ele>
        <time>2020-07-14T10:22:34.832Z</time>
      </trkpt>
      <trkpt lat="46.86025" lon="6.58839">
        <ele>1202.64</ele>
        <time>2020-07-14T10:22:41.040Z</time>
      </trkpt>
      <trkpt lat="46.86031" lon="6.58845">
        <ele>1203.68</ele>
        <time>2020-07-14T10:22:48.396Z</time>
      </trkpt>
      <trkpt lat="46.86036" lon="6.58849">
        <ele>1204.36</ele>
        <time>2020-07-14T10:22:53.187Z</time>
      </trkpt>
      <trkpt lat="46.8604" lon="6.58851">
        <ele>1204.92</ele>
        <time>2020-07-14T10:22:57.406Z</time>
      </trkpt>
      <trkpt lat="46.86042" lon="6.58854">
        <ele>1205.3</ele>
        <time>2020-07-14T10:23:00.273Z</time>
      </trkpt>
      <trkpt lat="46.86049" lon="6.58866">
        <ele>1206.53</ele>
        <time>2020-07-14T10:23:08.799Z</time>
      </trkpt>
      <trkpt lat="46.86055" lon="6.58875">
        <ele>1207.15</ele>
        <time>2020-07-14T10:23:13.411Z</time>
      </trkpt>
      <trkpt lat="46.86059" lon="6.58884">
        <ele>1207.53</ele>
        <time>2020-07-14T10:23:16.818Z</time>
      </trkpt>
      <trkpt lat="46.86065" lon="6.58894">
        <ele>1208.35</ele>
        <time>2020-07-14T10:23:22.481Z</time>
      </trkpt>
      <trkpt lat="46.86068" lon="6.589">
        <ele>1208.32</ele>
        <time>2020-07-14T10:23:23.704Z</time>
      </trkpt>
      <trkpt lat="46.8607" lon="6.58904">
        <ele>1208.57</ele>
        <time>2020-07-14T10:23:25.546Z</time>
      </trkpt>
      <trkpt lat="46.86074" lon="6.58909">
        <ele>1208.84</ele>
        <time>2020-07-14T10:23:27.981Z</time>
      </trkpt>
      <trkpt lat="46.86079" lon="6.58916">
        <ele>1209.27</ele>
        <time>2020-07-14T10:23:31.431Z</time>
      </trkpt>
      <trkpt lat="46.86084" lon="6.5892">
        <ele>1209.5</ele>
        <time>2020-07-14T10:23:33.803Z</time>
      </trkpt>
      <trkpt lat="46.86088" lon="6.58926">
        <ele>1209.67</ele>
        <time>2020-07-14T10:23:35.868Z</time>
      </trkpt>
      <trkpt lat="46.86091" lon="6.58931">
        <ele>1209.86</ele>
        <time>2020-07-14T10:23:37.801Z</time>
      </trkpt>
      <trkpt lat="46.86099" lon="6.5894">
        <ele>1210.16</ele>
        <time>2020-07-14T10:23:41.440Z</time>
      </trkpt>
      <trkpt lat="46.86106" lon="6.58951">
        <ele>1210.58</ele>
        <time>2020-07-14T10:23:45.749Z</time>
      </trkpt>
      <trkpt lat="46.8611" lon="6.58956">
        <ele>1210.74</ele>
        <time>2020-07-14T10:23:47.663Z</time>
      </trkpt>
      <trkpt lat="46.86115" lon="6.58961">
        <ele>1211.11</ele>
        <time>2020-07-14T10:23:50.660Z</time>
      </trkpt>
      <trkpt lat="46.8612" lon="6.58965">
        <ele>1211.62</ele>
        <time>2020-07-14T10:23:54.187Z</time>
      </trkpt>
      <trkpt lat="46.86126" lon="6.58969">
        <ele>1212.24</ele>
        <time>2020-07-14T10:23:58.439Z</time>
      </trkpt>
      <trkpt lat="46.86132" lon="6.58974">
        <ele>1212.86</ele>
        <time>2020-07-14T10:24:02.724Z</time>
      </trkpt>
      <trkpt lat="46.86138" lon="6.58976">
        <ele>1213.85</ele>
        <time>2020-07-14T10:24:08.952Z</time>
      </trkpt>
      <trkpt lat="46.8614" lon="6.58979">
        <ele>1214.03</ele>
        <time>2020-07-14T10:24:10.387Z</time>
      </trkpt>
      <trkpt lat="46.86142" lon="6.58982">
        <ele>1214.36</ele>
        <time>2020-07-14T10:24:12.682Z</time>
      </trkpt>
      <trkpt lat="46.86149" lon="6.58988">
        <ele>1215.14</ele>
        <time>2020-07-14T10:24:18.017Z</time>
      </trkpt>
      <trkpt lat="46.86153" lon="6.5899">
        <ele>1215.43</ele>
        <time>2020-07-14T10:24:20.226Z</time>
      </trkpt>
      <trkpt lat="46.86158" lon="6.58994">
        <ele>1216.05</ele>
        <time>2020-07-14T10:24:24.479Z</time>
      </trkpt>
      <trkpt lat="46.86162" lon="6.58998">
        <ele>1216.31</ele>
        <time>2020-07-14T10:24:26.756Z</time>
      </trkpt>
      <trkpt lat="46.86165" lon="6.59">
        <ele>1216.79</ele>
        <time>2020-07-14T10:24:30.093Z</time>
      </trkpt>
      <trkpt lat="46.86169" lon="6.59002">
        <ele>1216.99</ele>
        <time>2020-07-14T10:24:31.999Z</time>
      </trkpt>
      <trkpt lat="46.86174" lon="6.59005">
        <ele>1217.68</ele>
        <time>2020-07-14T10:24:37.048Z</time>
      </trkpt>
      <trkpt lat="46.86178" lon="6.59006">
        <ele>1218.33</ele>
        <time>2020-07-14T10:24:41.155Z</time>
      </trkpt>
      <trkpt lat="46.86182" lon="6.59008">
        <ele>1218.53</ele>
        <time>2020-07-14T10:24:43.061Z</time>
      </trkpt>
      <trkpt lat="46.86192" lon="6.59036">
        <ele>1215.81</ele>
        <time>2020-07-14T10:24:45.423Z</time>
      </trkpt>
      <trkpt lat="46.86197" lon="6.59053">
        <ele>1213.83</ele>
        <time>2020-07-14T10:24:46.807Z</time>
      </trkpt>
      <trkpt lat="46.862" lon="6.59074">
        <ele>1211.9</ele>
        <time>2020-07-14T10:24:48.411Z</time>
      </trkpt>
      <trkpt lat="46.86205" lon="6.59097">
        <ele>1210.74</ele>
        <time>2020-07-14T10:24:50.216Z</time>
      </trkpt>
      <trkpt lat="46.86212" lon="6.59133">
        <ele>1209.27</ele>
        <time>2020-07-14T10:24:52.972Z</time>
      </trkpt>
      <trkpt lat="46.86218" lon="6.59142">
        <ele>1208.98</ele>
        <time>2020-07-14T10:24:54.119Z</time>
      </trkpt>
      <trkpt lat="46.86223" lon="6.59151">
        <ele>1208.7</ele>
        <time>2020-07-14T10:24:55.161Z</time>
      </trkpt>
      <trkpt lat="46.86232" lon="6.59175">
        <ele>1207.99</ele>
        <time>2020-07-14T10:24:57.558Z</time>
      </trkpt>
      <trkpt lat="46.86238" lon="6.59186">
        <ele>1207.63</ele>
        <time>2020-07-14T10:24:58.796Z</time>
      </trkpt>
      <trkpt lat="46.86249" lon="6.59201">
        <ele>1206.64</ele>
        <time>2020-07-14T10:25:00.313Z</time>
      </trkpt>
      <trkpt lat="46.86264" lon="6.59218">
        <ele>1204.72</ele>
        <time>2020-07-14T10:25:02.388Z</time>
      </trkpt>
      <trkpt lat="46.86271" lon="6.59229">
        <ele>1203.92</ele>
        <time>2020-07-14T10:25:03.511Z</time>
      </trkpt>
      <trkpt lat="46.8628" lon="6.59246">
        <ele>1203.19</ele>
        <time>2020-07-14T10:25:05.202Z</time>
      </trkpt>
      <trkpt lat="46.86288" lon="6.59263">
        <ele>1202.64</ele>
        <time>2020-07-14T10:25:06.991Z</time>
      </trkpt>
      <trkpt lat="46.86297" lon="6.59289">
        <ele>1201.71</ele>
        <time>2020-07-14T10:25:09.344Z</time>
      </trkpt>
      <trkpt lat="46.86307" lon="6.59324">
        <ele>1200.69</ele>
        <time>2020-07-14T10:25:12.621Z</time>
      </trkpt>
      <trkpt lat="46.86312" lon="6.59345">
        <ele>1200.32</ele>
        <time>2020-07-14T10:25:14.864Z</time>
      </trkpt>
      <trkpt lat="46.86315" lon="6.59359">
        <ele>1200.19</ele>
        <time>2020-07-14T10:25:16.559Z</time>
      </trkpt>
      <trkpt lat="46.86319" lon="6.59405">
        <ele>1200.28</ele>
        <time>2020-07-14T10:25:25.100Z</time>
      </trkpt>
      <trkpt lat="46.86322" lon="6.59422">
        <ele>1200.3</ele>
        <time>2020-07-14T10:25:28.298Z</time>
      </trkpt>
      <trkpt lat="46.86321" lon="6.59422">
        <ele>1200.3</ele>
        <time>2020-07-14T10:25:28.561Z</time>
      </trkpt>
      <trkpt lat="46.86322" lon="6.59424">
        <ele>1200.32</ele>
        <time>2020-07-14T10:25:29.059Z</time>
      </trkpt>
      <trkpt lat="46.86326" lon="6.59449">
        <ele>1200.38</ele>
        <time>2020-07-14T10:25:33.814Z</time>
      </trkpt>
      <trkpt lat="46.86332" lon="6.59477">
        <ele>1200.24</ele>
        <time>2020-07-14T10:25:38.570Z</time>
      </trkpt>
      <trkpt lat="46.86336" lon="6.59499">
        <ele>1200.07</ele>
        <time>2020-07-14T10:25:41.270Z</time>
      </trkpt>
      <trkpt lat="46.86339" lon="6.59521">
        <ele>1199.93</ele>
        <time>2020-07-14T10:25:43.995Z</time>
      </trkpt>
      <trkpt lat="46.86341" lon="6.59545">
        <ele>1199.98</ele>
        <time>2020-07-14T10:25:48.457Z</time>
      </trkpt>
      <trkpt lat="46.86342" lon="6.59559">
        <ele>1200.01</ele>
        <time>2020-07-14T10:25:51.056Z</time>
      </trkpt>
      <trkpt lat="46.86342" lon="6.59579">
        <ele>1200.23</ele>
        <time>2020-07-14T10:25:55.264Z</time>
      </trkpt>
      <trkpt lat="46.86342" lon="6.59594">
        <ele>1200.56</ele>
        <time>2020-07-14T10:25:59.080Z</time>
      </trkpt>
      <trkpt lat="46.86342" lon="6.59616">
        <ele>1200.95</ele>
        <time>2020-07-14T10:26:04.256Z</time>
      </trkpt>
      <trkpt lat="46.86343" lon="6.59659">
        <ele>1200.67</ele>
        <time>2020-07-14T10:26:09.455Z</time>
      </trkpt>
      <trkpt lat="46.86344" lon="6.59683">
        <ele>1200.28</ele>
        <time>2020-07-14T10:26:11.897Z</time>
      </trkpt>
      <trkpt lat="46.86346" lon="6.597">
        <ele>1199.8</ele>
        <time>2020-07-14T10:26:13.368Z</time>
      </trkpt>
      <trkpt lat="46.86348" lon="6.59723">
        <ele>1199.32</ele>
        <time>2020-07-14T10:26:15.561Z</time>
      </trkpt>
      <trkpt lat="46.86349" lon="6.5974">
        <ele>1199.28</ele>
        <time>2020-07-14T10:26:18.469Z</time>
      </trkpt>
      <trkpt lat="46.8635" lon="6.5976">
        <ele>1199.31</ele>
        <time>2020-07-14T10:26:22.140Z</time>
      </trkpt>
      <trkpt lat="46.86349" lon="6.59819">
        <ele>1200.09</ele>
        <time>2020-07-14T10:26:35.007Z</time>
      </trkpt>
      <trkpt lat="46.86351" lon="6.59899">
        <ele>1199.69</ele>
        <time>2020-07-14T10:26:44.975Z</time>
      </trkpt>
      <trkpt lat="46.86353" lon="6.6005">
        <ele>1197.8</ele>
        <time>2020-07-14T10:27:01.306Z</time>
      </trkpt>
      <trkpt lat="46.86353" lon="6.60101">
        <ele>1197.34</ele>
        <time>2020-07-14T10:27:07.180Z</time>
      </trkpt>
      <trkpt lat="46.86354" lon="6.60158">
        <ele>1197.3</ele>
        <time>2020-07-14T10:27:17.251Z</time>
      </trkpt>
      <trkpt lat="46.86354" lon="6.60157">
        <ele>1197.3</ele>
        <time>2020-07-14T10:27:17.431Z</time>
      </trkpt>
      <trkpt lat="46.86356" lon="6.6033">
        <ele>1197.25</ele>
        <time>2020-07-14T10:27:48.272Z</time>
      </trkpt>
      <trkpt lat="46.86355" lon="6.60371">
        <ele>1197.86</ele>
        <time>2020-07-14T10:27:57.463Z</time>
      </trkpt>
      <trkpt lat="46.86353" lon="6.60409">
        <ele>1198.66</ele>
        <time>2020-07-14T10:28:06.976Z</time>
      </trkpt>
      <trkpt lat="46.86352" lon="6.60444">
        <ele>1199.75</ele>
        <time>2020-07-14T10:28:17.651Z</time>
      </trkpt>
      <trkpt lat="46.8635" lon="6.60469">
        <ele>1200.59</ele>
        <time>2020-07-14T10:28:25.486Z</time>
      </trkpt>
      <trkpt lat="46.86347" lon="6.60496">
        <ele>1201.13</ele>
        <time>2020-07-14T10:28:32.157Z</time>
      </trkpt>
      <trkpt lat="46.86344" lon="6.6051">
        <ele>1201.41</ele>
        <time>2020-07-14T10:28:35.694Z</time>
      </trkpt>
      <trkpt lat="46.86341" lon="6.6052">
        <ele>1201.24</ele>
        <time>2020-07-14T10:28:36.815Z</time>
      </trkpt>
      <trkpt lat="46.86334" lon="6.60532">
        <ele>1201.17</ele>
        <time>2020-07-14T10:28:39.389Z</time>
      </trkpt>
      <trkpt lat="46.86315" lon="6.60531">
        <ele>1201.02</ele>
        <time>2020-07-14T10:28:42.823Z</time>
      </trkpt>
      <trkpt lat="46.86306" lon="6.60531">
        <ele>1200.94</ele>
        <time>2020-07-14T10:28:44.428Z</time>
      </trkpt>
      <trkpt lat="46.86311" lon="6.6054">
        <ele>1201.1</ele>
        <time>2020-07-14T10:28:46.980Z</time>
      </trkpt>
      <trkpt lat="46.86316" lon="6.60549">
        <ele>1201.42</ele>
        <time>2020-07-14T10:28:50.280Z</time>
      </trkpt>
      <trkpt lat="46.86319" lon="6.60559">
        <ele>1201.73</ele>
        <time>2020-07-14T10:28:53.442Z</time>
      </trkpt>
      <trkpt lat="46.8634" lon="6.6064">
        <ele>1204.1</ele>
        <time>2020-07-14T10:29:17.975Z</time>
      </trkpt>
      <trkpt lat="46.8635" lon="6.60674">
        <ele>1205.04</ele>
        <time>2020-07-14T10:29:28.039Z</time>
      </trkpt>
      <trkpt lat="46.86396" lon="6.60847">
        <ele>1209.74</ele>
        <time>2020-07-14T10:30:18.435Z</time>
      </trkpt>
      <trkpt lat="46.86439" lon="6.6101">
        <ele>1212.47</ele>
        <time>2020-07-14T10:30:58.077Z</time>
      </trkpt>
      <trkpt lat="46.86439" lon="6.61009">
        <ele>1212.47</ele>
        <time>2020-07-14T10:30:58.257Z</time>
      </trkpt>
      <trkpt lat="46.8645" lon="6.61053">
        <ele>1215.21</ele>
        <time>2020-07-14T10:31:17.414Z</time>
      </trkpt>
      <trkpt lat="46.8651" lon="6.61276">
        <ele>1221.41</ele>
        <time>2020-07-14T10:32:23.212Z</time>
      </trkpt>
      <trkpt lat="46.86567" lon="6.61488">
        <ele>1228.71</ele>
        <time>2020-07-14T10:33:33.235Z</time>
      </trkpt>
      <trkpt lat="46.86587" lon="6.61565">
        <ele>1231.45</ele>
        <time>2020-07-14T10:33:58.847Z</time>
      </trkpt>
      <trkpt lat="46.86596" lon="6.61592">
        <ele>1232.42</ele>
        <time>2020-07-14T10:34:08.102Z</time>
      </trkpt>
      <trkpt lat="46.86605" lon="6.61617">
        <ele>1233.37</ele>
        <time>2020-07-14T10:34:16.917Z</time>
      </trkpt>
      <trkpt lat="46.86648" lon="6.61721">
        <ele>1237.15</ele>
        <time>2020-07-14T10:34:53.947Z</time>
      </trkpt>
      <trkpt lat="46.86659" lon="6.61746">
        <ele>1238.09</ele>
        <time>2020-07-14T10:35:03.049Z</time>
      </trkpt>
      <trkpt lat="46.86671" lon="6.61775">
        <ele>1239.03</ele>
        <time>2020-07-14T10:35:12.725Z</time>
      </trkpt>
      <trkpt lat="46.86689" lon="6.61819">
        <ele>1240.26</ele>
        <time>2020-07-14T10:35:26.280Z</time>
      </trkpt>
      <trkpt lat="46.86699" lon="6.61843">
        <ele>1240.82</ele>
        <time>2020-07-14T10:35:33.158Z</time>
      </trkpt>
      <trkpt lat="46.86712" lon="6.61875">
        <ele>1241.49</ele>
        <time>2020-07-14T10:35:41.957Z</time>
      </trkpt>
      <trkpt lat="46.86722" lon="6.61899">
        <ele>1242</ele>
        <time>2020-07-14T10:35:48.619Z</time>
      </trkpt>
      <trkpt lat="46.86731" lon="6.61923">
        <ele>1242.48</ele>
        <time>2020-07-14T10:35:55.037Z</time>
      </trkpt>
      <trkpt lat="46.86741" lon="6.61948">
        <ele>1242.98</ele>
        <time>2020-07-14T10:36:01.796Z</time>
      </trkpt>
      <trkpt lat="46.8675" lon="6.61968">
        <ele>1243.4</ele>
        <time>2020-07-14T10:36:07.411Z</time>
      </trkpt>
      <trkpt lat="46.86759" lon="6.61992">
        <ele>1243.87</ele>
        <time>2020-07-14T10:36:13.789Z</time>
      </trkpt>
      <trkpt lat="46.8677" lon="6.62017">
        <ele>1244.21</ele>
        <time>2020-07-14T10:36:20.087Z</time>
      </trkpt>
      <trkpt lat="46.86794" lon="6.62076">
        <ele>1244.55</ele>
        <time>2020-07-14T10:36:33.278Z</time>
      </trkpt>
      <trkpt lat="46.86805" lon="6.62103">
        <ele>1244.53</ele>
        <time>2020-07-14T10:36:38.837Z</time>
      </trkpt>
      <trkpt lat="46.86815" lon="6.62126">
        <ele>1244.41</ele>
        <time>2020-07-14T10:36:43.287Z</time>
      </trkpt>
      <trkpt lat="46.86824" lon="6.62147">
        <ele>1244.22</ele>
        <time>2020-07-14T10:36:46.216Z</time>
      </trkpt>
      <trkpt lat="46.86829" lon="6.62162">
        <ele>1244.05</ele>
        <time>2020-07-14T10:36:48.097Z</time>
      </trkpt>
      <trkpt lat="46.86849" lon="6.62211">
        <ele>1243.3</ele>
        <time>2020-07-14T10:36:54.200Z</time>
      </trkpt>
      <trkpt lat="46.86871" lon="6.62264">
        <ele>1242.37</ele>
        <time>2020-07-14T10:37:00.625Z</time>
      </trkpt>
      <trkpt lat="46.86906" lon="6.62348">
        <ele>1240.52</ele>
        <time>2020-07-14T10:37:10.205Z</time>
      </trkpt>
      <trkpt lat="46.86921" lon="6.62385">
        <ele>1239.72</ele>
        <time>2020-07-14T10:37:14.409Z</time>
      </trkpt>
      <trkpt lat="46.86932" lon="6.62411">
        <ele>1239.12</ele>
        <time>2020-07-14T10:37:17.349Z</time>
      </trkpt>
      <trkpt lat="46.86946" lon="6.62446">
        <ele>1238.33</ele>
        <time>2020-07-14T10:37:21.257Z</time>
      </trkpt>
      <trkpt lat="46.86982" lon="6.62534">
        <ele>1236.43</ele>
        <time>2020-07-14T10:37:31.289Z</time>
      </trkpt>
      <trkpt lat="46.87002" lon="6.62583">
        <ele>1235.3</ele>
        <time>2020-07-14T10:37:36.761Z</time>
      </trkpt>
      <trkpt lat="46.87018" lon="6.62628">
        <ele>1234.13</ele>
        <time>2020-07-14T10:37:41.390Z</time>
      </trkpt>
      <trkpt lat="46.87028" lon="6.62659">
        <ele>1233.32</ele>
        <time>2020-07-14T10:37:44.492Z</time>
      </trkpt>
      <trkpt lat="46.87036" lon="6.62685">
        <ele>1232.66</ele>
        <time>2020-07-14T10:37:47.091Z</time>
      </trkpt>
      <trkpt lat="46.87047" lon="6.62723">
        <ele>1231.77</ele>
        <time>2020-07-14T10:37:50.943Z</time>
      </trkpt>
      <trkpt lat="46.87099" lon="6.62926">
        <ele>1226.68</ele>
        <time>2020-07-14T10:38:10.606Z</time>
      </trkpt>
      <trkpt lat="46.87105" lon="6.62943">
        <ele>1226.28</ele>
        <time>2020-07-14T10:38:12.410Z</time>
      </trkpt>
      <trkpt lat="46.87112" lon="6.62961">
        <ele>1225.83</ele>
        <time>2020-07-14T10:38:14.338Z</time>
      </trkpt>
      <trkpt lat="46.87119" lon="6.62979">
        <ele>1225.3</ele>
        <time>2020-07-14T10:38:16.160Z</time>
      </trkpt>
      <trkpt lat="46.87158" lon="6.63066">
        <ele>1223.65</ele>
        <time>2020-07-14T10:38:26.785Z</time>
      </trkpt>
      <trkpt lat="46.87158" lon="6.63066">
        <ele>1223.65</ele>
        <time>2020-07-14T10:38:26.785Z</time>
      </trkpt>
      <trkpt lat="46.87171" lon="6.63096">
        <ele>1222</ele>
        <time>2020-07-14T10:38:29.440Z</time>
      </trkpt>
      <trkpt lat="46.87243" lon="6.63253">
        <ele>1217.07</ele>
        <time>2020-07-14T10:38:45.958Z</time>
      </trkpt>
      <trkpt lat="46.87256" lon="6.63283">
        <ele>1216.21</ele>
        <time>2020-07-14T10:38:49.146Z</time>
      </trkpt>
      <trkpt lat="46.87271" lon="6.63316">
        <ele>1215.53</ele>
        <time>2020-07-14T10:38:53.108Z</time>
      </trkpt>
      <trkpt lat="46.87337" lon="6.63464">
        <ele>1215.26</ele>
        <time>2020-07-14T10:39:23.755Z</time>
      </trkpt>
      <trkpt lat="46.87363" lon="6.6352">
        <ele>1215.62</ele>
        <time>2020-07-14T10:39:36.829Z</time>
      </trkpt>
      <trkpt lat="46.87374" lon="6.63545">
        <ele>1216.08</ele>
        <time>2020-07-14T10:39:43.556Z</time>
      </trkpt>
      <trkpt lat="46.87384" lon="6.63566">
        <ele>1216.34</ele>
        <time>2020-07-14T10:39:48.870Z</time>
      </trkpt>
      <trkpt lat="46.87391" lon="6.63581">
        <ele>1216.54</ele>
        <time>2020-07-14T10:39:52.692Z</time>
      </trkpt>
      <trkpt lat="46.87395" lon="6.63589">
        <ele>1216.63</ele>
        <time>2020-07-14T10:39:54.716Z</time>
      </trkpt>
      <trkpt lat="46.87407" lon="6.63606">
        <ele>1217.19</ele>
        <time>2020-07-14T10:40:01.042Z</time>
      </trkpt>
      <trkpt lat="46.87419" lon="6.63619">
        <ele>1217.6</ele>
        <time>2020-07-14T10:40:06.276Z</time>
      </trkpt>
      <trkpt lat="46.87433" lon="6.63631">
        <ele>1218.17</ele>
        <time>2020-07-14T10:40:12.554Z</time>
      </trkpt>
      <trkpt lat="46.8748" lon="6.63657">
        <ele>1219.6</ele>
        <time>2020-07-14T10:40:30.387Z</time>
      </trkpt>
      <trkpt lat="46.87503" lon="6.63671">
        <ele>1220.63</ele>
        <time>2020-07-14T10:40:40.908Z</time>
      </trkpt>
      <trkpt lat="46.87503" lon="6.6367">
        <ele>1220.63</ele>
        <time>2020-07-14T10:40:41.087Z</time>
      </trkpt>
      <trkpt lat="46.8754" lon="6.63692">
        <ele>1221.65</ele>
        <time>2020-07-14T10:40:54.767Z</time>
      </trkpt>
      <trkpt lat="46.87559" lon="6.63703">
        <ele>1222.11</ele>
        <time>2020-07-14T10:41:01.521Z</time>
      </trkpt>
      <trkpt lat="46.87569" lon="6.63709">
        <ele>1222.53</ele>
        <time>2020-07-14T10:41:05.925Z</time>
      </trkpt>
      <trkpt lat="46.87579" lon="6.63718">
        <ele>1222.67</ele>
        <time>2020-07-14T10:41:09.383Z</time>
      </trkpt>
      <trkpt lat="46.8759" lon="6.63732">
        <ele>1223.44</ele>
        <time>2020-07-14T10:41:16.198Z</time>
      </trkpt>
      <trkpt lat="46.87599" lon="6.6375">
        <ele>1224</ele>
        <time>2020-07-14T10:41:22.227Z</time>
      </trkpt>
      <trkpt lat="46.87652" lon="6.63864">
        <ele>1227.63</ele>
        <time>2020-07-14T10:42:00.435Z</time>
      </trkpt>
      <trkpt lat="46.87663" lon="6.63883">
        <ele>1228.34</ele>
        <time>2020-07-14T10:42:07.663Z</time>
      </trkpt>
      <trkpt lat="46.87671" lon="6.63894">
        <ele>1228.9</ele>
        <time>2020-07-14T10:42:12.733Z</time>
      </trkpt>
      <trkpt lat="46.87675" lon="6.63899">
        <ele>1228.99</ele>
        <time>2020-07-14T10:42:14.370Z</time>
      </trkpt>
      <trkpt lat="46.87693" lon="6.63924">
        <ele>1230.32</ele>
        <time>2020-07-14T10:42:26.032Z</time>
      </trkpt>
      <trkpt lat="46.87751" lon="6.64">
        <ele>1233.97</ele>
        <time>2020-07-14T10:43:01.040Z</time>
      </trkpt>
      <trkpt lat="46.87749" lon="6.63987">
        <ele>1233.52</ele>
        <time>2020-07-14T10:43:02.090Z</time>
      </trkpt>
      <trkpt lat="46.87747" lon="6.63975">
        <ele>1233.29</ele>
        <time>2020-07-14T10:43:03.296Z</time>
      </trkpt>
    </trkseg>
  </trk>
</gpx>